<?xml version="1.0" encoding="UTF-8" standalone="no" ?>
<gpx xmlns="http://www.topografix.com/GPX/1/1" xmlns:xsi="http://www.w3.org/2001/XMLSchema-instance" xsi:schemaLocation="http://www.topografix.com/GPX/1/1 http://www.topografix.com/GPX/1/1/gpx.xsd" version="1.1" creator="VisuGPX - https://www.visugpx.com">
  <metadata>
    <name>Rando VTT Dounoux du 22/04/2012</name>
    <desc><![CDATA[Trés bien beaucoup de petit sentier.
A refaire.]]></desc>
  </metadata>
  <trk>
    <name><![CDATA[rando Dounoux 40kms/D+1400]]></name>
    <trkseg>
      <trkpt lat="48.10594" lon="6.44394">
        <ele>429.85</ele>
        <time>2012-04-22T06:42:59Z</time>
      </trkpt>
      <trkpt lat="48.10604" lon="6.44394">
        <ele>427.44</ele>
        <time>2012-04-22T06:43:02Z</time>
      </trkpt>
      <trkpt lat="48.10611" lon="6.44417">
        <ele>426</ele>
        <time>2012-04-22T06:43:07Z</time>
      </trkpt>
      <trkpt lat="48.10615" lon="6.44518">
        <ele>428.4</ele>
        <time>2012-04-22T06:43:25Z</time>
      </trkpt>
      <trkpt lat="48.10612" lon="6.44556">
        <ele>426.48</ele>
        <time>2012-04-22T06:43:31Z</time>
      </trkpt>
      <trkpt lat="48.10601" lon="6.44631">
        <ele>424.08</ele>
        <time>2012-04-22T06:43:42Z</time>
      </trkpt>
      <trkpt lat="48.106" lon="6.44638">
        <ele>423.6</ele>
        <time>2012-04-22T06:43:43Z</time>
      </trkpt>
      <trkpt lat="48.10589" lon="6.44747">
        <ele>419.75</ele>
        <time>2012-04-22T06:43:56Z</time>
      </trkpt>
      <trkpt lat="48.10572" lon="6.44898">
        <ele>414.95</ele>
        <time>2012-04-22T06:44:13Z</time>
      </trkpt>
      <trkpt lat="48.10568" lon="6.44948">
        <ele>413.02</ele>
        <time>2012-04-22T06:44:19Z</time>
      </trkpt>
      <trkpt lat="48.10569" lon="6.44954">
        <ele>412.54</ele>
        <time>2012-04-22T06:44:20Z</time>
      </trkpt>
      <trkpt lat="48.10572" lon="6.44959">
        <ele>412.06</ele>
        <time>2012-04-22T06:44:21Z</time>
      </trkpt>
      <trkpt lat="48.10576" lon="6.44962">
        <ele>412.06</ele>
        <time>2012-04-22T06:44:22Z</time>
      </trkpt>
      <trkpt lat="48.1058" lon="6.44962">
        <ele>411.58</ele>
        <time>2012-04-22T06:44:23Z</time>
      </trkpt>
      <trkpt lat="48.10585" lon="6.44964">
        <ele>411.58</ele>
        <time>2012-04-22T06:44:24Z</time>
      </trkpt>
      <trkpt lat="48.10671" lon="6.44998">
        <ele>409.66</ele>
        <time>2012-04-22T06:44:41Z</time>
      </trkpt>
      <trkpt lat="48.10701" lon="6.45007">
        <ele>409.66</ele>
        <time>2012-04-22T06:44:47Z</time>
      </trkpt>
      <trkpt lat="48.10714" lon="6.45011">
        <ele>409.66</ele>
        <time>2012-04-22T06:44:50Z</time>
      </trkpt>
      <trkpt lat="48.10798" lon="6.45044">
        <ele>409.18</ele>
        <time>2012-04-22T06:45:07Z</time>
      </trkpt>
      <trkpt lat="48.10884" lon="6.45077">
        <ele>407.74</ele>
        <time>2012-04-22T06:45:24Z</time>
      </trkpt>
      <trkpt lat="48.10894" lon="6.45081">
        <ele>407.26</ele>
        <time>2012-04-22T06:45:26Z</time>
      </trkpt>
      <trkpt lat="48.1095" lon="6.45094">
        <ele>406.29</ele>
        <time>2012-04-22T06:45:37Z</time>
      </trkpt>
      <trkpt lat="48.10984" lon="6.45108">
        <ele>404.37</ele>
        <time>2012-04-22T06:45:44Z</time>
      </trkpt>
      <trkpt lat="48.10998" lon="6.45109">
        <ele>404.37</ele>
        <time>2012-04-22T06:45:47Z</time>
      </trkpt>
      <trkpt lat="48.11036" lon="6.451">
        <ele>401.97</ele>
        <time>2012-04-22T06:45:54Z</time>
      </trkpt>
      <trkpt lat="48.11076" lon="6.45093">
        <ele>401.01</ele>
        <time>2012-04-22T06:46:02Z</time>
      </trkpt>
      <trkpt lat="48.11122" lon="6.45073">
        <ele>400.53</ele>
        <time>2012-04-22T06:46:15Z</time>
      </trkpt>
      <trkpt lat="48.11126" lon="6.45055">
        <ele>401.49</ele>
        <time>2012-04-22T06:46:22Z</time>
      </trkpt>
      <trkpt lat="48.11134" lon="6.44994">
        <ele>404.85</ele>
        <time>2012-04-22T06:46:35Z</time>
      </trkpt>
      <trkpt lat="48.1115" lon="6.44944">
        <ele>405.33</ele>
        <time>2012-04-22T06:46:47Z</time>
      </trkpt>
      <trkpt lat="48.11191" lon="6.44925">
        <ele>405.33</ele>
        <time>2012-04-22T06:47:00Z</time>
      </trkpt>
      <trkpt lat="48.11205" lon="6.44875">
        <ele>405.81</ele>
        <time>2012-04-22T06:47:11Z</time>
      </trkpt>
      <trkpt lat="48.11231" lon="6.44847">
        <ele>405.81</ele>
        <time>2012-04-22T06:47:21Z</time>
      </trkpt>
      <trkpt lat="48.11249" lon="6.44835">
        <ele>406.29</ele>
        <time>2012-04-22T06:47:27Z</time>
      </trkpt>
      <trkpt lat="48.11264" lon="6.44845">
        <ele>406.29</ele>
        <time>2012-04-22T06:47:32Z</time>
      </trkpt>
      <trkpt lat="48.11275" lon="6.44856">
        <ele>406.77</ele>
        <time>2012-04-22T06:47:36Z</time>
      </trkpt>
      <trkpt lat="48.11309" lon="6.44837">
        <ele>409.18</ele>
        <time>2012-04-22T06:47:48Z</time>
      </trkpt>
      <trkpt lat="48.11331" lon="6.44826">
        <ele>412.06</ele>
        <time>2012-04-22T06:47:57Z</time>
      </trkpt>
      <trkpt lat="48.11357" lon="6.44872">
        <ele>413.98</ele>
        <time>2012-04-22T06:48:11Z</time>
      </trkpt>
      <trkpt lat="48.11371" lon="6.44865">
        <ele>415.91</ele>
        <time>2012-04-22T06:48:17Z</time>
      </trkpt>
      <trkpt lat="48.11388" lon="6.44828">
        <ele>418.31</ele>
        <time>2012-04-22T06:48:28Z</time>
      </trkpt>
      <trkpt lat="48.11411" lon="6.44779">
        <ele>420.23</ele>
        <time>2012-04-22T06:48:42Z</time>
      </trkpt>
      <trkpt lat="48.11435" lon="6.44732">
        <ele>421.68</ele>
        <time>2012-04-22T06:48:55Z</time>
      </trkpt>
      <trkpt lat="48.11463" lon="6.44685">
        <ele>426</ele>
        <time>2012-04-22T06:49:09Z</time>
      </trkpt>
      <trkpt lat="48.11491" lon="6.44638">
        <ele>432.73</ele>
        <time>2012-04-22T06:49:24Z</time>
      </trkpt>
      <trkpt lat="48.11521" lon="6.44591">
        <ele>436.58</ele>
        <time>2012-04-22T06:49:39Z</time>
      </trkpt>
      <trkpt lat="48.11535" lon="6.44562">
        <ele>439.46</ele>
        <time>2012-04-22T06:49:48Z</time>
      </trkpt>
      <trkpt lat="48.11545" lon="6.44565">
        <ele>441.38</ele>
        <time>2012-04-22T06:49:54Z</time>
      </trkpt>
      <trkpt lat="48.11571" lon="6.44597">
        <ele>449.55</ele>
        <time>2012-04-22T06:50:10Z</time>
      </trkpt>
      <trkpt lat="48.11574" lon="6.44601">
        <ele>449.55</ele>
        <time>2012-04-22T06:50:12Z</time>
      </trkpt>
      <trkpt lat="48.11575" lon="6.44613">
        <ele>451.48</ele>
        <time>2012-04-22T06:50:16Z</time>
      </trkpt>
      <trkpt lat="48.11553" lon="6.44698">
        <ele>450.52</ele>
        <time>2012-04-22T06:50:32Z</time>
      </trkpt>
      <trkpt lat="48.11544" lon="6.44779">
        <ele>447.15</ele>
        <time>2012-04-22T06:50:47Z</time>
      </trkpt>
      <trkpt lat="48.11561" lon="6.44809">
        <ele>449.55</ele>
        <time>2012-04-22T06:50:58Z</time>
      </trkpt>
      <trkpt lat="48.11583" lon="6.44839">
        <ele>454.84</ele>
        <time>2012-04-22T06:51:10Z</time>
      </trkpt>
      <trkpt lat="48.11612" lon="6.44878">
        <ele>456.76</ele>
        <time>2012-04-22T06:51:23Z</time>
      </trkpt>
      <trkpt lat="48.11632" lon="6.44918">
        <ele>460.13</ele>
        <time>2012-04-22T06:51:36Z</time>
      </trkpt>
      <trkpt lat="48.11654" lon="6.44968">
        <ele>459.65</ele>
        <time>2012-04-22T06:51:50Z</time>
      </trkpt>
      <trkpt lat="48.11686" lon="6.45023">
        <ele>459.65</ele>
        <time>2012-04-22T06:52:05Z</time>
      </trkpt>
      <trkpt lat="48.11723" lon="6.45064">
        <ele>459.17</ele>
        <time>2012-04-22T06:52:20Z</time>
      </trkpt>
      <trkpt lat="48.11758" lon="6.45079">
        <ele>459.17</ele>
        <time>2012-04-22T06:52:33Z</time>
      </trkpt>
      <trkpt lat="48.11761" lon="6.45072">
        <ele>459.65</ele>
        <time>2012-04-22T06:52:37Z</time>
      </trkpt>
      <trkpt lat="48.11762" lon="6.45066">
        <ele>461.57</ele>
        <time>2012-04-22T06:52:41Z</time>
      </trkpt>
      <trkpt lat="48.11768" lon="6.45051">
        <ele>467.34</ele>
        <time>2012-04-22T06:52:49Z</time>
      </trkpt>
      <trkpt lat="48.11777" lon="6.45026">
        <ele>478.39</ele>
        <time>2012-04-22T06:53:02Z</time>
      </trkpt>
      <trkpt lat="48.11785" lon="6.45002">
        <ele>487.53</ele>
        <time>2012-04-22T06:53:18Z</time>
      </trkpt>
      <trkpt lat="48.11794" lon="6.44974">
        <ele>489.93</ele>
        <time>2012-04-22T06:53:29Z</time>
      </trkpt>
      <trkpt lat="48.11787" lon="6.4496">
        <ele>495.7</ele>
        <time>2012-04-22T06:53:41Z</time>
      </trkpt>
      <trkpt lat="48.11776" lon="6.44914">
        <ele>501.95</ele>
        <time>2012-04-22T06:53:53Z</time>
      </trkpt>
      <trkpt lat="48.11783" lon="6.44848">
        <ele>503.87</ele>
        <time>2012-04-22T06:54:07Z</time>
      </trkpt>
      <trkpt lat="48.118" lon="6.44783">
        <ele>496.66</ele>
        <time>2012-04-22T06:54:18Z</time>
      </trkpt>
      <trkpt lat="48.11815" lon="6.44751">
        <ele>496.18</ele>
        <time>2012-04-22T06:54:29Z</time>
      </trkpt>
      <trkpt lat="48.11838" lon="6.44696">
        <ele>497.14</ele>
        <time>2012-04-22T06:54:42Z</time>
      </trkpt>
      <trkpt lat="48.11866" lon="6.44634">
        <ele>498.1</ele>
        <time>2012-04-22T06:54:54Z</time>
      </trkpt>
      <trkpt lat="48.11879" lon="6.44607">
        <ele>499.54</ele>
        <time>2012-04-22T06:55:03Z</time>
      </trkpt>
      <trkpt lat="48.11903" lon="6.44556">
        <ele>501.95</ele>
        <time>2012-04-22T06:55:16Z</time>
      </trkpt>
      <trkpt lat="48.1192" lon="6.44526">
        <ele>500.5</ele>
        <time>2012-04-22T06:55:24Z</time>
      </trkpt>
      <trkpt lat="48.11938" lon="6.44495">
        <ele>503.87</ele>
        <time>2012-04-22T06:55:34Z</time>
      </trkpt>
      <trkpt lat="48.11961" lon="6.44461">
        <ele>505.31</ele>
        <time>2012-04-22T06:55:46Z</time>
      </trkpt>
      <trkpt lat="48.11985" lon="6.44432">
        <ele>507.71</ele>
        <time>2012-04-22T06:55:57Z</time>
      </trkpt>
      <trkpt lat="48.12013" lon="6.44389">
        <ele>511.08</ele>
        <time>2012-04-22T06:56:11Z</time>
      </trkpt>
      <trkpt lat="48.1204" lon="6.4436">
        <ele>518.29</ele>
        <time>2012-04-22T06:56:23Z</time>
      </trkpt>
      <trkpt lat="48.12077" lon="6.44368">
        <ele>523.58</ele>
        <time>2012-04-22T06:56:37Z</time>
      </trkpt>
      <trkpt lat="48.12103" lon="6.44379">
        <ele>526.46</ele>
        <time>2012-04-22T06:56:49Z</time>
      </trkpt>
      <trkpt lat="48.1211" lon="6.44381">
        <ele>527.42</ele>
        <time>2012-04-22T06:56:53Z</time>
      </trkpt>
      <trkpt lat="48.12133" lon="6.44396">
        <ele>530.3</ele>
        <time>2012-04-22T06:57:05Z</time>
      </trkpt>
      <trkpt lat="48.12139" lon="6.44402">
        <ele>530.79</ele>
        <time>2012-04-22T06:57:09Z</time>
      </trkpt>
      <trkpt lat="48.12159" lon="6.44407">
        <ele>535.11</ele>
        <time>2012-04-22T06:57:23Z</time>
      </trkpt>
      <trkpt lat="48.12162" lon="6.44408">
        <ele>535.59</ele>
        <time>2012-04-22T06:57:26Z</time>
      </trkpt>
      <trkpt lat="48.12183" lon="6.44402">
        <ele>539.92</ele>
        <time>2012-04-22T06:57:40Z</time>
      </trkpt>
      <trkpt lat="48.1221" lon="6.44386">
        <ele>542.32</ele>
        <time>2012-04-22T06:57:51Z</time>
      </trkpt>
      <trkpt lat="48.12216" lon="6.44382">
        <ele>541.84</ele>
        <time>2012-04-22T06:57:53Z</time>
      </trkpt>
      <trkpt lat="48.12239" lon="6.44389">
        <ele>539.92</ele>
        <time>2012-04-22T06:58:03Z</time>
      </trkpt>
      <trkpt lat="48.12242" lon="6.44394">
        <ele>539.92</ele>
        <time>2012-04-22T06:58:07Z</time>
      </trkpt>
      <trkpt lat="48.12253" lon="6.44433">
        <ele>540.88</ele>
        <time>2012-04-22T06:58:23Z</time>
      </trkpt>
      <trkpt lat="48.12254" lon="6.44437">
        <ele>540.4</ele>
        <time>2012-04-22T06:58:25Z</time>
      </trkpt>
      <trkpt lat="48.12258" lon="6.44445">
        <ele>539.44</ele>
        <time>2012-04-22T06:58:28Z</time>
      </trkpt>
      <trkpt lat="48.12276" lon="6.44477">
        <ele>535.59</ele>
        <time>2012-04-22T06:58:40Z</time>
      </trkpt>
      <trkpt lat="48.12294" lon="6.44509">
        <ele>537.51</ele>
        <time>2012-04-22T06:58:52Z</time>
      </trkpt>
      <trkpt lat="48.12309" lon="6.4453">
        <ele>534.15</ele>
        <time>2012-04-22T06:59:05Z</time>
      </trkpt>
      <trkpt lat="48.12339" lon="6.44575">
        <ele>531.75</ele>
        <time>2012-04-22T06:59:17Z</time>
      </trkpt>
      <trkpt lat="48.12345" lon="6.44584">
        <ele>532.23</ele>
        <time>2012-04-22T06:59:19Z</time>
      </trkpt>
      <trkpt lat="48.12401" lon="6.44652">
        <ele>529.82</ele>
        <time>2012-04-22T06:59:30Z</time>
      </trkpt>
      <trkpt lat="48.1243" lon="6.44686">
        <ele>528.38</ele>
        <time>2012-04-22T06:59:35Z</time>
      </trkpt>
      <trkpt lat="48.12434" lon="6.44691">
        <ele>528.38</ele>
        <time>2012-04-22T06:59:36Z</time>
      </trkpt>
      <trkpt lat="48.12436" lon="6.44696">
        <ele>528.38</ele>
        <time>2012-04-22T06:59:37Z</time>
      </trkpt>
      <trkpt lat="48.12437" lon="6.44702">
        <ele>528.38</ele>
        <time>2012-04-22T06:59:38Z</time>
      </trkpt>
      <trkpt lat="48.1243" lon="6.44727">
        <ele>527.9</ele>
        <time>2012-04-22T06:59:44Z</time>
      </trkpt>
      <trkpt lat="48.12427" lon="6.4473">
        <ele>528.38</ele>
        <time>2012-04-22T06:59:45Z</time>
      </trkpt>
      <trkpt lat="48.12422" lon="6.44733">
        <ele>528.38</ele>
        <time>2012-04-22T06:59:46Z</time>
      </trkpt>
      <trkpt lat="48.12398" lon="6.44744">
        <ele>528.86</ele>
        <time>2012-04-22T06:59:50Z</time>
      </trkpt>
      <trkpt lat="48.12393" lon="6.44744">
        <ele>528.86</ele>
        <time>2012-04-22T06:59:51Z</time>
      </trkpt>
      <trkpt lat="48.12351" lon="6.44733">
        <ele>532.23</ele>
        <time>2012-04-22T07:00:02Z</time>
      </trkpt>
      <trkpt lat="48.12318" lon="6.44724">
        <ele>537.51</ele>
        <time>2012-04-22T07:00:14Z</time>
      </trkpt>
      <trkpt lat="48.12309" lon="6.44726">
        <ele>537.99</ele>
        <time>2012-04-22T07:00:16Z</time>
      </trkpt>
      <trkpt lat="48.12304" lon="6.44728">
        <ele>538.48</ele>
        <time>2012-04-22T07:00:17Z</time>
      </trkpt>
      <trkpt lat="48.12299" lon="6.44731">
        <ele>538.48</ele>
        <time>2012-04-22T07:00:18Z</time>
      </trkpt>
      <trkpt lat="48.1229" lon="6.44738">
        <ele>539.44</ele>
        <time>2012-04-22T07:00:20Z</time>
      </trkpt>
      <trkpt lat="48.12254" lon="6.44765">
        <ele>542.32</ele>
        <time>2012-04-22T07:00:30Z</time>
      </trkpt>
      <trkpt lat="48.12215" lon="6.44776">
        <ele>544.72</ele>
        <time>2012-04-22T07:00:40Z</time>
      </trkpt>
      <trkpt lat="48.12195" lon="6.44786">
        <ele>543.28</ele>
        <time>2012-04-22T07:00:48Z</time>
      </trkpt>
      <trkpt lat="48.12192" lon="6.44786">
        <ele>543.76</ele>
        <time>2012-04-22T07:00:49Z</time>
      </trkpt>
      <trkpt lat="48.12189" lon="6.44786">
        <ele>543.76</ele>
        <time>2012-04-22T07:00:50Z</time>
      </trkpt>
      <trkpt lat="48.12167" lon="6.44778">
        <ele>546.65</ele>
        <time>2012-04-22T07:01:00Z</time>
      </trkpt>
      <trkpt lat="48.12164" lon="6.44778">
        <ele>546.17</ele>
        <time>2012-04-22T07:01:01Z</time>
      </trkpt>
      <trkpt lat="48.12161" lon="6.44775">
        <ele>546.17</ele>
        <time>2012-04-22T07:01:02Z</time>
      </trkpt>
      <trkpt lat="48.12155" lon="6.44774">
        <ele>545.2</ele>
        <time>2012-04-22T07:01:04Z</time>
      </trkpt>
      <trkpt lat="48.12153" lon="6.44774">
        <ele>545.2</ele>
        <time>2012-04-22T07:01:05Z</time>
      </trkpt>
      <trkpt lat="48.12143" lon="6.44779">
        <ele>545.69</ele>
        <time>2012-04-22T07:01:10Z</time>
      </trkpt>
      <trkpt lat="48.12142" lon="6.4478">
        <ele>545.69</ele>
        <time>2012-04-22T07:01:11Z</time>
      </trkpt>
      <trkpt lat="48.12139" lon="6.44784">
        <ele>545.2</ele>
        <time>2012-04-22T07:01:18Z</time>
      </trkpt>
      <trkpt lat="48.12139" lon="6.44786">
        <ele>545.2</ele>
        <time>2012-04-22T07:01:19Z</time>
      </trkpt>
      <trkpt lat="48.1214" lon="6.44789">
        <ele>545.2</ele>
        <time>2012-04-22T07:01:20Z</time>
      </trkpt>
      <trkpt lat="48.1214" lon="6.44792">
        <ele>545.69</ele>
        <time>2012-04-22T07:01:21Z</time>
      </trkpt>
      <trkpt lat="48.12142" lon="6.44795">
        <ele>545.2</ele>
        <time>2012-04-22T07:01:22Z</time>
      </trkpt>
      <trkpt lat="48.12141" lon="6.44798">
        <ele>544.24</ele>
        <time>2012-04-22T07:01:23Z</time>
      </trkpt>
      <trkpt lat="48.1214" lon="6.44802">
        <ele>543.28</ele>
        <time>2012-04-22T07:01:24Z</time>
      </trkpt>
      <trkpt lat="48.12141" lon="6.44807">
        <ele>542.32</ele>
        <time>2012-04-22T07:01:25Z</time>
      </trkpt>
      <trkpt lat="48.12141" lon="6.44812">
        <ele>540.88</ele>
        <time>2012-04-22T07:01:26Z</time>
      </trkpt>
      <trkpt lat="48.12154" lon="6.44864">
        <ele>533.19</ele>
        <time>2012-04-22T07:01:37Z</time>
      </trkpt>
      <trkpt lat="48.12159" lon="6.44883">
        <ele>532.71</ele>
        <time>2012-04-22T07:01:43Z</time>
      </trkpt>
      <trkpt lat="48.1217" lon="6.44913">
        <ele>528.86</ele>
        <time>2012-04-22T07:01:54Z</time>
      </trkpt>
      <trkpt lat="48.12175" lon="6.4492">
        <ele>525.5</ele>
        <time>2012-04-22T07:02:13Z</time>
      </trkpt>
      <trkpt lat="48.12176" lon="6.44926">
        <ele>525.02</ele>
        <time>2012-04-22T07:02:21Z</time>
      </trkpt>
      <trkpt lat="48.12179" lon="6.4494">
        <ele>524.54</ele>
        <time>2012-04-22T07:02:25Z</time>
      </trkpt>
      <trkpt lat="48.12186" lon="6.44958">
        <ele>522.61</ele>
        <time>2012-04-22T07:02:28Z</time>
      </trkpt>
      <trkpt lat="48.12199" lon="6.44994">
        <ele>517.33</ele>
        <time>2012-04-22T07:02:39Z</time>
      </trkpt>
      <trkpt lat="48.12215" lon="6.45044">
        <ele>512.52</ele>
        <time>2012-04-22T07:02:49Z</time>
      </trkpt>
      <trkpt lat="48.12235" lon="6.451">
        <ele>508.67</ele>
        <time>2012-04-22T07:02:59Z</time>
      </trkpt>
      <trkpt lat="48.12256" lon="6.45158">
        <ele>505.79</ele>
        <time>2012-04-22T07:03:10Z</time>
      </trkpt>
      <trkpt lat="48.12263" lon="6.45181">
        <ele>499.54</ele>
        <time>2012-04-22T07:03:19Z</time>
      </trkpt>
      <trkpt lat="48.12263" lon="6.45181">
        <ele>499.06</ele>
        <time>2012-04-22T07:03:20Z</time>
      </trkpt>
      <trkpt lat="48.12266" lon="6.45185">
        <ele>496.66</ele>
        <time>2012-04-22T07:03:25Z</time>
      </trkpt>
      <trkpt lat="48.12275" lon="6.4519">
        <ele>487.05</ele>
        <time>2012-04-22T07:03:38Z</time>
      </trkpt>
      <trkpt lat="48.12278" lon="6.45181">
        <ele>486.56</ele>
        <time>2012-04-22T07:03:43Z</time>
      </trkpt>
      <trkpt lat="48.12283" lon="6.45142">
        <ele>486.56</ele>
        <time>2012-04-22T07:03:57Z</time>
      </trkpt>
      <trkpt lat="48.12277" lon="6.45112">
        <ele>487.53</ele>
        <time>2012-04-22T07:04:09Z</time>
      </trkpt>
      <trkpt lat="48.12275" lon="6.45102">
        <ele>487.53</ele>
        <time>2012-04-22T07:04:16Z</time>
      </trkpt>
      <trkpt lat="48.12275" lon="6.45099">
        <ele>488.01</ele>
        <time>2012-04-22T07:04:17Z</time>
      </trkpt>
      <trkpt lat="48.12274" lon="6.45096">
        <ele>488.01</ele>
        <time>2012-04-22T07:04:18Z</time>
      </trkpt>
      <trkpt lat="48.12274" lon="6.45092">
        <ele>488.01</ele>
        <time>2012-04-22T07:04:19Z</time>
      </trkpt>
      <trkpt lat="48.12275" lon="6.4509">
        <ele>488.49</ele>
        <time>2012-04-22T07:04:20Z</time>
      </trkpt>
      <trkpt lat="48.12274" lon="6.45087">
        <ele>488.49</ele>
        <time>2012-04-22T07:04:21Z</time>
      </trkpt>
      <trkpt lat="48.12274" lon="6.45084">
        <ele>488.97</ele>
        <time>2012-04-22T07:04:22Z</time>
      </trkpt>
      <trkpt lat="48.12274" lon="6.45081">
        <ele>488.97</ele>
        <time>2012-04-22T07:04:23Z</time>
      </trkpt>
      <trkpt lat="48.12273" lon="6.45078">
        <ele>489.45</ele>
        <time>2012-04-22T07:04:24Z</time>
      </trkpt>
      <trkpt lat="48.12272" lon="6.45075">
        <ele>489.45</ele>
        <time>2012-04-22T07:04:25Z</time>
      </trkpt>
      <trkpt lat="48.12272" lon="6.45071">
        <ele>489.93</ele>
        <time>2012-04-22T07:04:26Z</time>
      </trkpt>
      <trkpt lat="48.12271" lon="6.45067">
        <ele>490.41</ele>
        <time>2012-04-22T07:04:27Z</time>
      </trkpt>
      <trkpt lat="48.12263" lon="6.44996">
        <ele>494.74</ele>
        <time>2012-04-22T07:04:40Z</time>
      </trkpt>
      <trkpt lat="48.12263" lon="6.44926">
        <ele>490.89</ele>
        <time>2012-04-22T07:04:53Z</time>
      </trkpt>
      <trkpt lat="48.12291" lon="6.44887">
        <ele>497.14</ele>
        <time>2012-04-22T07:05:03Z</time>
      </trkpt>
      <trkpt lat="48.12295" lon="6.44885">
        <ele>498.1</ele>
        <time>2012-04-22T07:05:04Z</time>
      </trkpt>
      <trkpt lat="48.12299" lon="6.44883">
        <ele>499.06</ele>
        <time>2012-04-22T07:05:05Z</time>
      </trkpt>
      <trkpt lat="48.12302" lon="6.44882">
        <ele>499.54</ele>
        <time>2012-04-22T07:05:06Z</time>
      </trkpt>
      <trkpt lat="48.12306" lon="6.44882">
        <ele>500.5</ele>
        <time>2012-04-22T07:05:07Z</time>
      </trkpt>
      <trkpt lat="48.1231" lon="6.44884">
        <ele>501.46</ele>
        <time>2012-04-22T07:05:08Z</time>
      </trkpt>
      <trkpt lat="48.12314" lon="6.44886">
        <ele>502.43</ele>
        <time>2012-04-22T07:05:09Z</time>
      </trkpt>
      <trkpt lat="48.12318" lon="6.44888">
        <ele>503.39</ele>
        <time>2012-04-22T07:05:10Z</time>
      </trkpt>
      <trkpt lat="48.12322" lon="6.4489">
        <ele>503.39</ele>
        <time>2012-04-22T07:05:11Z</time>
      </trkpt>
      <trkpt lat="48.12326" lon="6.44893">
        <ele>502.91</ele>
        <time>2012-04-22T07:05:12Z</time>
      </trkpt>
      <trkpt lat="48.12331" lon="6.44897">
        <ele>502.43</ele>
        <time>2012-04-22T07:05:13Z</time>
      </trkpt>
      <trkpt lat="48.12336" lon="6.449">
        <ele>501.95</ele>
        <time>2012-04-22T07:05:14Z</time>
      </trkpt>
      <trkpt lat="48.12394" lon="6.44957">
        <ele>494.74</ele>
        <time>2012-04-22T07:05:27Z</time>
      </trkpt>
      <trkpt lat="48.12423" lon="6.44983">
        <ele>491.37</ele>
        <time>2012-04-22T07:05:34Z</time>
      </trkpt>
      <trkpt lat="48.12427" lon="6.44986">
        <ele>490.89</ele>
        <time>2012-04-22T07:05:35Z</time>
      </trkpt>
      <trkpt lat="48.12431" lon="6.44987">
        <ele>489.93</ele>
        <time>2012-04-22T07:05:36Z</time>
      </trkpt>
      <trkpt lat="48.12436" lon="6.44988">
        <ele>489.93</ele>
        <time>2012-04-22T07:05:37Z</time>
      </trkpt>
      <trkpt lat="48.1244" lon="6.44986">
        <ele>489.93</ele>
        <time>2012-04-22T07:05:38Z</time>
      </trkpt>
      <trkpt lat="48.12444" lon="6.44985">
        <ele>489.93</ele>
        <time>2012-04-22T07:05:39Z</time>
      </trkpt>
      <trkpt lat="48.12448" lon="6.44982">
        <ele>489.93</ele>
        <time>2012-04-22T07:05:40Z</time>
      </trkpt>
      <trkpt lat="48.12451" lon="6.44979">
        <ele>489.93</ele>
        <time>2012-04-22T07:05:41Z</time>
      </trkpt>
      <trkpt lat="48.12453" lon="6.44975">
        <ele>490.41</ele>
        <time>2012-04-22T07:05:42Z</time>
      </trkpt>
      <trkpt lat="48.12456" lon="6.4497">
        <ele>490.41</ele>
        <time>2012-04-22T07:05:43Z</time>
      </trkpt>
      <trkpt lat="48.1249" lon="6.44929">
        <ele>493.29</ele>
        <time>2012-04-22T07:05:54Z</time>
      </trkpt>
      <trkpt lat="48.12494" lon="6.44927">
        <ele>493.77</ele>
        <time>2012-04-22T07:05:55Z</time>
      </trkpt>
      <trkpt lat="48.12499" lon="6.44925">
        <ele>493.77</ele>
        <time>2012-04-22T07:05:56Z</time>
      </trkpt>
      <trkpt lat="48.12503" lon="6.44924">
        <ele>494.26</ele>
        <time>2012-04-22T07:05:57Z</time>
      </trkpt>
      <trkpt lat="48.12508" lon="6.44923">
        <ele>495.22</ele>
        <time>2012-04-22T07:05:58Z</time>
      </trkpt>
      <trkpt lat="48.12512" lon="6.44924">
        <ele>495.22</ele>
        <time>2012-04-22T07:05:59Z</time>
      </trkpt>
      <trkpt lat="48.12516" lon="6.44926">
        <ele>495.22</ele>
        <time>2012-04-22T07:06:00Z</time>
      </trkpt>
      <trkpt lat="48.1252" lon="6.44928">
        <ele>495.7</ele>
        <time>2012-04-22T07:06:01Z</time>
      </trkpt>
      <trkpt lat="48.12557" lon="6.44954">
        <ele>498.58</ele>
        <time>2012-04-22T07:06:09Z</time>
      </trkpt>
      <trkpt lat="48.12562" lon="6.44959">
        <ele>498.58</ele>
        <time>2012-04-22T07:06:10Z</time>
      </trkpt>
      <trkpt lat="48.12566" lon="6.44963">
        <ele>498.58</ele>
        <time>2012-04-22T07:06:11Z</time>
      </trkpt>
      <trkpt lat="48.12569" lon="6.44969">
        <ele>498.58</ele>
        <time>2012-04-22T07:06:12Z</time>
      </trkpt>
      <trkpt lat="48.12573" lon="6.44976">
        <ele>498.58</ele>
        <time>2012-04-22T07:06:13Z</time>
      </trkpt>
      <trkpt lat="48.12577" lon="6.44983">
        <ele>498.58</ele>
        <time>2012-04-22T07:06:14Z</time>
      </trkpt>
      <trkpt lat="48.12582" lon="6.44988">
        <ele>497.14</ele>
        <time>2012-04-22T07:06:15Z</time>
      </trkpt>
      <trkpt lat="48.12618" lon="6.45107">
        <ele>497.14</ele>
        <time>2012-04-22T07:06:28Z</time>
      </trkpt>
      <trkpt lat="48.12621" lon="6.45115">
        <ele>497.14</ele>
        <time>2012-04-22T07:06:29Z</time>
      </trkpt>
      <trkpt lat="48.12624" lon="6.45123">
        <ele>497.14</ele>
        <time>2012-04-22T07:06:30Z</time>
      </trkpt>
      <trkpt lat="48.12628" lon="6.45128">
        <ele>497.14</ele>
        <time>2012-04-22T07:06:31Z</time>
      </trkpt>
      <trkpt lat="48.12657" lon="6.45166">
        <ele>492.81</ele>
        <time>2012-04-22T07:06:45Z</time>
      </trkpt>
      <trkpt lat="48.12673" lon="6.45188">
        <ele>490.41</ele>
        <time>2012-04-22T07:06:55Z</time>
      </trkpt>
      <trkpt lat="48.12699" lon="6.45226">
        <ele>485.6</ele>
        <time>2012-04-22T07:07:11Z</time>
      </trkpt>
      <trkpt lat="48.12709" lon="6.4523">
        <ele>482.72</ele>
        <time>2012-04-22T07:07:15Z</time>
      </trkpt>
      <trkpt lat="48.12715" lon="6.45225">
        <ele>482.24</ele>
        <time>2012-04-22T07:07:19Z</time>
      </trkpt>
      <trkpt lat="48.12737" lon="6.45185">
        <ele>484.16</ele>
        <time>2012-04-22T07:07:37Z</time>
      </trkpt>
      <trkpt lat="48.12756" lon="6.45142">
        <ele>486.08</ele>
        <time>2012-04-22T07:07:53Z</time>
      </trkpt>
      <trkpt lat="48.12763" lon="6.45129">
        <ele>486.56</ele>
        <time>2012-04-22T07:07:58Z</time>
      </trkpt>
      <trkpt lat="48.12779" lon="6.45144">
        <ele>488.01</ele>
        <time>2012-04-22T07:08:07Z</time>
      </trkpt>
      <trkpt lat="48.12802" lon="6.45182">
        <ele>490.89</ele>
        <time>2012-04-22T07:08:18Z</time>
      </trkpt>
      <trkpt lat="48.12826" lon="6.45223">
        <ele>495.7</ele>
        <time>2012-04-22T07:08:29Z</time>
      </trkpt>
      <trkpt lat="48.1285" lon="6.45265">
        <ele>498.58</ele>
        <time>2012-04-22T07:08:41Z</time>
      </trkpt>
      <trkpt lat="48.12873" lon="6.45291">
        <ele>498.1</ele>
        <time>2012-04-22T07:08:53Z</time>
      </trkpt>
      <trkpt lat="48.12905" lon="6.45314">
        <ele>498.1</ele>
        <time>2012-04-22T07:09:06Z</time>
      </trkpt>
      <trkpt lat="48.12946" lon="6.45316">
        <ele>491.85</ele>
        <time>2012-04-22T07:09:18Z</time>
      </trkpt>
      <trkpt lat="48.12982" lon="6.45284">
        <ele>487.05</ele>
        <time>2012-04-22T07:09:31Z</time>
      </trkpt>
      <trkpt lat="48.12987" lon="6.45277">
        <ele>486.56</ele>
        <time>2012-04-22T07:09:33Z</time>
      </trkpt>
      <trkpt lat="48.13026" lon="6.45287">
        <ele>487.05</ele>
        <time>2012-04-22T07:09:46Z</time>
      </trkpt>
      <trkpt lat="48.13074" lon="6.45313">
        <ele>488.01</ele>
        <time>2012-04-22T07:09:59Z</time>
      </trkpt>
      <trkpt lat="48.13131" lon="6.45347">
        <ele>487.05</ele>
        <time>2012-04-22T07:10:15Z</time>
      </trkpt>
      <trkpt lat="48.13179" lon="6.45405">
        <ele>488.01</ele>
        <time>2012-04-22T07:10:29Z</time>
      </trkpt>
      <trkpt lat="48.13183" lon="6.45409">
        <ele>488.49</ele>
        <time>2012-04-22T07:10:30Z</time>
      </trkpt>
      <trkpt lat="48.13219" lon="6.45449">
        <ele>492.33</ele>
        <time>2012-04-22T07:10:40Z</time>
      </trkpt>
      <trkpt lat="48.1324" lon="6.4547">
        <ele>494.26</ele>
        <time>2012-04-22T07:10:46Z</time>
      </trkpt>
      <trkpt lat="48.13254" lon="6.4549">
        <ele>496.66</ele>
        <time>2012-04-22T07:10:51Z</time>
      </trkpt>
      <trkpt lat="48.13277" lon="6.45511">
        <ele>500.02</ele>
        <time>2012-04-22T07:10:57Z</time>
      </trkpt>
      <trkpt lat="48.13281" lon="6.45515">
        <ele>500.5</ele>
        <time>2012-04-22T07:10:58Z</time>
      </trkpt>
      <trkpt lat="48.13285" lon="6.45519">
        <ele>500.98</ele>
        <time>2012-04-22T07:10:59Z</time>
      </trkpt>
      <trkpt lat="48.13289" lon="6.45522">
        <ele>501.46</ele>
        <time>2012-04-22T07:11:00Z</time>
      </trkpt>
      <trkpt lat="48.13293" lon="6.45525">
        <ele>501.95</ele>
        <time>2012-04-22T07:11:01Z</time>
      </trkpt>
      <trkpt lat="48.13297" lon="6.45528">
        <ele>501.95</ele>
        <time>2012-04-22T07:11:02Z</time>
      </trkpt>
      <trkpt lat="48.13332" lon="6.45557">
        <ele>502.43</ele>
        <time>2012-04-22T07:11:09Z</time>
      </trkpt>
      <trkpt lat="48.13336" lon="6.45562">
        <ele>501.95</ele>
        <time>2012-04-22T07:11:10Z</time>
      </trkpt>
      <trkpt lat="48.13338" lon="6.45566">
        <ele>501.95</ele>
        <time>2012-04-22T07:11:11Z</time>
      </trkpt>
      <trkpt lat="48.1334" lon="6.4557">
        <ele>501.95</ele>
        <time>2012-04-22T07:11:12Z</time>
      </trkpt>
      <trkpt lat="48.13341" lon="6.45576">
        <ele>501.95</ele>
        <time>2012-04-22T07:11:13Z</time>
      </trkpt>
      <trkpt lat="48.13342" lon="6.45584">
        <ele>501.95</ele>
        <time>2012-04-22T07:11:14Z</time>
      </trkpt>
      <trkpt lat="48.13344" lon="6.45625">
        <ele>501.95</ele>
        <time>2012-04-22T07:11:18Z</time>
      </trkpt>
      <trkpt lat="48.13343" lon="6.45638">
        <ele>501.95</ele>
        <time>2012-04-22T07:11:19Z</time>
      </trkpt>
      <trkpt lat="48.13333" lon="6.45718">
        <ele>501.46</ele>
        <time>2012-04-22T07:11:25Z</time>
      </trkpt>
      <trkpt lat="48.13313" lon="6.45768">
        <ele>501.46</ele>
        <time>2012-04-22T07:11:31Z</time>
      </trkpt>
      <trkpt lat="48.13306" lon="6.45786">
        <ele>501.46</ele>
        <time>2012-04-22T07:11:33Z</time>
      </trkpt>
      <trkpt lat="48.1329" lon="6.45813">
        <ele>501.46</ele>
        <time>2012-04-22T07:11:36Z</time>
      </trkpt>
      <trkpt lat="48.13265" lon="6.45848">
        <ele>501.95</ele>
        <time>2012-04-22T07:11:40Z</time>
      </trkpt>
      <trkpt lat="48.13227" lon="6.45865">
        <ele>498.1</ele>
        <time>2012-04-22T07:11:46Z</time>
      </trkpt>
      <trkpt lat="48.13203" lon="6.45871">
        <ele>495.22</ele>
        <time>2012-04-22T07:11:52Z</time>
      </trkpt>
      <trkpt lat="48.13178" lon="6.45922">
        <ele>481.28</ele>
        <time>2012-04-22T07:12:03Z</time>
      </trkpt>
      <trkpt lat="48.13175" lon="6.4594">
        <ele>479.84</ele>
        <time>2012-04-22T07:12:06Z</time>
      </trkpt>
      <trkpt lat="48.13179" lon="6.46014">
        <ele>475.51</ele>
        <time>2012-04-22T07:12:18Z</time>
      </trkpt>
      <trkpt lat="48.1319" lon="6.46107">
        <ele>473.11</ele>
        <time>2012-04-22T07:12:31Z</time>
      </trkpt>
      <trkpt lat="48.13194" lon="6.46122">
        <ele>472.63</ele>
        <time>2012-04-22T07:12:33Z</time>
      </trkpt>
      <trkpt lat="48.13196" lon="6.46128">
        <ele>472.63</ele>
        <time>2012-04-22T07:12:34Z</time>
      </trkpt>
      <trkpt lat="48.13198" lon="6.46134">
        <ele>472.63</ele>
        <time>2012-04-22T07:12:35Z</time>
      </trkpt>
      <trkpt lat="48.132" lon="6.46141">
        <ele>472.14</ele>
        <time>2012-04-22T07:12:36Z</time>
      </trkpt>
      <trkpt lat="48.13202" lon="6.46147">
        <ele>472.14</ele>
        <time>2012-04-22T07:12:37Z</time>
      </trkpt>
      <trkpt lat="48.13225" lon="6.46197">
        <ele>474.55</ele>
        <time>2012-04-22T07:12:46Z</time>
      </trkpt>
      <trkpt lat="48.13259" lon="6.46257">
        <ele>476.47</ele>
        <time>2012-04-22T07:12:57Z</time>
      </trkpt>
      <trkpt lat="48.13274" lon="6.46284">
        <ele>477.43</ele>
        <time>2012-04-22T07:13:01Z</time>
      </trkpt>
      <trkpt lat="48.13279" lon="6.4629">
        <ele>476.47</ele>
        <time>2012-04-22T07:13:02Z</time>
      </trkpt>
      <trkpt lat="48.13339" lon="6.46332">
        <ele>471.66</ele>
        <time>2012-04-22T07:13:11Z</time>
      </trkpt>
      <trkpt lat="48.13344" lon="6.46338">
        <ele>471.66</ele>
        <time>2012-04-22T07:13:12Z</time>
      </trkpt>
      <trkpt lat="48.13348" lon="6.46345">
        <ele>472.14</ele>
        <time>2012-04-22T07:13:13Z</time>
      </trkpt>
      <trkpt lat="48.1335" lon="6.46352">
        <ele>472.14</ele>
        <time>2012-04-22T07:13:14Z</time>
      </trkpt>
      <trkpt lat="48.13352" lon="6.4636">
        <ele>472.63</ele>
        <time>2012-04-22T07:13:15Z</time>
      </trkpt>
      <trkpt lat="48.13353" lon="6.46367">
        <ele>472.63</ele>
        <time>2012-04-22T07:13:16Z</time>
      </trkpt>
      <trkpt lat="48.13354" lon="6.46374">
        <ele>473.11</ele>
        <time>2012-04-22T07:13:17Z</time>
      </trkpt>
      <trkpt lat="48.13354" lon="6.46382">
        <ele>473.59</ele>
        <time>2012-04-22T07:13:18Z</time>
      </trkpt>
      <trkpt lat="48.13354" lon="6.46391">
        <ele>473.59</ele>
        <time>2012-04-22T07:13:19Z</time>
      </trkpt>
      <trkpt lat="48.13353" lon="6.46399">
        <ele>474.07</ele>
        <time>2012-04-22T07:13:20Z</time>
      </trkpt>
      <trkpt lat="48.13352" lon="6.46407">
        <ele>474.55</ele>
        <time>2012-04-22T07:13:21Z</time>
      </trkpt>
      <trkpt lat="48.13352" lon="6.46438">
        <ele>475.03</ele>
        <time>2012-04-22T07:13:25Z</time>
      </trkpt>
      <trkpt lat="48.13353" lon="6.46445">
        <ele>475.51</ele>
        <time>2012-04-22T07:13:26Z</time>
      </trkpt>
      <trkpt lat="48.13357" lon="6.46469">
        <ele>475.51</ele>
        <time>2012-04-22T07:13:29Z</time>
      </trkpt>
      <trkpt lat="48.13372" lon="6.46519">
        <ele>476.95</ele>
        <time>2012-04-22T07:13:36Z</time>
      </trkpt>
      <trkpt lat="48.13375" lon="6.46526">
        <ele>477.43</ele>
        <time>2012-04-22T07:13:37Z</time>
      </trkpt>
      <trkpt lat="48.13416" lon="6.46583">
        <ele>475.99</ele>
        <time>2012-04-22T07:13:48Z</time>
      </trkpt>
      <trkpt lat="48.13471" lon="6.46639">
        <ele>468.78</ele>
        <time>2012-04-22T07:14:02Z</time>
      </trkpt>
      <trkpt lat="48.13515" lon="6.46661">
        <ele>463.97</ele>
        <time>2012-04-22T07:14:12Z</time>
      </trkpt>
      <trkpt lat="48.1352" lon="6.46662">
        <ele>463.49</ele>
        <time>2012-04-22T07:14:13Z</time>
      </trkpt>
      <trkpt lat="48.13551" lon="6.46669">
        <ele>462.53</ele>
        <time>2012-04-22T07:14:18Z</time>
      </trkpt>
      <trkpt lat="48.13571" lon="6.46669">
        <ele>461.09</ele>
        <time>2012-04-22T07:14:21Z</time>
      </trkpt>
      <trkpt lat="48.13577" lon="6.46667">
        <ele>461.57</ele>
        <time>2012-04-22T07:14:22Z</time>
      </trkpt>
      <trkpt lat="48.13602" lon="6.4666">
        <ele>462.53</ele>
        <time>2012-04-22T07:14:26Z</time>
      </trkpt>
      <trkpt lat="48.13609" lon="6.46661">
        <ele>462.53</ele>
        <time>2012-04-22T07:14:27Z</time>
      </trkpt>
      <trkpt lat="48.13615" lon="6.46662">
        <ele>463.01</ele>
        <time>2012-04-22T07:14:28Z</time>
      </trkpt>
      <trkpt lat="48.13621" lon="6.46665">
        <ele>463.01</ele>
        <time>2012-04-22T07:14:29Z</time>
      </trkpt>
      <trkpt lat="48.13628" lon="6.46669">
        <ele>463.97</ele>
        <time>2012-04-22T07:14:30Z</time>
      </trkpt>
      <trkpt lat="48.13634" lon="6.46674">
        <ele>464.45</ele>
        <time>2012-04-22T07:14:31Z</time>
      </trkpt>
      <trkpt lat="48.1364" lon="6.4668">
        <ele>464.45</ele>
        <time>2012-04-22T07:14:32Z</time>
      </trkpt>
      <trkpt lat="48.13647" lon="6.46686">
        <ele>464.45</ele>
        <time>2012-04-22T07:14:33Z</time>
      </trkpt>
      <trkpt lat="48.1366" lon="6.46694">
        <ele>463.49</ele>
        <time>2012-04-22T07:14:35Z</time>
      </trkpt>
      <trkpt lat="48.13665" lon="6.46698">
        <ele>463.49</ele>
        <time>2012-04-22T07:14:36Z</time>
      </trkpt>
      <trkpt lat="48.1367" lon="6.46704">
        <ele>463.49</ele>
        <time>2012-04-22T07:14:37Z</time>
      </trkpt>
      <trkpt lat="48.13714" lon="6.46761">
        <ele>462.53</ele>
        <time>2012-04-22T07:14:47Z</time>
      </trkpt>
      <trkpt lat="48.13744" lon="6.46805">
        <ele>464.93</ele>
        <time>2012-04-22T07:14:58Z</time>
      </trkpt>
      <trkpt lat="48.13787" lon="6.46842">
        <ele>465.42</ele>
        <time>2012-04-22T07:15:12Z</time>
      </trkpt>
      <trkpt lat="48.13815" lon="6.46854">
        <ele>458.69</ele>
        <time>2012-04-22T07:15:22Z</time>
      </trkpt>
      <trkpt lat="48.13817" lon="6.46852">
        <ele>458.69</ele>
        <time>2012-04-22T07:15:25Z</time>
      </trkpt>
      <trkpt lat="48.13822" lon="6.46846">
        <ele>457.24</ele>
        <time>2012-04-22T07:15:29Z</time>
      </trkpt>
      <trkpt lat="48.13823" lon="6.4681">
        <ele>458.21</ele>
        <time>2012-04-22T07:15:44Z</time>
      </trkpt>
      <trkpt lat="48.13822" lon="6.46763">
        <ele>459.17</ele>
        <time>2012-04-22T07:16:00Z</time>
      </trkpt>
      <trkpt lat="48.13821" lon="6.4673">
        <ele>457.24</ele>
        <time>2012-04-22T07:16:13Z</time>
      </trkpt>
      <trkpt lat="48.13817" lon="6.46691">
        <ele>456.76</ele>
        <time>2012-04-22T07:16:29Z</time>
      </trkpt>
      <trkpt lat="48.13817" lon="6.46689">
        <ele>457.24</ele>
        <time>2012-04-22T07:16:30Z</time>
      </trkpt>
      <trkpt lat="48.13816" lon="6.4668">
        <ele>458.21</ele>
        <time>2012-04-22T07:16:34Z</time>
      </trkpt>
      <trkpt lat="48.13814" lon="6.46657">
        <ele>460.13</ele>
        <time>2012-04-22T07:16:45Z</time>
      </trkpt>
      <trkpt lat="48.13817" lon="6.46624">
        <ele>462.05</ele>
        <time>2012-04-22T07:17:01Z</time>
      </trkpt>
      <trkpt lat="48.13832" lon="6.46601">
        <ele>461.09</ele>
        <time>2012-04-22T07:17:14Z</time>
      </trkpt>
      <trkpt lat="48.13838" lon="6.46593">
        <ele>463.49</ele>
        <time>2012-04-22T07:17:19Z</time>
      </trkpt>
      <trkpt lat="48.13847" lon="6.46574">
        <ele>464.93</ele>
        <time>2012-04-22T07:17:30Z</time>
      </trkpt>
      <trkpt lat="48.13846" lon="6.46562">
        <ele>466.86</ele>
        <time>2012-04-22T07:17:37Z</time>
      </trkpt>
      <trkpt lat="48.13838" lon="6.46538">
        <ele>473.59</ele>
        <time>2012-04-22T07:17:52Z</time>
      </trkpt>
      <trkpt lat="48.13825" lon="6.46521">
        <ele>481.76</ele>
        <time>2012-04-22T07:18:06Z</time>
      </trkpt>
      <trkpt lat="48.13823" lon="6.46517">
        <ele>482.72</ele>
        <time>2012-04-22T07:18:08Z</time>
      </trkpt>
      <trkpt lat="48.13816" lon="6.46513">
        <ele>483.68</ele>
        <time>2012-04-22T07:18:12Z</time>
      </trkpt>
      <trkpt lat="48.1381" lon="6.46507">
        <ele>486.08</ele>
        <time>2012-04-22T07:18:18Z</time>
      </trkpt>
      <trkpt lat="48.13796" lon="6.46488">
        <ele>491.85</ele>
        <time>2012-04-22T07:18:32Z</time>
      </trkpt>
      <trkpt lat="48.13779" lon="6.46475">
        <ele>496.18</ele>
        <time>2012-04-22T07:18:45Z</time>
      </trkpt>
      <trkpt lat="48.13772" lon="6.46472">
        <ele>497.14</ele>
        <time>2012-04-22T07:18:49Z</time>
      </trkpt>
      <trkpt lat="48.13747" lon="6.46455">
        <ele>499.06</ele>
        <time>2012-04-22T07:19:04Z</time>
      </trkpt>
      <trkpt lat="48.13724" lon="6.46438">
        <ele>498.1</ele>
        <time>2012-04-22T07:19:18Z</time>
      </trkpt>
      <trkpt lat="48.13704" lon="6.46422">
        <ele>497.62</ele>
        <time>2012-04-22T07:19:32Z</time>
      </trkpt>
      <trkpt lat="48.13687" lon="6.46413">
        <ele>500.02</ele>
        <time>2012-04-22T07:19:44Z</time>
      </trkpt>
      <trkpt lat="48.13651" lon="6.46385">
        <ele>495.7</ele>
        <time>2012-04-22T07:19:59Z</time>
      </trkpt>
      <trkpt lat="48.1363" lon="6.46344">
        <ele>496.18</ele>
        <time>2012-04-22T07:20:17Z</time>
      </trkpt>
      <trkpt lat="48.13611" lon="6.46322">
        <ele>497.14</ele>
        <time>2012-04-22T07:20:29Z</time>
      </trkpt>
      <trkpt lat="48.13591" lon="6.46282">
        <ele>494.74</ele>
        <time>2012-04-22T07:20:42Z</time>
      </trkpt>
      <trkpt lat="48.1358" lon="6.46263">
        <ele>494.26</ele>
        <time>2012-04-22T07:20:47Z</time>
      </trkpt>
      <trkpt lat="48.13561" lon="6.46217">
        <ele>496.18</ele>
        <time>2012-04-22T07:20:59Z</time>
      </trkpt>
      <trkpt lat="48.13553" lon="6.4619">
        <ele>496.18</ele>
        <time>2012-04-22T07:21:07Z</time>
      </trkpt>
      <trkpt lat="48.13531" lon="6.46142">
        <ele>495.22</ele>
        <time>2012-04-22T07:21:22Z</time>
      </trkpt>
      <trkpt lat="48.13529" lon="6.46126">
        <ele>496.66</ele>
        <time>2012-04-22T07:21:30Z</time>
      </trkpt>
      <trkpt lat="48.13525" lon="6.4609">
        <ele>499.06</ele>
        <time>2012-04-22T07:21:42Z</time>
      </trkpt>
      <trkpt lat="48.13525" lon="6.46087">
        <ele>499.06</ele>
        <time>2012-04-22T07:21:43Z</time>
      </trkpt>
      <trkpt lat="48.13528" lon="6.46053">
        <ele>500.5</ele>
        <time>2012-04-22T07:21:57Z</time>
      </trkpt>
      <trkpt lat="48.13527" lon="6.46047">
        <ele>504.35</ele>
        <time>2012-04-22T07:22:03Z</time>
      </trkpt>
      <trkpt lat="48.13526" lon="6.46043">
        <ele>505.79</ele>
        <time>2012-04-22T07:22:05Z</time>
      </trkpt>
      <trkpt lat="48.13523" lon="6.46034">
        <ele>508.67</ele>
        <time>2012-04-22T07:22:09Z</time>
      </trkpt>
      <trkpt lat="48.13511" lon="6.45998">
        <ele>515.4</ele>
        <time>2012-04-22T07:22:21Z</time>
      </trkpt>
      <trkpt lat="48.13503" lon="6.45975">
        <ele>517.33</ele>
        <time>2012-04-22T07:22:33Z</time>
      </trkpt>
      <trkpt lat="48.13499" lon="6.45967">
        <ele>518.29</ele>
        <time>2012-04-22T07:22:37Z</time>
      </trkpt>
      <trkpt lat="48.13485" lon="6.45916">
        <ele>515.4</ele>
        <time>2012-04-22T07:22:51Z</time>
      </trkpt>
      <trkpt lat="48.13468" lon="6.45871">
        <ele>511.56</ele>
        <time>2012-04-22T07:23:02Z</time>
      </trkpt>
      <trkpt lat="48.13465" lon="6.45864">
        <ele>510.6</ele>
        <time>2012-04-22T07:23:04Z</time>
      </trkpt>
      <trkpt lat="48.13464" lon="6.45842">
        <ele>509.16</ele>
        <time>2012-04-22T07:23:09Z</time>
      </trkpt>
      <trkpt lat="48.13492" lon="6.45786">
        <ele>499.54</ele>
        <time>2012-04-22T07:23:23Z</time>
      </trkpt>
      <trkpt lat="48.13517" lon="6.45755">
        <ele>496.18</ele>
        <time>2012-04-22T07:23:31Z</time>
      </trkpt>
      <trkpt lat="48.13532" lon="6.45737">
        <ele>494.74</ele>
        <time>2012-04-22T07:23:35Z</time>
      </trkpt>
      <trkpt lat="48.13537" lon="6.45732">
        <ele>494.74</ele>
        <time>2012-04-22T07:23:36Z</time>
      </trkpt>
      <trkpt lat="48.13542" lon="6.45727">
        <ele>494.26</ele>
        <time>2012-04-22T07:23:37Z</time>
      </trkpt>
      <trkpt lat="48.13552" lon="6.45716">
        <ele>493.29</ele>
        <time>2012-04-22T07:23:39Z</time>
      </trkpt>
      <trkpt lat="48.13556" lon="6.45712">
        <ele>492.81</ele>
        <time>2012-04-22T07:23:40Z</time>
      </trkpt>
      <trkpt lat="48.13571" lon="6.457">
        <ele>490.89</ele>
        <time>2012-04-22T07:23:44Z</time>
      </trkpt>
      <trkpt lat="48.13582" lon="6.45687">
        <ele>489.45</ele>
        <time>2012-04-22T07:23:48Z</time>
      </trkpt>
      <trkpt lat="48.13589" lon="6.45679">
        <ele>488.49</ele>
        <time>2012-04-22T07:23:50Z</time>
      </trkpt>
      <trkpt lat="48.13603" lon="6.45665">
        <ele>486.08</ele>
        <time>2012-04-22T07:23:53Z</time>
      </trkpt>
      <trkpt lat="48.13625" lon="6.45642">
        <ele>482.72</ele>
        <time>2012-04-22T07:23:57Z</time>
      </trkpt>
      <trkpt lat="48.13654" lon="6.45615">
        <ele>478.87</ele>
        <time>2012-04-22T07:24:01Z</time>
      </trkpt>
      <trkpt lat="48.13668" lon="6.45596">
        <ele>476.95</ele>
        <time>2012-04-22T07:24:03Z</time>
      </trkpt>
      <trkpt lat="48.13696" lon="6.45578">
        <ele>474.07</ele>
        <time>2012-04-22T07:24:07Z</time>
      </trkpt>
      <trkpt lat="48.13712" lon="6.45545">
        <ele>471.66</ele>
        <time>2012-04-22T07:24:11Z</time>
      </trkpt>
      <trkpt lat="48.13735" lon="6.4551">
        <ele>468.3</ele>
        <time>2012-04-22T07:24:16Z</time>
      </trkpt>
      <trkpt lat="48.1374" lon="6.45506">
        <ele>467.82</ele>
        <time>2012-04-22T07:24:17Z</time>
      </trkpt>
      <trkpt lat="48.13746" lon="6.45501">
        <ele>466.86</ele>
        <time>2012-04-22T07:24:18Z</time>
      </trkpt>
      <trkpt lat="48.13752" lon="6.45495">
        <ele>465.9</ele>
        <time>2012-04-22T07:24:19Z</time>
      </trkpt>
      <trkpt lat="48.13759" lon="6.45489">
        <ele>464.93</ele>
        <time>2012-04-22T07:24:20Z</time>
      </trkpt>
      <trkpt lat="48.13779" lon="6.45482">
        <ele>462.05</ele>
        <time>2012-04-22T07:24:23Z</time>
      </trkpt>
      <trkpt lat="48.13786" lon="6.45482">
        <ele>461.09</ele>
        <time>2012-04-22T07:24:24Z</time>
      </trkpt>
      <trkpt lat="48.13793" lon="6.45484">
        <ele>460.13</ele>
        <time>2012-04-22T07:24:25Z</time>
      </trkpt>
      <trkpt lat="48.138" lon="6.45486">
        <ele>459.65</ele>
        <time>2012-04-22T07:24:26Z</time>
      </trkpt>
      <trkpt lat="48.13821" lon="6.45495">
        <ele>456.76</ele>
        <time>2012-04-22T07:24:31Z</time>
      </trkpt>
      <trkpt lat="48.13822" lon="6.45494">
        <ele>456.28</ele>
        <time>2012-04-22T07:24:32Z</time>
      </trkpt>
      <trkpt lat="48.13824" lon="6.45495">
        <ele>455.32</ele>
        <time>2012-04-22T07:24:33Z</time>
      </trkpt>
      <trkpt lat="48.13826" lon="6.45493">
        <ele>455.32</ele>
        <time>2012-04-22T07:24:34Z</time>
      </trkpt>
      <trkpt lat="48.13827" lon="6.45491">
        <ele>454.84</ele>
        <time>2012-04-22T07:24:35Z</time>
      </trkpt>
      <trkpt lat="48.13828" lon="6.45488">
        <ele>454.36</ele>
        <time>2012-04-22T07:24:36Z</time>
      </trkpt>
      <trkpt lat="48.1383" lon="6.45486">
        <ele>454.84</ele>
        <time>2012-04-22T07:24:37Z</time>
      </trkpt>
      <trkpt lat="48.1383" lon="6.45483">
        <ele>454.84</ele>
        <time>2012-04-22T07:24:38Z</time>
      </trkpt>
      <trkpt lat="48.13832" lon="6.4548">
        <ele>454.84</ele>
        <time>2012-04-22T07:24:39Z</time>
      </trkpt>
      <trkpt lat="48.13842" lon="6.45444">
        <ele>455.8</ele>
        <time>2012-04-22T07:24:47Z</time>
      </trkpt>
      <trkpt lat="48.13841" lon="6.45437">
        <ele>456.28</ele>
        <time>2012-04-22T07:24:48Z</time>
      </trkpt>
      <trkpt lat="48.13841" lon="6.45429">
        <ele>456.28</ele>
        <time>2012-04-22T07:24:49Z</time>
      </trkpt>
      <trkpt lat="48.1384" lon="6.45422">
        <ele>456.28</ele>
        <time>2012-04-22T07:24:50Z</time>
      </trkpt>
      <trkpt lat="48.13838" lon="6.45415">
        <ele>456.28</ele>
        <time>2012-04-22T07:24:51Z</time>
      </trkpt>
      <trkpt lat="48.13835" lon="6.45407">
        <ele>456.28</ele>
        <time>2012-04-22T07:24:52Z</time>
      </trkpt>
      <trkpt lat="48.13831" lon="6.45401">
        <ele>455.8</ele>
        <time>2012-04-22T07:24:53Z</time>
      </trkpt>
      <trkpt lat="48.13827" lon="6.45396">
        <ele>455.8</ele>
        <time>2012-04-22T07:24:54Z</time>
      </trkpt>
      <trkpt lat="48.13823" lon="6.45392">
        <ele>455.8</ele>
        <time>2012-04-22T07:24:55Z</time>
      </trkpt>
      <trkpt lat="48.1382" lon="6.45389">
        <ele>455.8</ele>
        <time>2012-04-22T07:24:56Z</time>
      </trkpt>
      <trkpt lat="48.13793" lon="6.45358">
        <ele>454.36</ele>
        <time>2012-04-22T07:25:06Z</time>
      </trkpt>
      <trkpt lat="48.13762" lon="6.45352">
        <ele>454.84</ele>
        <time>2012-04-22T07:25:13Z</time>
      </trkpt>
      <trkpt lat="48.13747" lon="6.45351">
        <ele>455.32</ele>
        <time>2012-04-22T07:25:16Z</time>
      </trkpt>
      <trkpt lat="48.13737" lon="6.45351">
        <ele>455.32</ele>
        <time>2012-04-22T07:25:18Z</time>
      </trkpt>
      <trkpt lat="48.13698" lon="6.45359">
        <ele>457.24</ele>
        <time>2012-04-22T07:25:29Z</time>
      </trkpt>
      <trkpt lat="48.13668" lon="6.45372">
        <ele>463.49</ele>
        <time>2012-04-22T07:25:41Z</time>
      </trkpt>
      <trkpt lat="48.13628" lon="6.45386">
        <ele>473.11</ele>
        <time>2012-04-22T07:25:56Z</time>
      </trkpt>
      <trkpt lat="48.13582" lon="6.45407">
        <ele>471.18</ele>
        <time>2012-04-22T07:26:08Z</time>
      </trkpt>
      <trkpt lat="48.13531" lon="6.45425">
        <ele>469.74</ele>
        <time>2012-04-22T07:26:21Z</time>
      </trkpt>
      <trkpt lat="48.13523" lon="6.45425">
        <ele>470.7</ele>
        <time>2012-04-22T07:26:23Z</time>
      </trkpt>
      <trkpt lat="48.13518" lon="6.45425">
        <ele>471.18</ele>
        <time>2012-04-22T07:26:24Z</time>
      </trkpt>
      <trkpt lat="48.13513" lon="6.45423">
        <ele>472.14</ele>
        <time>2012-04-22T07:26:25Z</time>
      </trkpt>
      <trkpt lat="48.13509" lon="6.45421">
        <ele>472.63</ele>
        <time>2012-04-22T07:26:26Z</time>
      </trkpt>
      <trkpt lat="48.13504" lon="6.45421">
        <ele>473.59</ele>
        <time>2012-04-22T07:26:27Z</time>
      </trkpt>
      <trkpt lat="48.13501" lon="6.45422">
        <ele>474.07</ele>
        <time>2012-04-22T07:26:28Z</time>
      </trkpt>
      <trkpt lat="48.13482" lon="6.45433">
        <ele>482.72</ele>
        <time>2012-04-22T07:26:39Z</time>
      </trkpt>
      <trkpt lat="48.13477" lon="6.45442">
        <ele>485.6</ele>
        <time>2012-04-22T07:26:50Z</time>
      </trkpt>
      <trkpt lat="48.13474" lon="6.4544">
        <ele>476.47</ele>
        <time>2012-04-22T07:27:01Z</time>
      </trkpt>
      <trkpt lat="48.13467" lon="6.45417">
        <ele>471.18</ele>
        <time>2012-04-22T07:27:15Z</time>
      </trkpt>
      <trkpt lat="48.13465" lon="6.4541">
        <ele>471.66</ele>
        <time>2012-04-22T07:27:19Z</time>
      </trkpt>
      <trkpt lat="48.13464" lon="6.45408">
        <ele>472.14</ele>
        <time>2012-04-22T07:27:20Z</time>
      </trkpt>
      <trkpt lat="48.13463" lon="6.45405">
        <ele>472.63</ele>
        <time>2012-04-22T07:27:21Z</time>
      </trkpt>
      <trkpt lat="48.13459" lon="6.45395">
        <ele>474.55</ele>
        <time>2012-04-22T07:27:27Z</time>
      </trkpt>
      <trkpt lat="48.13458" lon="6.45393">
        <ele>475.03</ele>
        <time>2012-04-22T07:27:28Z</time>
      </trkpt>
      <trkpt lat="48.13438" lon="6.45375">
        <ele>479.84</ele>
        <time>2012-04-22T07:27:40Z</time>
      </trkpt>
      <trkpt lat="48.13414" lon="6.45366">
        <ele>477.91</ele>
        <time>2012-04-22T07:27:53Z</time>
      </trkpt>
      <trkpt lat="48.13398" lon="6.45362">
        <ele>478.39</ele>
        <time>2012-04-22T07:28:00Z</time>
      </trkpt>
      <trkpt lat="48.13358" lon="6.45324">
        <ele>479.35</ele>
        <time>2012-04-22T07:28:12Z</time>
      </trkpt>
      <trkpt lat="48.1334" lon="6.45286">
        <ele>479.84</ele>
        <time>2012-04-22T07:28:25Z</time>
      </trkpt>
      <trkpt lat="48.13338" lon="6.45284">
        <ele>478.87</ele>
        <time>2012-04-22T07:28:26Z</time>
      </trkpt>
      <trkpt lat="48.13327" lon="6.45245">
        <ele>472.63</ele>
        <time>2012-04-22T07:28:38Z</time>
      </trkpt>
      <trkpt lat="48.13331" lon="6.45189">
        <ele>476.47</ele>
        <time>2012-04-22T07:28:53Z</time>
      </trkpt>
      <trkpt lat="48.1333" lon="6.45126">
        <ele>477.91</ele>
        <time>2012-04-22T07:29:09Z</time>
      </trkpt>
      <trkpt lat="48.13332" lon="6.45114">
        <ele>477.91</ele>
        <time>2012-04-22T07:29:12Z</time>
      </trkpt>
      <trkpt lat="48.13325" lon="6.45087">
        <ele>482.72</ele>
        <time>2012-04-22T07:29:27Z</time>
      </trkpt>
      <trkpt lat="48.13323" lon="6.45087">
        <ele>483.68</ele>
        <time>2012-04-22T07:29:28Z</time>
      </trkpt>
      <trkpt lat="48.13308" lon="6.45089">
        <ele>491.37</ele>
        <time>2012-04-22T07:29:42Z</time>
      </trkpt>
      <trkpt lat="48.13302" lon="6.45085">
        <ele>493.77</ele>
        <time>2012-04-22T07:29:53Z</time>
      </trkpt>
      <trkpt lat="48.13303" lon="6.45086">
        <ele>493.77</ele>
        <time>2012-04-22T07:30:14Z</time>
      </trkpt>
      <trkpt lat="48.13302" lon="6.45087">
        <ele>492.33</ele>
        <time>2012-04-22T07:30:42Z</time>
      </trkpt>
      <trkpt lat="48.13301" lon="6.45086">
        <ele>491.85</ele>
        <time>2012-04-22T07:31:05Z</time>
      </trkpt>
      <trkpt lat="48.13301" lon="6.45085">
        <ele>490.89</ele>
        <time>2012-04-22T07:31:30Z</time>
      </trkpt>
      <trkpt lat="48.133" lon="6.45083">
        <ele>491.37</ele>
        <time>2012-04-22T07:31:54Z</time>
      </trkpt>
      <trkpt lat="48.13296" lon="6.45062">
        <ele>490.89</ele>
        <time>2012-04-22T07:32:00Z</time>
      </trkpt>
      <trkpt lat="48.13291" lon="6.4505">
        <ele>490.89</ele>
        <time>2012-04-22T07:32:02Z</time>
      </trkpt>
      <trkpt lat="48.13273" lon="6.45021">
        <ele>490.89</ele>
        <time>2012-04-22T07:32:06Z</time>
      </trkpt>
      <trkpt lat="48.13241" lon="6.44985">
        <ele>488.49</ele>
        <time>2012-04-22T07:32:11Z</time>
      </trkpt>
      <trkpt lat="48.13182" lon="6.44973">
        <ele>486.56</ele>
        <time>2012-04-22T07:32:20Z</time>
      </trkpt>
      <trkpt lat="48.13117" lon="6.44986">
        <ele>484.64</ele>
        <time>2012-04-22T07:32:31Z</time>
      </trkpt>
      <trkpt lat="48.13112" lon="6.44989">
        <ele>484.64</ele>
        <time>2012-04-22T07:32:32Z</time>
      </trkpt>
      <trkpt lat="48.13089" lon="6.45007">
        <ele>484.64</ele>
        <time>2012-04-22T07:32:37Z</time>
      </trkpt>
      <trkpt lat="48.13062" lon="6.45055">
        <ele>486.08</ele>
        <time>2012-04-22T07:32:48Z</time>
      </trkpt>
      <trkpt lat="48.13041" lon="6.45085">
        <ele>490.41</ele>
        <time>2012-04-22T07:33:00Z</time>
      </trkpt>
      <trkpt lat="48.13034" lon="6.45088">
        <ele>491.85</ele>
        <time>2012-04-22T07:33:06Z</time>
      </trkpt>
      <trkpt lat="48.13027" lon="6.45082">
        <ele>493.77</ele>
        <time>2012-04-22T07:33:12Z</time>
      </trkpt>
      <trkpt lat="48.13024" lon="6.45074">
        <ele>497.62</ele>
        <time>2012-04-22T07:33:18Z</time>
      </trkpt>
      <trkpt lat="48.13023" lon="6.45071">
        <ele>499.54</ele>
        <time>2012-04-22T07:33:20Z</time>
      </trkpt>
      <trkpt lat="48.13008" lon="6.45046">
        <ele>513</ele>
        <time>2012-04-22T07:33:35Z</time>
      </trkpt>
      <trkpt lat="48.12983" lon="6.45027">
        <ele>522.61</ele>
        <time>2012-04-22T07:33:46Z</time>
      </trkpt>
      <trkpt lat="48.12956" lon="6.4501">
        <ele>530.3</ele>
        <time>2012-04-22T07:33:58Z</time>
      </trkpt>
      <trkpt lat="48.1293" lon="6.44998">
        <ele>538.96</ele>
        <time>2012-04-22T07:34:11Z</time>
      </trkpt>
      <trkpt lat="48.12895" lon="6.44979">
        <ele>539.92</ele>
        <time>2012-04-22T07:34:21Z</time>
      </trkpt>
      <trkpt lat="48.12878" lon="6.44942">
        <ele>531.75</ele>
        <time>2012-04-22T07:34:33Z</time>
      </trkpt>
      <trkpt lat="48.12885" lon="6.44923">
        <ele>532.23</ele>
        <time>2012-04-22T07:34:39Z</time>
      </trkpt>
      <trkpt lat="48.12895" lon="6.44876">
        <ele>525.5</ele>
        <time>2012-04-22T07:34:52Z</time>
      </trkpt>
      <trkpt lat="48.12921" lon="6.44818">
        <ele>510.12</ele>
        <time>2012-04-22T07:35:04Z</time>
      </trkpt>
      <trkpt lat="48.12923" lon="6.44811">
        <ele>507.71</ele>
        <time>2012-04-22T07:35:05Z</time>
      </trkpt>
      <trkpt lat="48.12925" lon="6.44804">
        <ele>505.31</ele>
        <time>2012-04-22T07:35:06Z</time>
      </trkpt>
      <trkpt lat="48.12926" lon="6.44797">
        <ele>503.87</ele>
        <time>2012-04-22T07:35:07Z</time>
      </trkpt>
      <trkpt lat="48.12943" lon="6.4476">
        <ele>494.26</ele>
        <time>2012-04-22T07:35:11Z</time>
      </trkpt>
      <trkpt lat="48.12951" lon="6.44727">
        <ele>486.56</ele>
        <time>2012-04-22T07:35:15Z</time>
      </trkpt>
      <trkpt lat="48.12952" lon="6.44717">
        <ele>485.12</ele>
        <time>2012-04-22T07:35:16Z</time>
      </trkpt>
      <trkpt lat="48.12952" lon="6.44708">
        <ele>484.16</ele>
        <time>2012-04-22T07:35:17Z</time>
      </trkpt>
      <trkpt lat="48.12951" lon="6.44697">
        <ele>483.2</ele>
        <time>2012-04-22T07:35:18Z</time>
      </trkpt>
      <trkpt lat="48.12949" lon="6.44686">
        <ele>482.24</ele>
        <time>2012-04-22T07:35:19Z</time>
      </trkpt>
      <trkpt lat="48.12935" lon="6.44607">
        <ele>477.91</ele>
        <time>2012-04-22T07:35:25Z</time>
      </trkpt>
      <trkpt lat="48.12935" lon="6.44594">
        <ele>477.43</ele>
        <time>2012-04-22T07:35:26Z</time>
      </trkpt>
      <trkpt lat="48.12937" lon="6.44581">
        <ele>476.47</ele>
        <time>2012-04-22T07:35:27Z</time>
      </trkpt>
      <trkpt lat="48.12959" lon="6.44495">
        <ele>468.3</ele>
        <time>2012-04-22T07:35:34Z</time>
      </trkpt>
      <trkpt lat="48.12961" lon="6.44484">
        <ele>467.34</ele>
        <time>2012-04-22T07:35:35Z</time>
      </trkpt>
      <trkpt lat="48.12963" lon="6.44473">
        <ele>465.42</ele>
        <time>2012-04-22T07:35:36Z</time>
      </trkpt>
      <trkpt lat="48.12964" lon="6.44462">
        <ele>463.97</ele>
        <time>2012-04-22T07:35:37Z</time>
      </trkpt>
      <trkpt lat="48.12965" lon="6.44454">
        <ele>463.01</ele>
        <time>2012-04-22T07:35:38Z</time>
      </trkpt>
      <trkpt lat="48.12974" lon="6.44406">
        <ele>453.4</ele>
        <time>2012-04-22T07:35:48Z</time>
      </trkpt>
      <trkpt lat="48.12957" lon="6.44355">
        <ele>449.55</ele>
        <time>2012-04-22T07:36:00Z</time>
      </trkpt>
      <trkpt lat="48.12973" lon="6.44308">
        <ele>434.65</ele>
        <time>2012-04-22T07:36:10Z</time>
      </trkpt>
      <trkpt lat="48.1303" lon="6.44274">
        <ele>422.16</ele>
        <time>2012-04-22T07:36:27Z</time>
      </trkpt>
      <trkpt lat="48.13062" lon="6.44262">
        <ele>423.12</ele>
        <time>2012-04-22T07:36:38Z</time>
      </trkpt>
      <trkpt lat="48.13133" lon="6.44264">
        <ele>416.87</ele>
        <time>2012-04-22T07:36:55Z</time>
      </trkpt>
      <trkpt lat="48.13163" lon="6.44245">
        <ele>418.31</ele>
        <time>2012-04-22T07:37:09Z</time>
      </trkpt>
      <trkpt lat="48.13163" lon="6.44242">
        <ele>418.31</ele>
        <time>2012-04-22T07:37:20Z</time>
      </trkpt>
      <trkpt lat="48.13163" lon="6.44245">
        <ele>418.79</ele>
        <time>2012-04-22T07:37:33Z</time>
      </trkpt>
      <trkpt lat="48.13163" lon="6.44246">
        <ele>419.27</ele>
        <time>2012-04-22T07:37:50Z</time>
      </trkpt>
      <trkpt lat="48.13163" lon="6.44244">
        <ele>419.27</ele>
        <time>2012-04-22T07:38:06Z</time>
      </trkpt>
      <trkpt lat="48.13162" lon="6.44243">
        <ele>420.23</ele>
        <time>2012-04-22T07:38:23Z</time>
      </trkpt>
      <trkpt lat="48.13161" lon="6.44244">
        <ele>419.75</ele>
        <time>2012-04-22T07:38:39Z</time>
      </trkpt>
      <trkpt lat="48.1316" lon="6.44245">
        <ele>418.31</ele>
        <time>2012-04-22T07:38:57Z</time>
      </trkpt>
      <trkpt lat="48.1316" lon="6.44245">
        <ele>418.31</ele>
        <time>2012-04-22T07:39:12Z</time>
      </trkpt>
      <trkpt lat="48.1316" lon="6.44246">
        <ele>418.31</ele>
        <time>2012-04-22T07:39:29Z</time>
      </trkpt>
      <trkpt lat="48.1316" lon="6.44244">
        <ele>418.31</ele>
        <time>2012-04-22T07:39:39Z</time>
      </trkpt>
      <trkpt lat="48.13161" lon="6.44242">
        <ele>417.83</ele>
        <time>2012-04-22T07:39:52Z</time>
      </trkpt>
      <trkpt lat="48.13161" lon="6.44242">
        <ele>417.83</ele>
        <time>2012-04-22T07:40:13Z</time>
      </trkpt>
      <trkpt lat="48.13161" lon="6.44242">
        <ele>417.83</ele>
        <time>2012-04-22T07:40:33Z</time>
      </trkpt>
      <trkpt lat="48.13161" lon="6.44242">
        <ele>417.35</ele>
        <time>2012-04-22T07:40:49Z</time>
      </trkpt>
      <trkpt lat="48.13161" lon="6.44241">
        <ele>416.87</ele>
        <time>2012-04-22T07:41:06Z</time>
      </trkpt>
      <trkpt lat="48.13161" lon="6.44241">
        <ele>416.39</ele>
        <time>2012-04-22T07:41:18Z</time>
      </trkpt>
      <trkpt lat="48.13163" lon="6.4424">
        <ele>416.87</ele>
        <time>2012-04-22T07:41:28Z</time>
      </trkpt>
      <trkpt lat="48.13164" lon="6.4424">
        <ele>416.39</ele>
        <time>2012-04-22T07:41:42Z</time>
      </trkpt>
      <trkpt lat="48.13164" lon="6.4424">
        <ele>416.87</ele>
        <time>2012-04-22T07:42:02Z</time>
      </trkpt>
      <trkpt lat="48.13162" lon="6.44239">
        <ele>415.91</ele>
        <time>2012-04-22T07:42:14Z</time>
      </trkpt>
      <trkpt lat="48.13164" lon="6.44239">
        <ele>416.39</ele>
        <time>2012-04-22T07:42:21Z</time>
      </trkpt>
      <trkpt lat="48.13165" lon="6.44239">
        <ele>416.39</ele>
        <time>2012-04-22T07:42:22Z</time>
      </trkpt>
      <trkpt lat="48.13167" lon="6.44238">
        <ele>416.87</ele>
        <time>2012-04-22T07:42:23Z</time>
      </trkpt>
      <trkpt lat="48.13172" lon="6.44234">
        <ele>417.83</ele>
        <time>2012-04-22T07:42:29Z</time>
      </trkpt>
      <trkpt lat="48.13174" lon="6.44234">
        <ele>417.83</ele>
        <time>2012-04-22T07:42:30Z</time>
      </trkpt>
      <trkpt lat="48.13175" lon="6.44234">
        <ele>417.83</ele>
        <time>2012-04-22T07:42:31Z</time>
      </trkpt>
      <trkpt lat="48.13177" lon="6.44233">
        <ele>418.31</ele>
        <time>2012-04-22T07:42:32Z</time>
      </trkpt>
      <trkpt lat="48.13179" lon="6.44232">
        <ele>418.31</ele>
        <time>2012-04-22T07:42:33Z</time>
      </trkpt>
      <trkpt lat="48.13181" lon="6.44232">
        <ele>418.31</ele>
        <time>2012-04-22T07:42:34Z</time>
      </trkpt>
      <trkpt lat="48.13184" lon="6.44231">
        <ele>418.79</ele>
        <time>2012-04-22T07:42:35Z</time>
      </trkpt>
      <trkpt lat="48.13186" lon="6.44231">
        <ele>419.27</ele>
        <time>2012-04-22T07:42:36Z</time>
      </trkpt>
      <trkpt lat="48.13235" lon="6.4424">
        <ele>418.79</ele>
        <time>2012-04-22T07:42:48Z</time>
      </trkpt>
      <trkpt lat="48.13241" lon="6.44241">
        <ele>418.79</ele>
        <time>2012-04-22T07:42:49Z</time>
      </trkpt>
      <trkpt lat="48.13265" lon="6.44244">
        <ele>417.83</ele>
        <time>2012-04-22T07:42:53Z</time>
      </trkpt>
      <trkpt lat="48.13271" lon="6.44243">
        <ele>417.83</ele>
        <time>2012-04-22T07:42:54Z</time>
      </trkpt>
      <trkpt lat="48.13365" lon="6.44228">
        <ele>412.54</ele>
        <time>2012-04-22T07:43:07Z</time>
      </trkpt>
      <trkpt lat="48.13374" lon="6.4423">
        <ele>412.06</ele>
        <time>2012-04-22T07:43:08Z</time>
      </trkpt>
      <trkpt lat="48.13384" lon="6.44233">
        <ele>411.58</ele>
        <time>2012-04-22T07:43:09Z</time>
      </trkpt>
      <trkpt lat="48.13498" lon="6.44314">
        <ele>401.01</ele>
        <time>2012-04-22T07:43:20Z</time>
      </trkpt>
      <trkpt lat="48.13554" lon="6.44369">
        <ele>395.24</ele>
        <time>2012-04-22T07:43:25Z</time>
      </trkpt>
      <trkpt lat="48.13567" lon="6.44375">
        <ele>394.28</ele>
        <time>2012-04-22T07:43:26Z</time>
      </trkpt>
      <trkpt lat="48.13579" lon="6.44378">
        <ele>392.84</ele>
        <time>2012-04-22T07:43:27Z</time>
      </trkpt>
      <trkpt lat="48.13591" lon="6.44379">
        <ele>391.87</ele>
        <time>2012-04-22T07:43:28Z</time>
      </trkpt>
      <trkpt lat="48.13603" lon="6.44379">
        <ele>390.43</ele>
        <time>2012-04-22T07:43:29Z</time>
      </trkpt>
      <trkpt lat="48.13634" lon="6.44386">
        <ele>388.03</ele>
        <time>2012-04-22T07:43:32Z</time>
      </trkpt>
      <trkpt lat="48.13677" lon="6.44416">
        <ele>385.63</ele>
        <time>2012-04-22T07:43:38Z</time>
      </trkpt>
      <trkpt lat="48.13681" lon="6.44422">
        <ele>385.63</ele>
        <time>2012-04-22T07:43:39Z</time>
      </trkpt>
      <trkpt lat="48.13735" lon="6.44481">
        <ele>388.03</ele>
        <time>2012-04-22T07:43:52Z</time>
      </trkpt>
      <trkpt lat="48.13739" lon="6.44482">
        <ele>388.03</ele>
        <time>2012-04-22T07:43:53Z</time>
      </trkpt>
      <trkpt lat="48.13744" lon="6.44483">
        <ele>388.03</ele>
        <time>2012-04-22T07:43:54Z</time>
      </trkpt>
      <trkpt lat="48.13753" lon="6.44483">
        <ele>388.51</ele>
        <time>2012-04-22T07:43:56Z</time>
      </trkpt>
      <trkpt lat="48.13757" lon="6.44482">
        <ele>388.51</ele>
        <time>2012-04-22T07:43:57Z</time>
      </trkpt>
      <trkpt lat="48.13762" lon="6.44482">
        <ele>388.03</ele>
        <time>2012-04-22T07:43:58Z</time>
      </trkpt>
      <trkpt lat="48.13777" lon="6.44483">
        <ele>387.55</ele>
        <time>2012-04-22T07:44:01Z</time>
      </trkpt>
      <trkpt lat="48.13792" lon="6.44485">
        <ele>387.55</ele>
        <time>2012-04-22T07:44:04Z</time>
      </trkpt>
      <trkpt lat="48.13797" lon="6.44487">
        <ele>387.55</ele>
        <time>2012-04-22T07:44:05Z</time>
      </trkpt>
      <trkpt lat="48.1381" lon="6.44496">
        <ele>387.55</ele>
        <time>2012-04-22T07:44:08Z</time>
      </trkpt>
      <trkpt lat="48.13815" lon="6.44497">
        <ele>387.55</ele>
        <time>2012-04-22T07:44:09Z</time>
      </trkpt>
      <trkpt lat="48.1382" lon="6.44497">
        <ele>387.55</ele>
        <time>2012-04-22T07:44:10Z</time>
      </trkpt>
      <trkpt lat="48.13825" lon="6.44496">
        <ele>387.55</ele>
        <time>2012-04-22T07:44:11Z</time>
      </trkpt>
      <trkpt lat="48.13831" lon="6.44494">
        <ele>387.55</ele>
        <time>2012-04-22T07:44:12Z</time>
      </trkpt>
      <trkpt lat="48.13836" lon="6.44491">
        <ele>387.07</ele>
        <time>2012-04-22T07:44:13Z</time>
      </trkpt>
      <trkpt lat="48.13841" lon="6.44487">
        <ele>387.07</ele>
        <time>2012-04-22T07:44:14Z</time>
      </trkpt>
      <trkpt lat="48.13846" lon="6.44482">
        <ele>387.07</ele>
        <time>2012-04-22T07:44:15Z</time>
      </trkpt>
      <trkpt lat="48.1385" lon="6.44479">
        <ele>387.07</ele>
        <time>2012-04-22T07:44:16Z</time>
      </trkpt>
      <trkpt lat="48.13855" lon="6.44478">
        <ele>387.55</ele>
        <time>2012-04-22T07:44:17Z</time>
      </trkpt>
      <trkpt lat="48.13859" lon="6.44479">
        <ele>387.55</ele>
        <time>2012-04-22T07:44:18Z</time>
      </trkpt>
      <trkpt lat="48.13864" lon="6.44482">
        <ele>388.03</ele>
        <time>2012-04-22T07:44:19Z</time>
      </trkpt>
      <trkpt lat="48.13868" lon="6.44486">
        <ele>388.03</ele>
        <time>2012-04-22T07:44:20Z</time>
      </trkpt>
      <trkpt lat="48.13888" lon="6.44503">
        <ele>389.47</ele>
        <time>2012-04-22T07:44:25Z</time>
      </trkpt>
      <trkpt lat="48.13936" lon="6.44551">
        <ele>391.39</ele>
        <time>2012-04-22T07:44:38Z</time>
      </trkpt>
      <trkpt lat="48.13939" lon="6.44556">
        <ele>391.39</ele>
        <time>2012-04-22T07:44:39Z</time>
      </trkpt>
      <trkpt lat="48.13978" lon="6.44619">
        <ele>395.72</ele>
        <time>2012-04-22T07:44:55Z</time>
      </trkpt>
      <trkpt lat="48.14025" lon="6.4471">
        <ele>397.16</ele>
        <time>2012-04-22T07:45:15Z</time>
      </trkpt>
      <trkpt lat="48.14075" lon="6.44802">
        <ele>397.16</ele>
        <time>2012-04-22T07:45:35Z</time>
      </trkpt>
      <trkpt lat="48.14094" lon="6.44823">
        <ele>397.16</ele>
        <time>2012-04-22T07:45:41Z</time>
      </trkpt>
      <trkpt lat="48.14154" lon="6.44886">
        <ele>401.49</ele>
        <time>2012-04-22T07:45:59Z</time>
      </trkpt>
      <trkpt lat="48.14181" lon="6.449">
        <ele>401.49</ele>
        <time>2012-04-22T07:46:05Z</time>
      </trkpt>
      <trkpt lat="48.14261" lon="6.44904">
        <ele>399.57</ele>
        <time>2012-04-22T07:46:19Z</time>
      </trkpt>
      <trkpt lat="48.14344" lon="6.44919">
        <ele>398.6</ele>
        <time>2012-04-22T07:46:33Z</time>
      </trkpt>
      <trkpt lat="48.14371" lon="6.44932">
        <ele>399.57</ele>
        <time>2012-04-22T07:46:38Z</time>
      </trkpt>
      <trkpt lat="48.14375" lon="6.44933">
        <ele>399.57</ele>
        <time>2012-04-22T07:46:39Z</time>
      </trkpt>
      <trkpt lat="48.14378" lon="6.44932">
        <ele>400.05</ele>
        <time>2012-04-22T07:46:40Z</time>
      </trkpt>
      <trkpt lat="48.14379" lon="6.44922">
        <ele>400.53</ele>
        <time>2012-04-22T07:46:43Z</time>
      </trkpt>
      <trkpt lat="48.14381" lon="6.44868">
        <ele>402.93</ele>
        <time>2012-04-22T07:46:56Z</time>
      </trkpt>
      <trkpt lat="48.14367" lon="6.44834">
        <ele>405.81</ele>
        <time>2012-04-22T07:47:07Z</time>
      </trkpt>
      <trkpt lat="48.14349" lon="6.44817">
        <ele>410.62</ele>
        <time>2012-04-22T07:47:20Z</time>
      </trkpt>
      <trkpt lat="48.14341" lon="6.44805">
        <ele>418.31</ele>
        <time>2012-04-22T07:47:32Z</time>
      </trkpt>
      <trkpt lat="48.14339" lon="6.44794">
        <ele>424.56</ele>
        <time>2012-04-22T07:47:39Z</time>
      </trkpt>
      <trkpt lat="48.14332" lon="6.44764">
        <ele>433.21</ele>
        <time>2012-04-22T07:47:54Z</time>
      </trkpt>
      <trkpt lat="48.14335" lon="6.44731">
        <ele>437.06</ele>
        <time>2012-04-22T07:48:07Z</time>
      </trkpt>
      <trkpt lat="48.14342" lon="6.44709">
        <ele>439.94</ele>
        <time>2012-04-22T07:48:17Z</time>
      </trkpt>
      <trkpt lat="48.14343" lon="6.44689">
        <ele>440.9</ele>
        <time>2012-04-22T07:48:23Z</time>
      </trkpt>
      <trkpt lat="48.14349" lon="6.44642">
        <ele>444.75</ele>
        <time>2012-04-22T07:48:35Z</time>
      </trkpt>
      <trkpt lat="48.14369" lon="6.44603">
        <ele>445.23</ele>
        <time>2012-04-22T07:48:46Z</time>
      </trkpt>
      <trkpt lat="48.14377" lon="6.4458">
        <ele>443.79</ele>
        <time>2012-04-22T07:48:50Z</time>
      </trkpt>
      <trkpt lat="48.14382" lon="6.4455">
        <ele>443.31</ele>
        <time>2012-04-22T07:48:54Z</time>
      </trkpt>
      <trkpt lat="48.14386" lon="6.44504">
        <ele>441.38</ele>
        <time>2012-04-22T07:49:03Z</time>
      </trkpt>
      <trkpt lat="48.14382" lon="6.44457">
        <ele>438.02</ele>
        <time>2012-04-22T07:49:12Z</time>
      </trkpt>
      <trkpt lat="48.14381" lon="6.44454">
        <ele>438.02</ele>
        <time>2012-04-22T07:49:13Z</time>
      </trkpt>
      <trkpt lat="48.14358" lon="6.44416">
        <ele>435.13</ele>
        <time>2012-04-22T07:49:26Z</time>
      </trkpt>
      <trkpt lat="48.1433" lon="6.44399">
        <ele>434.17</ele>
        <time>2012-04-22T07:49:37Z</time>
      </trkpt>
      <trkpt lat="48.143" lon="6.44386">
        <ele>433.21</ele>
        <time>2012-04-22T07:49:52Z</time>
      </trkpt>
      <trkpt lat="48.14295" lon="6.44383">
        <ele>432.73</ele>
        <time>2012-04-22T07:49:55Z</time>
      </trkpt>
      <trkpt lat="48.14278" lon="6.44371">
        <ele>432.25</ele>
        <time>2012-04-22T07:50:09Z</time>
      </trkpt>
      <trkpt lat="48.14276" lon="6.4437">
        <ele>432.25</ele>
        <time>2012-04-22T07:50:10Z</time>
      </trkpt>
      <trkpt lat="48.14258" lon="6.44351">
        <ele>432.25</ele>
        <time>2012-04-22T07:50:24Z</time>
      </trkpt>
      <trkpt lat="48.14256" lon="6.44348">
        <ele>432.25</ele>
        <time>2012-04-22T07:50:26Z</time>
      </trkpt>
      <trkpt lat="48.14231" lon="6.44326">
        <ele>431.29</ele>
        <time>2012-04-22T07:50:41Z</time>
      </trkpt>
      <trkpt lat="48.14214" lon="6.44308">
        <ele>430.81</ele>
        <time>2012-04-22T07:50:57Z</time>
      </trkpt>
      <trkpt lat="48.1421" lon="6.44307">
        <ele>431.29</ele>
        <time>2012-04-22T07:51:00Z</time>
      </trkpt>
      <trkpt lat="48.14199" lon="6.44303">
        <ele>431.29</ele>
        <time>2012-04-22T07:51:06Z</time>
      </trkpt>
      <trkpt lat="48.14196" lon="6.44302">
        <ele>431.29</ele>
        <time>2012-04-22T07:51:07Z</time>
      </trkpt>
      <trkpt lat="48.14194" lon="6.44301">
        <ele>431.29</ele>
        <time>2012-04-22T07:51:08Z</time>
      </trkpt>
      <trkpt lat="48.14193" lon="6.443">
        <ele>431.29</ele>
        <time>2012-04-22T07:51:09Z</time>
      </trkpt>
      <trkpt lat="48.14191" lon="6.44299">
        <ele>431.29</ele>
        <time>2012-04-22T07:51:10Z</time>
      </trkpt>
      <trkpt lat="48.14181" lon="6.4429">
        <ele>434.17</ele>
        <time>2012-04-22T07:51:22Z</time>
      </trkpt>
      <trkpt lat="48.14179" lon="6.44289">
        <ele>434.65</ele>
        <time>2012-04-22T07:51:23Z</time>
      </trkpt>
      <trkpt lat="48.1417" lon="6.44277">
        <ele>440.42</ele>
        <time>2012-04-22T07:51:36Z</time>
      </trkpt>
      <trkpt lat="48.14161" lon="6.44258">
        <ele>449.55</ele>
        <time>2012-04-22T07:51:50Z</time>
      </trkpt>
      <trkpt lat="48.14153" lon="6.44241">
        <ele>458.21</ele>
        <time>2012-04-22T07:52:04Z</time>
      </trkpt>
      <trkpt lat="48.14147" lon="6.44233">
        <ele>459.65</ele>
        <time>2012-04-22T07:52:18Z</time>
      </trkpt>
      <trkpt lat="48.14142" lon="6.44222">
        <ele>461.57</ele>
        <time>2012-04-22T07:52:31Z</time>
      </trkpt>
      <trkpt lat="48.1414" lon="6.44211">
        <ele>465.9</ele>
        <time>2012-04-22T07:52:46Z</time>
      </trkpt>
      <trkpt lat="48.14141" lon="6.44199">
        <ele>470.22</ele>
        <time>2012-04-22T07:53:02Z</time>
      </trkpt>
      <trkpt lat="48.14137" lon="6.44188">
        <ele>471.66</ele>
        <time>2012-04-22T07:53:15Z</time>
      </trkpt>
      <trkpt lat="48.14137" lon="6.44186">
        <ele>476.47</ele>
        <time>2012-04-22T07:53:35Z</time>
      </trkpt>
      <trkpt lat="48.14135" lon="6.44183">
        <ele>475.51</ele>
        <time>2012-04-22T07:53:55Z</time>
      </trkpt>
      <trkpt lat="48.14136" lon="6.44182">
        <ele>475.03</ele>
        <time>2012-04-22T07:54:21Z</time>
      </trkpt>
      <trkpt lat="48.14139" lon="6.44173">
        <ele>474.07</ele>
        <time>2012-04-22T07:54:45Z</time>
      </trkpt>
      <trkpt lat="48.14139" lon="6.44162">
        <ele>472.63</ele>
        <time>2012-04-22T07:55:04Z</time>
      </trkpt>
      <trkpt lat="48.14122" lon="6.44149">
        <ele>477.91</ele>
        <time>2012-04-22T07:55:19Z</time>
      </trkpt>
      <trkpt lat="48.14097" lon="6.44131">
        <ele>481.28</ele>
        <time>2012-04-22T07:55:37Z</time>
      </trkpt>
      <trkpt lat="48.14093" lon="6.44129">
        <ele>483.2</ele>
        <time>2012-04-22T07:55:58Z</time>
      </trkpt>
      <trkpt lat="48.14091" lon="6.44132">
        <ele>483.2</ele>
        <time>2012-04-22T07:56:28Z</time>
      </trkpt>
      <trkpt lat="48.1409" lon="6.44135">
        <ele>482.24</ele>
        <time>2012-04-22T07:56:52Z</time>
      </trkpt>
      <trkpt lat="48.14089" lon="6.44134">
        <ele>482.24</ele>
        <time>2012-04-22T07:57:16Z</time>
      </trkpt>
      <trkpt lat="48.14088" lon="6.44133">
        <ele>482.24</ele>
        <time>2012-04-22T07:57:43Z</time>
      </trkpt>
      <trkpt lat="48.14088" lon="6.44131">
        <ele>482.24</ele>
        <time>2012-04-22T07:57:51Z</time>
      </trkpt>
      <trkpt lat="48.14077" lon="6.44082">
        <ele>483.68</ele>
        <time>2012-04-22T07:58:05Z</time>
      </trkpt>
      <trkpt lat="48.14076" lon="6.44028">
        <ele>487.05</ele>
        <time>2012-04-22T07:58:18Z</time>
      </trkpt>
      <trkpt lat="48.14081" lon="6.44005">
        <ele>488.49</ele>
        <time>2012-04-22T07:58:22Z</time>
      </trkpt>
      <trkpt lat="48.14074" lon="6.43927">
        <ele>488.97</ele>
        <time>2012-04-22T07:58:33Z</time>
      </trkpt>
      <trkpt lat="48.14073" lon="6.43906">
        <ele>488.97</ele>
        <time>2012-04-22T07:58:35Z</time>
      </trkpt>
      <trkpt lat="48.14074" lon="6.43871">
        <ele>488.49</ele>
        <time>2012-04-22T07:58:39Z</time>
      </trkpt>
      <trkpt lat="48.14076" lon="6.43865">
        <ele>488.49</ele>
        <time>2012-04-22T07:58:40Z</time>
      </trkpt>
      <trkpt lat="48.14077" lon="6.43857">
        <ele>488.49</ele>
        <time>2012-04-22T07:58:41Z</time>
      </trkpt>
      <trkpt lat="48.1409" lon="6.43825">
        <ele>488.01</ele>
        <time>2012-04-22T07:58:45Z</time>
      </trkpt>
      <trkpt lat="48.14105" lon="6.4379">
        <ele>488.49</ele>
        <time>2012-04-22T07:58:49Z</time>
      </trkpt>
      <trkpt lat="48.14108" lon="6.43781">
        <ele>488.01</ele>
        <time>2012-04-22T07:58:50Z</time>
      </trkpt>
      <trkpt lat="48.14111" lon="6.43771">
        <ele>488.01</ele>
        <time>2012-04-22T07:58:51Z</time>
      </trkpt>
      <trkpt lat="48.14137" lon="6.43714">
        <ele>487.05</ele>
        <time>2012-04-22T07:59:02Z</time>
      </trkpt>
      <trkpt lat="48.14155" lon="6.43699">
        <ele>486.08</ele>
        <time>2012-04-22T07:59:06Z</time>
      </trkpt>
      <trkpt lat="48.14169" lon="6.43693">
        <ele>485.6</ele>
        <time>2012-04-22T07:59:08Z</time>
      </trkpt>
      <trkpt lat="48.14176" lon="6.43691">
        <ele>485.12</ele>
        <time>2012-04-22T07:59:09Z</time>
      </trkpt>
      <trkpt lat="48.14184" lon="6.43692">
        <ele>485.12</ele>
        <time>2012-04-22T07:59:10Z</time>
      </trkpt>
      <trkpt lat="48.14215" lon="6.43698">
        <ele>485.12</ele>
        <time>2012-04-22T07:59:14Z</time>
      </trkpt>
      <trkpt lat="48.14273" lon="6.43697">
        <ele>483.68</ele>
        <time>2012-04-22T07:59:20Z</time>
      </trkpt>
      <trkpt lat="48.14313" lon="6.437">
        <ele>479.84</ele>
        <time>2012-04-22T07:59:26Z</time>
      </trkpt>
      <trkpt lat="48.14317" lon="6.43702">
        <ele>479.84</ele>
        <time>2012-04-22T07:59:27Z</time>
      </trkpt>
      <trkpt lat="48.14323" lon="6.43708">
        <ele>478.39</ele>
        <time>2012-04-22T07:59:28Z</time>
      </trkpt>
      <trkpt lat="48.14363" lon="6.43745">
        <ele>469.74</ele>
        <time>2012-04-22T07:59:38Z</time>
      </trkpt>
      <trkpt lat="48.14365" lon="6.43748">
        <ele>468.3</ele>
        <time>2012-04-22T07:59:39Z</time>
      </trkpt>
      <trkpt lat="48.14367" lon="6.43751">
        <ele>466.86</ele>
        <time>2012-04-22T07:59:40Z</time>
      </trkpt>
      <trkpt lat="48.1437" lon="6.43754">
        <ele>465.9</ele>
        <time>2012-04-22T07:59:41Z</time>
      </trkpt>
      <trkpt lat="48.14371" lon="6.4376">
        <ele>464.45</ele>
        <time>2012-04-22T07:59:42Z</time>
      </trkpt>
      <trkpt lat="48.14373" lon="6.43764">
        <ele>464.45</ele>
        <time>2012-04-22T07:59:43Z</time>
      </trkpt>
      <trkpt lat="48.14376" lon="6.43765">
        <ele>463.97</ele>
        <time>2012-04-22T07:59:44Z</time>
      </trkpt>
      <trkpt lat="48.14378" lon="6.43765">
        <ele>463.97</ele>
        <time>2012-04-22T07:59:45Z</time>
      </trkpt>
      <trkpt lat="48.14383" lon="6.43765">
        <ele>463.97</ele>
        <time>2012-04-22T07:59:46Z</time>
      </trkpt>
      <trkpt lat="48.14388" lon="6.43766">
        <ele>463.49</ele>
        <time>2012-04-22T07:59:47Z</time>
      </trkpt>
      <trkpt lat="48.14443" lon="6.43801">
        <ele>451</ele>
        <time>2012-04-22T07:59:55Z</time>
      </trkpt>
      <trkpt lat="48.14458" lon="6.43813">
        <ele>448.11</ele>
        <time>2012-04-22T07:59:58Z</time>
      </trkpt>
      <trkpt lat="48.14473" lon="6.4381">
        <ele>445.23</ele>
        <time>2012-04-22T08:00:00Z</time>
      </trkpt>
      <trkpt lat="48.14481" lon="6.43807">
        <ele>443.79</ele>
        <time>2012-04-22T08:00:01Z</time>
      </trkpt>
      <trkpt lat="48.14488" lon="6.43804">
        <ele>442.82</ele>
        <time>2012-04-22T08:00:02Z</time>
      </trkpt>
      <trkpt lat="48.14507" lon="6.43793">
        <ele>439.46</ele>
        <time>2012-04-22T08:00:05Z</time>
      </trkpt>
      <trkpt lat="48.14512" lon="6.43788">
        <ele>438.5</ele>
        <time>2012-04-22T08:00:06Z</time>
      </trkpt>
      <trkpt lat="48.14521" lon="6.43776">
        <ele>436.58</ele>
        <time>2012-04-22T08:00:08Z</time>
      </trkpt>
      <trkpt lat="48.14533" lon="6.43754">
        <ele>434.65</ele>
        <time>2012-04-22T08:00:11Z</time>
      </trkpt>
      <trkpt lat="48.14544" lon="6.43734">
        <ele>432.73</ele>
        <time>2012-04-22T08:00:14Z</time>
      </trkpt>
      <trkpt lat="48.14547" lon="6.43732">
        <ele>430.81</ele>
        <time>2012-04-22T08:00:15Z</time>
      </trkpt>
      <trkpt lat="48.14551" lon="6.43731">
        <ele>429.85</ele>
        <time>2012-04-22T08:00:16Z</time>
      </trkpt>
      <trkpt lat="48.14562" lon="6.4373">
        <ele>427.44</ele>
        <time>2012-04-22T08:00:18Z</time>
      </trkpt>
      <trkpt lat="48.14567" lon="6.43728">
        <ele>426.48</ele>
        <time>2012-04-22T08:00:19Z</time>
      </trkpt>
      <trkpt lat="48.14572" lon="6.43726">
        <ele>425.04</ele>
        <time>2012-04-22T08:00:20Z</time>
      </trkpt>
      <trkpt lat="48.14576" lon="6.4372">
        <ele>423.12</ele>
        <time>2012-04-22T08:00:21Z</time>
      </trkpt>
      <trkpt lat="48.1458" lon="6.43712">
        <ele>422.16</ele>
        <time>2012-04-22T08:00:22Z</time>
      </trkpt>
      <trkpt lat="48.14585" lon="6.43701">
        <ele>420.71</ele>
        <time>2012-04-22T08:00:23Z</time>
      </trkpt>
      <trkpt lat="48.1459" lon="6.43688">
        <ele>418.79</ele>
        <time>2012-04-22T08:00:24Z</time>
      </trkpt>
      <trkpt lat="48.14595" lon="6.43674">
        <ele>417.35</ele>
        <time>2012-04-22T08:00:25Z</time>
      </trkpt>
      <trkpt lat="48.146" lon="6.43661">
        <ele>415.91</ele>
        <time>2012-04-22T08:00:26Z</time>
      </trkpt>
      <trkpt lat="48.14604" lon="6.43649">
        <ele>413.98</ele>
        <time>2012-04-22T08:00:27Z</time>
      </trkpt>
      <trkpt lat="48.14607" lon="6.43636">
        <ele>412.54</ele>
        <time>2012-04-22T08:00:28Z</time>
      </trkpt>
      <trkpt lat="48.1461" lon="6.43611">
        <ele>409.66</ele>
        <time>2012-04-22T08:00:30Z</time>
      </trkpt>
      <trkpt lat="48.14611" lon="6.43599">
        <ele>408.22</ele>
        <time>2012-04-22T08:00:31Z</time>
      </trkpt>
      <trkpt lat="48.1461" lon="6.43587">
        <ele>406.77</ele>
        <time>2012-04-22T08:00:32Z</time>
      </trkpt>
      <trkpt lat="48.14592" lon="6.43473">
        <ele>398.6</ele>
        <time>2012-04-22T08:00:42Z</time>
      </trkpt>
      <trkpt lat="48.14588" lon="6.43442">
        <ele>396.68</ele>
        <time>2012-04-22T08:00:46Z</time>
      </trkpt>
      <trkpt lat="48.14591" lon="6.43403">
        <ele>393.8</ele>
        <time>2012-04-22T08:00:53Z</time>
      </trkpt>
      <trkpt lat="48.14592" lon="6.43398">
        <ele>392.84</ele>
        <time>2012-04-22T08:00:54Z</time>
      </trkpt>
      <trkpt lat="48.14592" lon="6.43393">
        <ele>392.36</ele>
        <time>2012-04-22T08:00:55Z</time>
      </trkpt>
      <trkpt lat="48.14592" lon="6.43387">
        <ele>390.91</ele>
        <time>2012-04-22T08:00:56Z</time>
      </trkpt>
      <trkpt lat="48.14591" lon="6.43381">
        <ele>390.43</ele>
        <time>2012-04-22T08:00:57Z</time>
      </trkpt>
      <trkpt lat="48.14592" lon="6.43369">
        <ele>389.47</ele>
        <time>2012-04-22T08:01:00Z</time>
      </trkpt>
      <trkpt lat="48.14593" lon="6.43367">
        <ele>389.47</ele>
        <time>2012-04-22T08:01:01Z</time>
      </trkpt>
      <trkpt lat="48.14594" lon="6.43366">
        <ele>388.51</ele>
        <time>2012-04-22T08:01:02Z</time>
      </trkpt>
      <trkpt lat="48.14595" lon="6.43366">
        <ele>388.03</ele>
        <time>2012-04-22T08:01:03Z</time>
      </trkpt>
      <trkpt lat="48.14596" lon="6.43366">
        <ele>387.07</ele>
        <time>2012-04-22T08:01:04Z</time>
      </trkpt>
      <trkpt lat="48.14598" lon="6.43366">
        <ele>386.11</ele>
        <time>2012-04-22T08:01:05Z</time>
      </trkpt>
      <trkpt lat="48.14599" lon="6.43366">
        <ele>385.63</ele>
        <time>2012-04-22T08:01:06Z</time>
      </trkpt>
      <trkpt lat="48.146" lon="6.43366">
        <ele>385.15</ele>
        <time>2012-04-22T08:01:07Z</time>
      </trkpt>
      <trkpt lat="48.14613" lon="6.43367">
        <ele>380.34</ele>
        <time>2012-04-22T08:01:20Z</time>
      </trkpt>
      <trkpt lat="48.14612" lon="6.43364">
        <ele>380.82</ele>
        <time>2012-04-22T08:01:23Z</time>
      </trkpt>
      <trkpt lat="48.14612" lon="6.43362">
        <ele>380.82</ele>
        <time>2012-04-22T08:01:24Z</time>
      </trkpt>
      <trkpt lat="48.14613" lon="6.43359">
        <ele>381.3</ele>
        <time>2012-04-22T08:01:25Z</time>
      </trkpt>
      <trkpt lat="48.14613" lon="6.43357">
        <ele>381.78</ele>
        <time>2012-04-22T08:01:26Z</time>
      </trkpt>
      <trkpt lat="48.14614" lon="6.43355">
        <ele>382.26</ele>
        <time>2012-04-22T08:01:27Z</time>
      </trkpt>
      <trkpt lat="48.14615" lon="6.43352">
        <ele>382.74</ele>
        <time>2012-04-22T08:01:28Z</time>
      </trkpt>
      <trkpt lat="48.14617" lon="6.43348">
        <ele>383.7</ele>
        <time>2012-04-22T08:01:30Z</time>
      </trkpt>
      <trkpt lat="48.14617" lon="6.43345">
        <ele>384.18</ele>
        <time>2012-04-22T08:01:31Z</time>
      </trkpt>
      <trkpt lat="48.14618" lon="6.43343">
        <ele>384.66</ele>
        <time>2012-04-22T08:01:32Z</time>
      </trkpt>
      <trkpt lat="48.1463" lon="6.43301">
        <ele>395.24</ele>
        <time>2012-04-22T08:01:47Z</time>
      </trkpt>
      <trkpt lat="48.1465" lon="6.4327">
        <ele>401.97</ele>
        <time>2012-04-22T08:02:02Z</time>
      </trkpt>
      <trkpt lat="48.14653" lon="6.43266">
        <ele>402.93</ele>
        <time>2012-04-22T08:02:04Z</time>
      </trkpt>
      <trkpt lat="48.14675" lon="6.43236">
        <ele>408.22</ele>
        <time>2012-04-22T08:02:20Z</time>
      </trkpt>
      <trkpt lat="48.14683" lon="6.43215">
        <ele>416.39</ele>
        <time>2012-04-22T08:02:34Z</time>
      </trkpt>
      <trkpt lat="48.14683" lon="6.43194">
        <ele>424.08</ele>
        <time>2012-04-22T08:02:48Z</time>
      </trkpt>
      <trkpt lat="48.14681" lon="6.43163">
        <ele>428.89</ele>
        <time>2012-04-22T08:03:02Z</time>
      </trkpt>
      <trkpt lat="48.14685" lon="6.43153">
        <ele>426.48</ele>
        <time>2012-04-22T08:03:05Z</time>
      </trkpt>
      <trkpt lat="48.14694" lon="6.43164">
        <ele>419.75</ele>
        <time>2012-04-22T08:03:15Z</time>
      </trkpt>
      <trkpt lat="48.14702" lon="6.43215">
        <ele>416.87</ele>
        <time>2012-04-22T08:03:27Z</time>
      </trkpt>
      <trkpt lat="48.14704" lon="6.43224">
        <ele>415.91</ele>
        <time>2012-04-22T08:03:29Z</time>
      </trkpt>
      <trkpt lat="48.14707" lon="6.4324">
        <ele>414.95</ele>
        <time>2012-04-22T08:03:35Z</time>
      </trkpt>
      <trkpt lat="48.14704" lon="6.43277">
        <ele>413.02</ele>
        <time>2012-04-22T08:03:50Z</time>
      </trkpt>
      <trkpt lat="48.14702" lon="6.43332">
        <ele>410.14</ele>
        <time>2012-04-22T08:04:04Z</time>
      </trkpt>
      <trkpt lat="48.14709" lon="6.43396">
        <ele>411.1</ele>
        <time>2012-04-22T08:04:19Z</time>
      </trkpt>
      <trkpt lat="48.14726" lon="6.43462">
        <ele>409.18</ele>
        <time>2012-04-22T08:04:33Z</time>
      </trkpt>
      <trkpt lat="48.14751" lon="6.43526">
        <ele>406.29</ele>
        <time>2012-04-22T08:04:47Z</time>
      </trkpt>
      <trkpt lat="48.14777" lon="6.43563">
        <ele>404.37</ele>
        <time>2012-04-22T08:04:58Z</time>
      </trkpt>
      <trkpt lat="48.14817" lon="6.43589">
        <ele>406.29</ele>
        <time>2012-04-22T08:05:10Z</time>
      </trkpt>
      <trkpt lat="48.14821" lon="6.43593">
        <ele>406.29</ele>
        <time>2012-04-22T08:05:11Z</time>
      </trkpt>
      <trkpt lat="48.14825" lon="6.43596">
        <ele>406.77</ele>
        <time>2012-04-22T08:05:12Z</time>
      </trkpt>
      <trkpt lat="48.14829" lon="6.436">
        <ele>407.26</ele>
        <time>2012-04-22T08:05:13Z</time>
      </trkpt>
      <trkpt lat="48.14833" lon="6.43605">
        <ele>407.26</ele>
        <time>2012-04-22T08:05:14Z</time>
      </trkpt>
      <trkpt lat="48.14837" lon="6.4361">
        <ele>407.74</ele>
        <time>2012-04-22T08:05:15Z</time>
      </trkpt>
      <trkpt lat="48.14841" lon="6.43616">
        <ele>407.74</ele>
        <time>2012-04-22T08:05:16Z</time>
      </trkpt>
      <trkpt lat="48.14843" lon="6.43623">
        <ele>407.74</ele>
        <time>2012-04-22T08:05:17Z</time>
      </trkpt>
      <trkpt lat="48.14843" lon="6.4364">
        <ele>408.7</ele>
        <time>2012-04-22T08:05:19Z</time>
      </trkpt>
      <trkpt lat="48.14837" lon="6.43695">
        <ele>410.14</ele>
        <time>2012-04-22T08:05:26Z</time>
      </trkpt>
      <trkpt lat="48.14837" lon="6.43702">
        <ele>410.14</ele>
        <time>2012-04-22T08:05:27Z</time>
      </trkpt>
      <trkpt lat="48.14838" lon="6.43717">
        <ele>411.1</ele>
        <time>2012-04-22T08:05:29Z</time>
      </trkpt>
      <trkpt lat="48.14839" lon="6.43725">
        <ele>411.1</ele>
        <time>2012-04-22T08:05:30Z</time>
      </trkpt>
      <trkpt lat="48.14848" lon="6.43762">
        <ele>412.54</ele>
        <time>2012-04-22T08:05:35Z</time>
      </trkpt>
      <trkpt lat="48.1486" lon="6.4381">
        <ele>413.02</ele>
        <time>2012-04-22T08:05:41Z</time>
      </trkpt>
      <trkpt lat="48.14874" lon="6.43863">
        <ele>412.54</ele>
        <time>2012-04-22T08:05:48Z</time>
      </trkpt>
      <trkpt lat="48.14881" lon="6.43883">
        <ele>411.58</ele>
        <time>2012-04-22T08:05:51Z</time>
      </trkpt>
      <trkpt lat="48.14915" lon="6.43955">
        <ele>408.22</ele>
        <time>2012-04-22T08:06:06Z</time>
      </trkpt>
      <trkpt lat="48.14916" lon="6.43955">
        <ele>408.22</ele>
        <time>2012-04-22T08:06:07Z</time>
      </trkpt>
      <trkpt lat="48.14917" lon="6.43956">
        <ele>408.22</ele>
        <time>2012-04-22T08:06:08Z</time>
      </trkpt>
      <trkpt lat="48.14926" lon="6.43945">
        <ele>408.22</ele>
        <time>2012-04-22T08:06:19Z</time>
      </trkpt>
      <trkpt lat="48.14926" lon="6.4391">
        <ele>411.1</ele>
        <time>2012-04-22T08:06:36Z</time>
      </trkpt>
      <trkpt lat="48.1492" lon="6.43873">
        <ele>415.91</ele>
        <time>2012-04-22T08:06:50Z</time>
      </trkpt>
      <trkpt lat="48.1492" lon="6.43822">
        <ele>416.39</ele>
        <time>2012-04-22T08:07:05Z</time>
      </trkpt>
      <trkpt lat="48.14924" lon="6.43791">
        <ele>417.35</ele>
        <time>2012-04-22T08:07:18Z</time>
      </trkpt>
      <trkpt lat="48.1492" lon="6.43757">
        <ele>420.71</ele>
        <time>2012-04-22T08:07:33Z</time>
      </trkpt>
      <trkpt lat="48.14918" lon="6.43724">
        <ele>426</ele>
        <time>2012-04-22T08:07:49Z</time>
      </trkpt>
      <trkpt lat="48.14923" lon="6.43682">
        <ele>429.85</ele>
        <time>2012-04-22T08:08:07Z</time>
      </trkpt>
      <trkpt lat="48.14923" lon="6.43639">
        <ele>433.21</ele>
        <time>2012-04-22T08:08:22Z</time>
      </trkpt>
      <trkpt lat="48.14923" lon="6.43603">
        <ele>439.94</ele>
        <time>2012-04-22T08:08:34Z</time>
      </trkpt>
      <trkpt lat="48.14922" lon="6.43589">
        <ele>443.31</ele>
        <time>2012-04-22T08:08:39Z</time>
      </trkpt>
      <trkpt lat="48.1492" lon="6.43579">
        <ele>445.71</ele>
        <time>2012-04-22T08:08:43Z</time>
      </trkpt>
      <trkpt lat="48.14917" lon="6.43571">
        <ele>448.11</ele>
        <time>2012-04-22T08:08:47Z</time>
      </trkpt>
      <trkpt lat="48.14912" lon="6.43556">
        <ele>452.44</ele>
        <time>2012-04-22T08:08:54Z</time>
      </trkpt>
      <trkpt lat="48.1491" lon="6.43552">
        <ele>453.4</ele>
        <time>2012-04-22T08:08:56Z</time>
      </trkpt>
      <trkpt lat="48.14903" lon="6.43537">
        <ele>454.36</ele>
        <time>2012-04-22T08:09:02Z</time>
      </trkpt>
      <trkpt lat="48.1488" lon="6.43515">
        <ele>452.92</ele>
        <time>2012-04-22T08:09:17Z</time>
      </trkpt>
      <trkpt lat="48.14864" lon="6.43486">
        <ele>449.07</ele>
        <time>2012-04-22T08:09:29Z</time>
      </trkpt>
      <trkpt lat="48.14833" lon="6.43448">
        <ele>449.55</ele>
        <time>2012-04-22T08:09:41Z</time>
      </trkpt>
      <trkpt lat="48.14818" lon="6.43385">
        <ele>448.59</ele>
        <time>2012-04-22T08:09:55Z</time>
      </trkpt>
      <trkpt lat="48.14807" lon="6.43306">
        <ele>441.38</ele>
        <time>2012-04-22T08:10:09Z</time>
      </trkpt>
      <trkpt lat="48.14817" lon="6.43262">
        <ele>436.58</ele>
        <time>2012-04-22T08:10:22Z</time>
      </trkpt>
      <trkpt lat="48.14818" lon="6.43261">
        <ele>436.58</ele>
        <time>2012-04-22T08:10:24Z</time>
      </trkpt>
      <trkpt lat="48.1482" lon="6.43277">
        <ele>439.94</ele>
        <time>2012-04-22T08:10:34Z</time>
      </trkpt>
      <trkpt lat="48.14821" lon="6.43323">
        <ele>443.79</ele>
        <time>2012-04-22T08:10:50Z</time>
      </trkpt>
      <trkpt lat="48.1483" lon="6.43364">
        <ele>447.15</ele>
        <time>2012-04-22T08:11:05Z</time>
      </trkpt>
      <trkpt lat="48.14846" lon="6.43401">
        <ele>449.07</ele>
        <time>2012-04-22T08:11:19Z</time>
      </trkpt>
      <trkpt lat="48.14867" lon="6.43429">
        <ele>449.55</ele>
        <time>2012-04-22T08:11:33Z</time>
      </trkpt>
      <trkpt lat="48.14891" lon="6.43434">
        <ele>454.36</ele>
        <time>2012-04-22T08:11:48Z</time>
      </trkpt>
      <trkpt lat="48.14903" lon="6.43423">
        <ele>457.72</ele>
        <time>2012-04-22T08:12:02Z</time>
      </trkpt>
      <trkpt lat="48.14904" lon="6.43421">
        <ele>456.28</ele>
        <time>2012-04-22T08:12:23Z</time>
      </trkpt>
      <trkpt lat="48.14904" lon="6.43418">
        <ele>454.36</ele>
        <time>2012-04-22T08:12:52Z</time>
      </trkpt>
      <trkpt lat="48.14905" lon="6.43414">
        <ele>451.48</ele>
        <time>2012-04-22T08:13:25Z</time>
      </trkpt>
      <trkpt lat="48.14905" lon="6.43413">
        <ele>450.03</ele>
        <time>2012-04-22T08:14:01Z</time>
      </trkpt>
      <trkpt lat="48.14905" lon="6.43412">
        <ele>449.55</ele>
        <time>2012-04-22T08:14:32Z</time>
      </trkpt>
      <trkpt lat="48.14906" lon="6.4341">
        <ele>448.59</ele>
        <time>2012-04-22T08:15:14Z</time>
      </trkpt>
      <trkpt lat="48.14905" lon="6.4341">
        <ele>448.59</ele>
        <time>2012-04-22T08:15:39Z</time>
      </trkpt>
      <trkpt lat="48.14906" lon="6.43407">
        <ele>447.63</ele>
        <time>2012-04-22T08:16:13Z</time>
      </trkpt>
      <trkpt lat="48.14906" lon="6.43407">
        <ele>447.63</ele>
        <time>2012-04-22T08:16:45Z</time>
      </trkpt>
      <trkpt lat="48.14905" lon="6.43407">
        <ele>446.67</ele>
        <time>2012-04-22T08:17:16Z</time>
      </trkpt>
      <trkpt lat="48.14905" lon="6.43407">
        <ele>447.15</ele>
        <time>2012-04-22T08:17:40Z</time>
      </trkpt>
      <trkpt lat="48.14931" lon="6.4344">
        <ele>448.11</ele>
        <time>2012-04-22T08:17:50Z</time>
      </trkpt>
      <trkpt lat="48.1494" lon="6.43454">
        <ele>448.59</ele>
        <time>2012-04-22T08:17:52Z</time>
      </trkpt>
      <trkpt lat="48.14944" lon="6.43461">
        <ele>448.59</ele>
        <time>2012-04-22T08:17:53Z</time>
      </trkpt>
      <trkpt lat="48.14947" lon="6.43469">
        <ele>449.07</ele>
        <time>2012-04-22T08:17:54Z</time>
      </trkpt>
      <trkpt lat="48.14954" lon="6.43492">
        <ele>449.55</ele>
        <time>2012-04-22T08:17:57Z</time>
      </trkpt>
      <trkpt lat="48.14958" lon="6.43508">
        <ele>450.03</ele>
        <time>2012-04-22T08:17:59Z</time>
      </trkpt>
      <trkpt lat="48.14959" lon="6.43517">
        <ele>450.03</ele>
        <time>2012-04-22T08:18:00Z</time>
      </trkpt>
      <trkpt lat="48.14961" lon="6.43536">
        <ele>450.03</ele>
        <time>2012-04-22T08:18:02Z</time>
      </trkpt>
      <trkpt lat="48.14956" lon="6.43645">
        <ele>448.59</ele>
        <time>2012-04-22T08:18:12Z</time>
      </trkpt>
      <trkpt lat="48.14947" lon="6.43728">
        <ele>445.71</ele>
        <time>2012-04-22T08:18:19Z</time>
      </trkpt>
      <trkpt lat="48.14959" lon="6.43778">
        <ele>442.34</ele>
        <time>2012-04-22T08:18:24Z</time>
      </trkpt>
      <trkpt lat="48.14976" lon="6.43833">
        <ele>438.98</ele>
        <time>2012-04-22T08:18:30Z</time>
      </trkpt>
      <trkpt lat="48.14976" lon="6.43841">
        <ele>438.5</ele>
        <time>2012-04-22T08:18:31Z</time>
      </trkpt>
      <trkpt lat="48.14976" lon="6.43849">
        <ele>438.02</ele>
        <time>2012-04-22T08:18:32Z</time>
      </trkpt>
      <trkpt lat="48.14975" lon="6.43858">
        <ele>437.54</ele>
        <time>2012-04-22T08:18:33Z</time>
      </trkpt>
      <trkpt lat="48.14974" lon="6.43868">
        <ele>437.06</ele>
        <time>2012-04-22T08:18:34Z</time>
      </trkpt>
      <trkpt lat="48.14974" lon="6.43878">
        <ele>436.1</ele>
        <time>2012-04-22T08:18:35Z</time>
      </trkpt>
      <trkpt lat="48.14974" lon="6.43914">
        <ele>433.69</ele>
        <time>2012-04-22T08:18:39Z</time>
      </trkpt>
      <trkpt lat="48.14976" lon="6.4392">
        <ele>433.21</ele>
        <time>2012-04-22T08:18:40Z</time>
      </trkpt>
      <trkpt lat="48.14979" lon="6.43926">
        <ele>432.73</ele>
        <time>2012-04-22T08:18:41Z</time>
      </trkpt>
      <trkpt lat="48.14982" lon="6.43933">
        <ele>431.77</ele>
        <time>2012-04-22T08:18:42Z</time>
      </trkpt>
      <trkpt lat="48.14985" lon="6.4394">
        <ele>431.29</ele>
        <time>2012-04-22T08:18:43Z</time>
      </trkpt>
      <trkpt lat="48.1499" lon="6.43954">
        <ele>430.33</ele>
        <time>2012-04-22T08:18:45Z</time>
      </trkpt>
      <trkpt lat="48.14992" lon="6.43961">
        <ele>429.85</ele>
        <time>2012-04-22T08:18:46Z</time>
      </trkpt>
      <trkpt lat="48.14992" lon="6.43969">
        <ele>429.37</ele>
        <time>2012-04-22T08:18:47Z</time>
      </trkpt>
      <trkpt lat="48.14992" lon="6.44001">
        <ele>426.96</ele>
        <time>2012-04-22T08:18:51Z</time>
      </trkpt>
      <trkpt lat="48.14993" lon="6.44007">
        <ele>426.48</ele>
        <time>2012-04-22T08:18:52Z</time>
      </trkpt>
      <trkpt lat="48.14995" lon="6.44009">
        <ele>426</ele>
        <time>2012-04-22T08:18:53Z</time>
      </trkpt>
      <trkpt lat="48.14996" lon="6.44011">
        <ele>425.52</ele>
        <time>2012-04-22T08:18:54Z</time>
      </trkpt>
      <trkpt lat="48.14997" lon="6.44011">
        <ele>424.56</ele>
        <time>2012-04-22T08:18:55Z</time>
      </trkpt>
      <trkpt lat="48.14998" lon="6.4401">
        <ele>424.08</ele>
        <time>2012-04-22T08:18:56Z</time>
      </trkpt>
      <trkpt lat="48.15012" lon="6.43984">
        <ele>422.64</ele>
        <time>2012-04-22T08:19:08Z</time>
      </trkpt>
      <trkpt lat="48.15028" lon="6.4393">
        <ele>425.04</ele>
        <time>2012-04-22T08:19:20Z</time>
      </trkpt>
      <trkpt lat="48.15035" lon="6.43908">
        <ele>426</ele>
        <time>2012-04-22T08:19:23Z</time>
      </trkpt>
      <trkpt lat="48.15037" lon="6.43902">
        <ele>426.48</ele>
        <time>2012-04-22T08:19:24Z</time>
      </trkpt>
      <trkpt lat="48.15041" lon="6.43896">
        <ele>426.96</ele>
        <time>2012-04-22T08:19:25Z</time>
      </trkpt>
      <trkpt lat="48.15049" lon="6.43884">
        <ele>427.92</ele>
        <time>2012-04-22T08:19:27Z</time>
      </trkpt>
      <trkpt lat="48.15053" lon="6.4388">
        <ele>428.4</ele>
        <time>2012-04-22T08:19:28Z</time>
      </trkpt>
      <trkpt lat="48.15063" lon="6.43869">
        <ele>428.89</ele>
        <time>2012-04-22T08:19:30Z</time>
      </trkpt>
      <trkpt lat="48.15067" lon="6.43864">
        <ele>429.37</ele>
        <time>2012-04-22T08:19:31Z</time>
      </trkpt>
      <trkpt lat="48.1507" lon="6.43859">
        <ele>429.85</ele>
        <time>2012-04-22T08:19:32Z</time>
      </trkpt>
      <trkpt lat="48.15073" lon="6.43855">
        <ele>430.33</ele>
        <time>2012-04-22T08:19:33Z</time>
      </trkpt>
      <trkpt lat="48.15077" lon="6.43852">
        <ele>430.81</ele>
        <time>2012-04-22T08:19:34Z</time>
      </trkpt>
      <trkpt lat="48.1508" lon="6.43849">
        <ele>430.81</ele>
        <time>2012-04-22T08:19:35Z</time>
      </trkpt>
      <trkpt lat="48.15098" lon="6.43825">
        <ele>433.21</ele>
        <time>2012-04-22T08:19:45Z</time>
      </trkpt>
      <trkpt lat="48.15114" lon="6.43775">
        <ele>436.58</ele>
        <time>2012-04-22T08:19:55Z</time>
      </trkpt>
      <trkpt lat="48.15114" lon="6.43744">
        <ele>436.1</ele>
        <time>2012-04-22T08:19:58Z</time>
      </trkpt>
      <trkpt lat="48.15121" lon="6.43695">
        <ele>438.98</ele>
        <time>2012-04-22T08:20:08Z</time>
      </trkpt>
      <trkpt lat="48.15127" lon="6.43678">
        <ele>440.42</ele>
        <time>2012-04-22T08:20:14Z</time>
      </trkpt>
      <trkpt lat="48.15145" lon="6.43635">
        <ele>443.79</ele>
        <time>2012-04-22T08:20:24Z</time>
      </trkpt>
      <trkpt lat="48.15155" lon="6.43574">
        <ele>445.71</ele>
        <time>2012-04-22T08:20:35Z</time>
      </trkpt>
      <trkpt lat="48.15143" lon="6.43503">
        <ele>438.98</ele>
        <time>2012-04-22T08:20:49Z</time>
      </trkpt>
      <trkpt lat="48.15116" lon="6.43455">
        <ele>435.13</ele>
        <time>2012-04-22T08:21:00Z</time>
      </trkpt>
      <trkpt lat="48.15097" lon="6.4342">
        <ele>428.89</ele>
        <time>2012-04-22T08:21:10Z</time>
      </trkpt>
      <trkpt lat="48.15087" lon="6.43379">
        <ele>430.81</ele>
        <time>2012-04-22T08:21:19Z</time>
      </trkpt>
      <trkpt lat="48.15134" lon="6.43384">
        <ele>431.29</ele>
        <time>2012-04-22T08:21:30Z</time>
      </trkpt>
      <trkpt lat="48.15186" lon="6.43356">
        <ele>431.77</ele>
        <time>2012-04-22T08:21:45Z</time>
      </trkpt>
      <trkpt lat="48.15196" lon="6.43352">
        <ele>431.29</ele>
        <time>2012-04-22T08:21:48Z</time>
      </trkpt>
      <trkpt lat="48.15211" lon="6.43343">
        <ele>429.37</ele>
        <time>2012-04-22T08:21:51Z</time>
      </trkpt>
      <trkpt lat="48.15212" lon="6.43338">
        <ele>428.89</ele>
        <time>2012-04-22T08:21:52Z</time>
      </trkpt>
      <trkpt lat="48.15214" lon="6.43333">
        <ele>428.89</ele>
        <time>2012-04-22T08:21:53Z</time>
      </trkpt>
      <trkpt lat="48.15228" lon="6.43309">
        <ele>426</ele>
        <time>2012-04-22T08:21:59Z</time>
      </trkpt>
      <trkpt lat="48.15234" lon="6.43309">
        <ele>425.04</ele>
        <time>2012-04-22T08:22:00Z</time>
      </trkpt>
      <trkpt lat="48.15243" lon="6.4331">
        <ele>424.08</ele>
        <time>2012-04-22T08:22:02Z</time>
      </trkpt>
      <trkpt lat="48.15273" lon="6.43315">
        <ele>420.71</ele>
        <time>2012-04-22T08:22:08Z</time>
      </trkpt>
      <trkpt lat="48.15278" lon="6.43302">
        <ele>418.79</ele>
        <time>2012-04-22T08:22:16Z</time>
      </trkpt>
      <trkpt lat="48.15275" lon="6.433">
        <ele>418.79</ele>
        <time>2012-04-22T08:22:19Z</time>
      </trkpt>
      <trkpt lat="48.15273" lon="6.43298">
        <ele>418.31</ele>
        <time>2012-04-22T08:22:21Z</time>
      </trkpt>
      <trkpt lat="48.15285" lon="6.4333">
        <ele>419.27</ele>
        <time>2012-04-22T08:22:31Z</time>
      </trkpt>
      <trkpt lat="48.15287" lon="6.43334">
        <ele>419.27</ele>
        <time>2012-04-22T08:22:32Z</time>
      </trkpt>
      <trkpt lat="48.15302" lon="6.43393">
        <ele>419.27</ele>
        <time>2012-04-22T08:22:40Z</time>
      </trkpt>
      <trkpt lat="48.15306" lon="6.43413">
        <ele>419.27</ele>
        <time>2012-04-22T08:22:42Z</time>
      </trkpt>
      <trkpt lat="48.15307" lon="6.4342">
        <ele>419.27</ele>
        <time>2012-04-22T08:22:43Z</time>
      </trkpt>
      <trkpt lat="48.15314" lon="6.43538">
        <ele>419.27</ele>
        <time>2012-04-22T08:22:57Z</time>
      </trkpt>
      <trkpt lat="48.15314" lon="6.43562">
        <ele>418.79</ele>
        <time>2012-04-22T08:23:00Z</time>
      </trkpt>
      <trkpt lat="48.15315" lon="6.43571">
        <ele>418.79</ele>
        <time>2012-04-22T08:23:01Z</time>
      </trkpt>
      <trkpt lat="48.15315" lon="6.4358">
        <ele>418.31</ele>
        <time>2012-04-22T08:23:02Z</time>
      </trkpt>
      <trkpt lat="48.15325" lon="6.43669">
        <ele>417.35</ele>
        <time>2012-04-22T08:23:14Z</time>
      </trkpt>
      <trkpt lat="48.15344" lon="6.43747">
        <ele>414.47</ele>
        <time>2012-04-22T08:23:26Z</time>
      </trkpt>
      <trkpt lat="48.15345" lon="6.43754">
        <ele>414.47</ele>
        <time>2012-04-22T08:23:27Z</time>
      </trkpt>
      <trkpt lat="48.15345" lon="6.43762">
        <ele>414.47</ele>
        <time>2012-04-22T08:23:28Z</time>
      </trkpt>
      <trkpt lat="48.15345" lon="6.4377">
        <ele>414.47</ele>
        <time>2012-04-22T08:23:29Z</time>
      </trkpt>
      <trkpt lat="48.15344" lon="6.43778">
        <ele>413.98</ele>
        <time>2012-04-22T08:23:30Z</time>
      </trkpt>
      <trkpt lat="48.15342" lon="6.43791">
        <ele>414.47</ele>
        <time>2012-04-22T08:23:32Z</time>
      </trkpt>
      <trkpt lat="48.15328" lon="6.43852">
        <ele>414.95</ele>
        <time>2012-04-22T08:23:43Z</time>
      </trkpt>
      <trkpt lat="48.15326" lon="6.43867">
        <ele>414.47</ele>
        <time>2012-04-22T08:23:45Z</time>
      </trkpt>
      <trkpt lat="48.15324" lon="6.43875">
        <ele>413.98</ele>
        <time>2012-04-22T08:23:46Z</time>
      </trkpt>
      <trkpt lat="48.15319" lon="6.43995">
        <ele>410.14</ele>
        <time>2012-04-22T08:23:58Z</time>
      </trkpt>
      <trkpt lat="48.15321" lon="6.44026">
        <ele>409.66</ele>
        <time>2012-04-22T08:24:01Z</time>
      </trkpt>
      <trkpt lat="48.1533" lon="6.44153">
        <ele>404.85</ele>
        <time>2012-04-22T08:24:15Z</time>
      </trkpt>
      <trkpt lat="48.15328" lon="6.44181">
        <ele>403.41</ele>
        <time>2012-04-22T08:24:18Z</time>
      </trkpt>
      <trkpt lat="48.15328" lon="6.44191">
        <ele>402.93</ele>
        <time>2012-04-22T08:24:19Z</time>
      </trkpt>
      <trkpt lat="48.15328" lon="6.442">
        <ele>402.45</ele>
        <time>2012-04-22T08:24:20Z</time>
      </trkpt>
      <trkpt lat="48.15322" lon="6.44291">
        <ele>397.64</ele>
        <time>2012-04-22T08:24:30Z</time>
      </trkpt>
      <trkpt lat="48.1533" lon="6.44343">
        <ele>394.28</ele>
        <time>2012-04-22T08:24:35Z</time>
      </trkpt>
      <trkpt lat="48.15333" lon="6.4436">
        <ele>392.84</ele>
        <time>2012-04-22T08:24:37Z</time>
      </trkpt>
      <trkpt lat="48.15353" lon="6.44421">
        <ele>389.47</ele>
        <time>2012-04-22T08:24:45Z</time>
      </trkpt>
      <trkpt lat="48.15374" lon="6.44524">
        <ele>388.51</ele>
        <time>2012-04-22T08:24:58Z</time>
      </trkpt>
      <trkpt lat="48.15376" lon="6.44533">
        <ele>388.03</ele>
        <time>2012-04-22T08:24:59Z</time>
      </trkpt>
      <trkpt lat="48.15411" lon="6.44654">
        <ele>380.34</ele>
        <time>2012-04-22T08:25:12Z</time>
      </trkpt>
      <trkpt lat="48.15427" lon="6.44685">
        <ele>377.45</ele>
        <time>2012-04-22T08:25:18Z</time>
      </trkpt>
      <trkpt lat="48.15428" lon="6.44684">
        <ele>377.45</ele>
        <time>2012-04-22T08:25:19Z</time>
      </trkpt>
      <trkpt lat="48.15431" lon="6.44674">
        <ele>376.97</ele>
        <time>2012-04-22T08:25:25Z</time>
      </trkpt>
      <trkpt lat="48.15431" lon="6.44639">
        <ele>379.86</ele>
        <time>2012-04-22T08:25:38Z</time>
      </trkpt>
      <trkpt lat="48.15435" lon="6.44605">
        <ele>384.66</ele>
        <time>2012-04-22T08:25:51Z</time>
      </trkpt>
      <trkpt lat="48.15447" lon="6.44577">
        <ele>391.39</ele>
        <time>2012-04-22T08:26:05Z</time>
      </trkpt>
      <trkpt lat="48.15452" lon="6.44544">
        <ele>397.64</ele>
        <time>2012-04-22T08:26:19Z</time>
      </trkpt>
      <trkpt lat="48.15453" lon="6.44517">
        <ele>402.93</ele>
        <time>2012-04-22T08:26:31Z</time>
      </trkpt>
      <trkpt lat="48.15454" lon="6.4451">
        <ele>404.85</ele>
        <time>2012-04-22T08:26:36Z</time>
      </trkpt>
      <trkpt lat="48.1546" lon="6.44516">
        <ele>408.22</ele>
        <time>2012-04-22T08:26:42Z</time>
      </trkpt>
      <trkpt lat="48.15477" lon="6.44541">
        <ele>411.58</ele>
        <time>2012-04-22T08:26:58Z</time>
      </trkpt>
      <trkpt lat="48.15491" lon="6.4458">
        <ele>413.02</ele>
        <time>2012-04-22T08:27:14Z</time>
      </trkpt>
      <trkpt lat="48.15502" lon="6.44627">
        <ele>415.91</ele>
        <time>2012-04-22T08:27:30Z</time>
      </trkpt>
      <trkpt lat="48.15525" lon="6.44664">
        <ele>415.43</ele>
        <time>2012-04-22T08:27:40Z</time>
      </trkpt>
      <trkpt lat="48.15555" lon="6.44682">
        <ele>414.95</ele>
        <time>2012-04-22T08:27:53Z</time>
      </trkpt>
      <trkpt lat="48.1557" lon="6.4468">
        <ele>417.35</ele>
        <time>2012-04-22T08:28:03Z</time>
      </trkpt>
      <trkpt lat="48.15571" lon="6.44679">
        <ele>417.83</ele>
        <time>2012-04-22T08:28:05Z</time>
      </trkpt>
      <trkpt lat="48.15589" lon="6.44671">
        <ele>423.12</ele>
        <time>2012-04-22T08:28:20Z</time>
      </trkpt>
      <trkpt lat="48.15615" lon="6.44658">
        <ele>429.37</ele>
        <time>2012-04-22T08:28:32Z</time>
      </trkpt>
      <trkpt lat="48.15623" lon="6.44638">
        <ele>435.13</ele>
        <time>2012-04-22T08:28:42Z</time>
      </trkpt>
      <trkpt lat="48.15628" lon="6.44606">
        <ele>437.54</ele>
        <time>2012-04-22T08:28:54Z</time>
      </trkpt>
      <trkpt lat="48.1562" lon="6.44578">
        <ele>440.9</ele>
        <time>2012-04-22T08:29:09Z</time>
      </trkpt>
      <trkpt lat="48.15616" lon="6.44559">
        <ele>444.27</ele>
        <time>2012-04-22T08:29:16Z</time>
      </trkpt>
      <trkpt lat="48.15609" lon="6.44514">
        <ele>451.96</ele>
        <time>2012-04-22T08:29:31Z</time>
      </trkpt>
      <trkpt lat="48.15606" lon="6.44487">
        <ele>451.96</ele>
        <time>2012-04-22T08:29:39Z</time>
      </trkpt>
      <trkpt lat="48.15604" lon="6.4448">
        <ele>453.4</ele>
        <time>2012-04-22T08:29:42Z</time>
      </trkpt>
      <trkpt lat="48.15601" lon="6.44471">
        <ele>453.88</ele>
        <time>2012-04-22T08:29:47Z</time>
      </trkpt>
      <trkpt lat="48.15593" lon="6.44437">
        <ele>458.21</ele>
        <time>2012-04-22T08:30:02Z</time>
      </trkpt>
      <trkpt lat="48.15586" lon="6.44396">
        <ele>456.28</ele>
        <time>2012-04-22T08:30:16Z</time>
      </trkpt>
      <trkpt lat="48.15585" lon="6.44387">
        <ele>453.88</ele>
        <time>2012-04-22T08:30:19Z</time>
      </trkpt>
      <trkpt lat="48.15586" lon="6.44383">
        <ele>451.96</ele>
        <time>2012-04-22T08:30:21Z</time>
      </trkpt>
      <trkpt lat="48.15586" lon="6.44355">
        <ele>448.11</ele>
        <time>2012-04-22T08:30:33Z</time>
      </trkpt>
      <trkpt lat="48.15577" lon="6.4432">
        <ele>446.19</ele>
        <time>2012-04-22T08:30:49Z</time>
      </trkpt>
      <trkpt lat="48.15576" lon="6.44278">
        <ele>448.11</ele>
        <time>2012-04-22T08:31:03Z</time>
      </trkpt>
      <trkpt lat="48.15584" lon="6.44236">
        <ele>451</ele>
        <time>2012-04-22T08:31:18Z</time>
      </trkpt>
      <trkpt lat="48.15591" lon="6.44191">
        <ele>456.76</ele>
        <time>2012-04-22T08:31:33Z</time>
      </trkpt>
      <trkpt lat="48.15599" lon="6.44155">
        <ele>460.13</ele>
        <time>2012-04-22T08:31:44Z</time>
      </trkpt>
      <trkpt lat="48.156" lon="6.44114">
        <ele>464.93</ele>
        <time>2012-04-22T08:31:55Z</time>
      </trkpt>
      <trkpt lat="48.15581" lon="6.44066">
        <ele>470.22</ele>
        <time>2012-04-22T08:32:08Z</time>
      </trkpt>
      <trkpt lat="48.15555" lon="6.44013">
        <ele>473.59</ele>
        <time>2012-04-22T08:32:18Z</time>
      </trkpt>
      <trkpt lat="48.15541" lon="6.43976">
        <ele>473.59</ele>
        <time>2012-04-22T08:32:26Z</time>
      </trkpt>
      <trkpt lat="48.15533" lon="6.43907">
        <ele>473.11</ele>
        <time>2012-04-22T08:32:38Z</time>
      </trkpt>
      <trkpt lat="48.15534" lon="6.43894">
        <ele>473.59</ele>
        <time>2012-04-22T08:32:40Z</time>
      </trkpt>
      <trkpt lat="48.15526" lon="6.43841">
        <ele>472.63</ele>
        <time>2012-04-22T08:32:46Z</time>
      </trkpt>
      <trkpt lat="48.15525" lon="6.43762">
        <ele>469.26</ele>
        <time>2012-04-22T08:32:57Z</time>
      </trkpt>
      <trkpt lat="48.15533" lon="6.43714">
        <ele>468.78</ele>
        <time>2012-04-22T08:33:08Z</time>
      </trkpt>
      <trkpt lat="48.15513" lon="6.43661">
        <ele>465.42</ele>
        <time>2012-04-22T08:33:21Z</time>
      </trkpt>
      <trkpt lat="48.15509" lon="6.43646">
        <ele>464.45</ele>
        <time>2012-04-22T08:33:24Z</time>
      </trkpt>
      <trkpt lat="48.1547" lon="6.43628">
        <ele>463.49</ele>
        <time>2012-04-22T08:33:36Z</time>
      </trkpt>
      <trkpt lat="48.15456" lon="6.43604">
        <ele>464.93</ele>
        <time>2012-04-22T08:33:42Z</time>
      </trkpt>
      <trkpt lat="48.15434" lon="6.4355">
        <ele>466.38</ele>
        <time>2012-04-22T08:33:55Z</time>
      </trkpt>
      <trkpt lat="48.15429" lon="6.43529">
        <ele>467.34</ele>
        <time>2012-04-22T08:34:01Z</time>
      </trkpt>
      <trkpt lat="48.15423" lon="6.43515">
        <ele>467.82</ele>
        <time>2012-04-22T08:34:05Z</time>
      </trkpt>
      <trkpt lat="48.1541" lon="6.4345">
        <ele>462.53</ele>
        <time>2012-04-22T08:34:17Z</time>
      </trkpt>
      <trkpt lat="48.15407" lon="6.434">
        <ele>458.69</ele>
        <time>2012-04-22T08:34:29Z</time>
      </trkpt>
      <trkpt lat="48.15409" lon="6.4335">
        <ele>458.69</ele>
        <time>2012-04-22T08:34:42Z</time>
      </trkpt>
      <trkpt lat="48.15418" lon="6.43334">
        <ele>457.72</ele>
        <time>2012-04-22T08:34:50Z</time>
      </trkpt>
      <trkpt lat="48.15418" lon="6.43336">
        <ele>458.21</ele>
        <time>2012-04-22T08:34:54Z</time>
      </trkpt>
      <trkpt lat="48.15429" lon="6.43362">
        <ele>458.69</ele>
        <time>2012-04-22T08:35:07Z</time>
      </trkpt>
      <trkpt lat="48.15446" lon="6.43358">
        <ele>465.9</ele>
        <time>2012-04-22T08:35:22Z</time>
      </trkpt>
      <trkpt lat="48.15479" lon="6.43349">
        <ele>475.03</ele>
        <time>2012-04-22T08:35:38Z</time>
      </trkpt>
      <trkpt lat="48.15512" lon="6.43358">
        <ele>484.64</ele>
        <time>2012-04-22T08:35:50Z</time>
      </trkpt>
      <trkpt lat="48.15557" lon="6.43396">
        <ele>492.33</ele>
        <time>2012-04-22T08:36:03Z</time>
      </trkpt>
      <trkpt lat="48.1557" lon="6.43408">
        <ele>493.29</ele>
        <time>2012-04-22T08:36:07Z</time>
      </trkpt>
      <trkpt lat="48.1558" lon="6.43452">
        <ele>500.02</ele>
        <time>2012-04-22T08:36:15Z</time>
      </trkpt>
      <trkpt lat="48.15582" lon="6.43457">
        <ele>500.02</ele>
        <time>2012-04-22T08:36:16Z</time>
      </trkpt>
      <trkpt lat="48.15585" lon="6.43461">
        <ele>500.02</ele>
        <time>2012-04-22T08:36:17Z</time>
      </trkpt>
      <trkpt lat="48.15587" lon="6.43466">
        <ele>500.02</ele>
        <time>2012-04-22T08:36:18Z</time>
      </trkpt>
      <trkpt lat="48.15591" lon="6.4347">
        <ele>499.54</ele>
        <time>2012-04-22T08:36:19Z</time>
      </trkpt>
      <trkpt lat="48.15599" lon="6.43478">
        <ele>499.06</ele>
        <time>2012-04-22T08:36:21Z</time>
      </trkpt>
      <trkpt lat="48.15604" lon="6.43482">
        <ele>499.06</ele>
        <time>2012-04-22T08:36:22Z</time>
      </trkpt>
      <trkpt lat="48.1561" lon="6.43486">
        <ele>499.06</ele>
        <time>2012-04-22T08:36:23Z</time>
      </trkpt>
      <trkpt lat="48.15619" lon="6.43489">
        <ele>497.14</ele>
        <time>2012-04-22T08:36:24Z</time>
      </trkpt>
      <trkpt lat="48.15624" lon="6.43492">
        <ele>497.14</ele>
        <time>2012-04-22T08:36:25Z</time>
      </trkpt>
      <trkpt lat="48.15631" lon="6.43495">
        <ele>496.66</ele>
        <time>2012-04-22T08:36:26Z</time>
      </trkpt>
      <trkpt lat="48.15638" lon="6.43497">
        <ele>496.66</ele>
        <time>2012-04-22T08:36:27Z</time>
      </trkpt>
      <trkpt lat="48.15686" lon="6.43513">
        <ele>492.33</ele>
        <time>2012-04-22T08:36:36Z</time>
      </trkpt>
      <trkpt lat="48.15718" lon="6.43526">
        <ele>488.97</ele>
        <time>2012-04-22T08:36:44Z</time>
      </trkpt>
      <trkpt lat="48.15724" lon="6.43526">
        <ele>488.49</ele>
        <time>2012-04-22T08:36:45Z</time>
      </trkpt>
      <trkpt lat="48.15772" lon="6.43529">
        <ele>485.12</ele>
        <time>2012-04-22T08:36:52Z</time>
      </trkpt>
      <trkpt lat="48.15778" lon="6.43536">
        <ele>484.64</ele>
        <time>2012-04-22T08:36:53Z</time>
      </trkpt>
      <trkpt lat="48.15783" lon="6.43544">
        <ele>484.64</ele>
        <time>2012-04-22T08:36:54Z</time>
      </trkpt>
      <trkpt lat="48.15787" lon="6.43552">
        <ele>484.16</ele>
        <time>2012-04-22T08:36:55Z</time>
      </trkpt>
      <trkpt lat="48.1579" lon="6.4356">
        <ele>484.16</ele>
        <time>2012-04-22T08:36:56Z</time>
      </trkpt>
      <trkpt lat="48.15811" lon="6.4362">
        <ele>484.16</ele>
        <time>2012-04-22T08:37:03Z</time>
      </trkpt>
      <trkpt lat="48.1584" lon="6.43731">
        <ele>483.68</ele>
        <time>2012-04-22T08:37:13Z</time>
      </trkpt>
      <trkpt lat="48.15846" lon="6.43747">
        <ele>483.68</ele>
        <time>2012-04-22T08:37:15Z</time>
      </trkpt>
      <trkpt lat="48.1585" lon="6.43753">
        <ele>483.68</ele>
        <time>2012-04-22T08:37:16Z</time>
      </trkpt>
      <trkpt lat="48.15853" lon="6.43758">
        <ele>483.68</ele>
        <time>2012-04-22T08:37:17Z</time>
      </trkpt>
      <trkpt lat="48.15856" lon="6.43759">
        <ele>482.72</ele>
        <time>2012-04-22T08:37:20Z</time>
      </trkpt>
      <trkpt lat="48.15845" lon="6.43751">
        <ele>474.55</ele>
        <time>2012-04-22T08:37:34Z</time>
      </trkpt>
      <trkpt lat="48.15861" lon="6.43759">
        <ele>472.63</ele>
        <time>2012-04-22T08:37:47Z</time>
      </trkpt>
      <trkpt lat="48.15881" lon="6.43781">
        <ele>469.74</ele>
        <time>2012-04-22T08:38:00Z</time>
      </trkpt>
      <trkpt lat="48.159" lon="6.43829">
        <ele>461.57</ele>
        <time>2012-04-22T08:38:13Z</time>
      </trkpt>
      <trkpt lat="48.15923" lon="6.4388">
        <ele>441.38</ele>
        <time>2012-04-22T08:38:28Z</time>
      </trkpt>
      <trkpt lat="48.15934" lon="6.43919">
        <ele>428.89</ele>
        <time>2012-04-22T08:38:40Z</time>
      </trkpt>
      <trkpt lat="48.15949" lon="6.43975">
        <ele>426</ele>
        <time>2012-04-22T08:38:52Z</time>
      </trkpt>
      <trkpt lat="48.1598" lon="6.44019">
        <ele>423.12</ele>
        <time>2012-04-22T08:39:04Z</time>
      </trkpt>
      <trkpt lat="48.16007" lon="6.44036">
        <ele>425.04</ele>
        <time>2012-04-22T08:39:15Z</time>
      </trkpt>
      <trkpt lat="48.16018" lon="6.44042">
        <ele>426.48</ele>
        <time>2012-04-22T08:39:20Z</time>
      </trkpt>
      <trkpt lat="48.16026" lon="6.44044">
        <ele>427.92</ele>
        <time>2012-04-22T08:39:24Z</time>
      </trkpt>
      <trkpt lat="48.16045" lon="6.44076">
        <ele>433.21</ele>
        <time>2012-04-22T08:39:34Z</time>
      </trkpt>
      <trkpt lat="48.16049" lon="6.44113">
        <ele>435.13</ele>
        <time>2012-04-22T08:39:44Z</time>
      </trkpt>
      <trkpt lat="48.16053" lon="6.44157">
        <ele>436.1</ele>
        <time>2012-04-22T08:39:52Z</time>
      </trkpt>
      <trkpt lat="48.16048" lon="6.44192">
        <ele>435.61</ele>
        <time>2012-04-22T08:39:57Z</time>
      </trkpt>
      <trkpt lat="48.16048" lon="6.44228">
        <ele>434.17</ele>
        <time>2012-04-22T08:40:02Z</time>
      </trkpt>
      <trkpt lat="48.16043" lon="6.4426">
        <ele>433.21</ele>
        <time>2012-04-22T08:40:08Z</time>
      </trkpt>
      <trkpt lat="48.1604" lon="6.44305">
        <ele>431.29</ele>
        <time>2012-04-22T08:40:15Z</time>
      </trkpt>
      <trkpt lat="48.1606" lon="6.44376">
        <ele>428.89</ele>
        <time>2012-04-22T08:40:25Z</time>
      </trkpt>
      <trkpt lat="48.16077" lon="6.4441">
        <ele>427.92</ele>
        <time>2012-04-22T08:40:30Z</time>
      </trkpt>
      <trkpt lat="48.16094" lon="6.44432">
        <ele>426.96</ele>
        <time>2012-04-22T08:40:34Z</time>
      </trkpt>
      <trkpt lat="48.1614" lon="6.44458">
        <ele>425.04</ele>
        <time>2012-04-22T08:40:46Z</time>
      </trkpt>
      <trkpt lat="48.16181" lon="6.44459">
        <ele>428.4</ele>
        <time>2012-04-22T08:40:58Z</time>
      </trkpt>
      <trkpt lat="48.16221" lon="6.44455">
        <ele>432.73</ele>
        <time>2012-04-22T08:41:11Z</time>
      </trkpt>
      <trkpt lat="48.16237" lon="6.44446">
        <ele>436.58</ele>
        <time>2012-04-22T08:41:18Z</time>
      </trkpt>
      <trkpt lat="48.16245" lon="6.44444">
        <ele>437.06</ele>
        <time>2012-04-22T08:41:21Z</time>
      </trkpt>
      <trkpt lat="48.16289" lon="6.44468">
        <ele>435.61</ele>
        <time>2012-04-22T08:41:27Z</time>
      </trkpt>
      <trkpt lat="48.16316" lon="6.44493">
        <ele>434.65</ele>
        <time>2012-04-22T08:41:31Z</time>
      </trkpt>
      <trkpt lat="48.16322" lon="6.44497">
        <ele>434.65</ele>
        <time>2012-04-22T08:41:32Z</time>
      </trkpt>
      <trkpt lat="48.16329" lon="6.445">
        <ele>434.65</ele>
        <time>2012-04-22T08:41:33Z</time>
      </trkpt>
      <trkpt lat="48.16335" lon="6.44502">
        <ele>434.17</ele>
        <time>2012-04-22T08:41:34Z</time>
      </trkpt>
      <trkpt lat="48.1634" lon="6.44505">
        <ele>433.69</ele>
        <time>2012-04-22T08:41:35Z</time>
      </trkpt>
      <trkpt lat="48.16345" lon="6.44507">
        <ele>432.73</ele>
        <time>2012-04-22T08:41:36Z</time>
      </trkpt>
      <trkpt lat="48.16349" lon="6.44508">
        <ele>431.77</ele>
        <time>2012-04-22T08:41:37Z</time>
      </trkpt>
      <trkpt lat="48.16353" lon="6.44507">
        <ele>431.29</ele>
        <time>2012-04-22T08:41:38Z</time>
      </trkpt>
      <trkpt lat="48.16356" lon="6.44506">
        <ele>430.33</ele>
        <time>2012-04-22T08:41:39Z</time>
      </trkpt>
      <trkpt lat="48.1636" lon="6.44507">
        <ele>429.37</ele>
        <time>2012-04-22T08:41:40Z</time>
      </trkpt>
      <trkpt lat="48.16364" lon="6.4451">
        <ele>429.37</ele>
        <time>2012-04-22T08:41:41Z</time>
      </trkpt>
      <trkpt lat="48.1637" lon="6.4451">
        <ele>426.48</ele>
        <time>2012-04-22T08:41:42Z</time>
      </trkpt>
      <trkpt lat="48.16385" lon="6.44514">
        <ele>423.12</ele>
        <time>2012-04-22T08:41:45Z</time>
      </trkpt>
      <trkpt lat="48.16392" lon="6.44513">
        <ele>421.19</ele>
        <time>2012-04-22T08:41:46Z</time>
      </trkpt>
      <trkpt lat="48.16397" lon="6.44514">
        <ele>420.71</ele>
        <time>2012-04-22T08:41:47Z</time>
      </trkpt>
      <trkpt lat="48.16401" lon="6.44515">
        <ele>420.23</ele>
        <time>2012-04-22T08:41:48Z</time>
      </trkpt>
      <trkpt lat="48.16406" lon="6.44517">
        <ele>419.27</ele>
        <time>2012-04-22T08:41:49Z</time>
      </trkpt>
      <trkpt lat="48.16423" lon="6.44518">
        <ele>412.54</ele>
        <time>2012-04-22T08:41:55Z</time>
      </trkpt>
      <trkpt lat="48.16424" lon="6.44517">
        <ele>411.58</ele>
        <time>2012-04-22T08:41:56Z</time>
      </trkpt>
      <trkpt lat="48.16426" lon="6.44514">
        <ele>411.1</ele>
        <time>2012-04-22T08:41:57Z</time>
      </trkpt>
      <trkpt lat="48.1643" lon="6.44465">
        <ele>406.29</ele>
        <time>2012-04-22T08:42:06Z</time>
      </trkpt>
      <trkpt lat="48.16431" lon="6.44458">
        <ele>405.81</ele>
        <time>2012-04-22T08:42:07Z</time>
      </trkpt>
      <trkpt lat="48.16438" lon="6.44409">
        <ele>400.05</ele>
        <time>2012-04-22T08:42:16Z</time>
      </trkpt>
      <trkpt lat="48.16429" lon="6.44355">
        <ele>389.47</ele>
        <time>2012-04-22T08:42:28Z</time>
      </trkpt>
      <trkpt lat="48.16421" lon="6.44315">
        <ele>384.18</ele>
        <time>2012-04-22T08:42:42Z</time>
      </trkpt>
      <trkpt lat="48.1641" lon="6.44271">
        <ele>382.74</ele>
        <time>2012-04-22T08:42:56Z</time>
      </trkpt>
      <trkpt lat="48.1641" lon="6.44218">
        <ele>383.22</ele>
        <time>2012-04-22T08:43:11Z</time>
      </trkpt>
      <trkpt lat="48.16401" lon="6.44151">
        <ele>384.18</ele>
        <time>2012-04-22T08:43:27Z</time>
      </trkpt>
      <trkpt lat="48.16376" lon="6.44106">
        <ele>385.15</ele>
        <time>2012-04-22T08:43:36Z</time>
      </trkpt>
      <trkpt lat="48.16355" lon="6.44087">
        <ele>385.63</ele>
        <time>2012-04-22T08:43:45Z</time>
      </trkpt>
      <trkpt lat="48.16362" lon="6.44075">
        <ele>388.03</ele>
        <time>2012-04-22T08:43:48Z</time>
      </trkpt>
      <trkpt lat="48.16396" lon="6.44041">
        <ele>392.84</ele>
        <time>2012-04-22T08:43:56Z</time>
      </trkpt>
      <trkpt lat="48.164" lon="6.43973">
        <ele>395.24</ele>
        <time>2012-04-22T08:44:08Z</time>
      </trkpt>
      <trkpt lat="48.16396" lon="6.43911">
        <ele>390.43</ele>
        <time>2012-04-22T08:44:20Z</time>
      </trkpt>
      <trkpt lat="48.16388" lon="6.43884">
        <ele>390.43</ele>
        <time>2012-04-22T08:44:34Z</time>
      </trkpt>
      <trkpt lat="48.16387" lon="6.43883">
        <ele>390.43</ele>
        <time>2012-04-22T08:44:35Z</time>
      </trkpt>
      <trkpt lat="48.16365" lon="6.43854">
        <ele>394.76</ele>
        <time>2012-04-22T08:44:52Z</time>
      </trkpt>
      <trkpt lat="48.16348" lon="6.43825">
        <ele>401.01</ele>
        <time>2012-04-22T08:45:08Z</time>
      </trkpt>
      <trkpt lat="48.16341" lon="6.43795">
        <ele>411.1</ele>
        <time>2012-04-22T08:45:24Z</time>
      </trkpt>
      <trkpt lat="48.16331" lon="6.43771">
        <ele>416.39</ele>
        <time>2012-04-22T08:45:38Z</time>
      </trkpt>
      <trkpt lat="48.16317" lon="6.43753">
        <ele>421.19</ele>
        <time>2012-04-22T08:45:53Z</time>
      </trkpt>
      <trkpt lat="48.16315" lon="6.43747">
        <ele>421.68</ele>
        <time>2012-04-22T08:45:57Z</time>
      </trkpt>
      <trkpt lat="48.16302" lon="6.43712">
        <ele>426.48</ele>
        <time>2012-04-22T08:46:13Z</time>
      </trkpt>
      <trkpt lat="48.16289" lon="6.43679">
        <ele>431.29</ele>
        <time>2012-04-22T08:46:25Z</time>
      </trkpt>
      <trkpt lat="48.1628" lon="6.43626">
        <ele>432.25</ele>
        <time>2012-04-22T08:46:38Z</time>
      </trkpt>
      <trkpt lat="48.16271" lon="6.43562">
        <ele>432.73</ele>
        <time>2012-04-22T08:46:49Z</time>
      </trkpt>
      <trkpt lat="48.16278" lon="6.43502">
        <ele>429.37</ele>
        <time>2012-04-22T08:47:07Z</time>
      </trkpt>
      <trkpt lat="48.16279" lon="6.43499">
        <ele>429.37</ele>
        <time>2012-04-22T08:47:08Z</time>
      </trkpt>
      <trkpt lat="48.1628" lon="6.43484">
        <ele>429.85</ele>
        <time>2012-04-22T08:47:12Z</time>
      </trkpt>
      <trkpt lat="48.16288" lon="6.43432">
        <ele>433.69</ele>
        <time>2012-04-22T08:47:23Z</time>
      </trkpt>
      <trkpt lat="48.16286" lon="6.43395">
        <ele>434.17</ele>
        <time>2012-04-22T08:47:29Z</time>
      </trkpt>
      <trkpt lat="48.16267" lon="6.43347">
        <ele>432.73</ele>
        <time>2012-04-22T08:47:45Z</time>
      </trkpt>
      <trkpt lat="48.1625" lon="6.4333">
        <ele>433.21</ele>
        <time>2012-04-22T08:47:58Z</time>
      </trkpt>
      <trkpt lat="48.16229" lon="6.43306">
        <ele>436.58</ele>
        <time>2012-04-22T08:48:13Z</time>
      </trkpt>
      <trkpt lat="48.16209" lon="6.43289">
        <ele>442.82</ele>
        <time>2012-04-22T08:48:27Z</time>
      </trkpt>
      <trkpt lat="48.16195" lon="6.43284">
        <ele>449.55</ele>
        <time>2012-04-22T08:48:41Z</time>
      </trkpt>
      <trkpt lat="48.16175" lon="6.43281">
        <ele>457.24</ele>
        <time>2012-04-22T08:48:54Z</time>
      </trkpt>
      <trkpt lat="48.16156" lon="6.43269">
        <ele>467.82</ele>
        <time>2012-04-22T08:49:11Z</time>
      </trkpt>
      <trkpt lat="48.16129" lon="6.43262">
        <ele>466.38</ele>
        <time>2012-04-22T08:49:25Z</time>
      </trkpt>
      <trkpt lat="48.16111" lon="6.43239">
        <ele>465.42</ele>
        <time>2012-04-22T08:49:37Z</time>
      </trkpt>
      <trkpt lat="48.161" lon="6.43226">
        <ele>464.93</ele>
        <time>2012-04-22T08:49:43Z</time>
      </trkpt>
      <trkpt lat="48.16065" lon="6.43198">
        <ele>463.97</ele>
        <time>2012-04-22T08:49:57Z</time>
      </trkpt>
      <trkpt lat="48.1604" lon="6.43165">
        <ele>460.61</ele>
        <time>2012-04-22T08:50:06Z</time>
      </trkpt>
      <trkpt lat="48.16036" lon="6.43161">
        <ele>460.61</ele>
        <time>2012-04-22T08:50:07Z</time>
      </trkpt>
      <trkpt lat="48.16033" lon="6.43158">
        <ele>460.61</ele>
        <time>2012-04-22T08:50:08Z</time>
      </trkpt>
      <trkpt lat="48.16023" lon="6.43145">
        <ele>460.13</ele>
        <time>2012-04-22T08:50:11Z</time>
      </trkpt>
      <trkpt lat="48.1602" lon="6.43142">
        <ele>459.65</ele>
        <time>2012-04-22T08:50:12Z</time>
      </trkpt>
      <trkpt lat="48.16012" lon="6.43134">
        <ele>459.65</ele>
        <time>2012-04-22T08:50:14Z</time>
      </trkpt>
      <trkpt lat="48.16009" lon="6.43129">
        <ele>459.65</ele>
        <time>2012-04-22T08:50:15Z</time>
      </trkpt>
      <trkpt lat="48.15976" lon="6.4308">
        <ele>456.76</ele>
        <time>2012-04-22T08:50:27Z</time>
      </trkpt>
      <trkpt lat="48.15955" lon="6.43053">
        <ele>455.32</ele>
        <time>2012-04-22T08:50:34Z</time>
      </trkpt>
      <trkpt lat="48.15952" lon="6.4305">
        <ele>455.32</ele>
        <time>2012-04-22T08:50:35Z</time>
      </trkpt>
      <trkpt lat="48.15922" lon="6.43006">
        <ele>453.88</ele>
        <time>2012-04-22T08:50:46Z</time>
      </trkpt>
      <trkpt lat="48.15919" lon="6.43001">
        <ele>454.36</ele>
        <time>2012-04-22T08:50:47Z</time>
      </trkpt>
      <trkpt lat="48.15917" lon="6.42996">
        <ele>454.36</ele>
        <time>2012-04-22T08:50:48Z</time>
      </trkpt>
      <trkpt lat="48.15914" lon="6.42991">
        <ele>454.36</ele>
        <time>2012-04-22T08:50:49Z</time>
      </trkpt>
      <trkpt lat="48.15913" lon="6.42986">
        <ele>454.36</ele>
        <time>2012-04-22T08:50:50Z</time>
      </trkpt>
      <trkpt lat="48.15886" lon="6.42923">
        <ele>453.4</ele>
        <time>2012-04-22T08:51:04Z</time>
      </trkpt>
      <trkpt lat="48.1588" lon="6.42899">
        <ele>453.4</ele>
        <time>2012-04-22T08:51:09Z</time>
      </trkpt>
      <trkpt lat="48.15879" lon="6.42892">
        <ele>453.88</ele>
        <time>2012-04-22T08:51:10Z</time>
      </trkpt>
      <trkpt lat="48.15878" lon="6.42887">
        <ele>453.4</ele>
        <time>2012-04-22T08:51:11Z</time>
      </trkpt>
      <trkpt lat="48.15878" lon="6.42882">
        <ele>453.4</ele>
        <time>2012-04-22T08:51:12Z</time>
      </trkpt>
      <trkpt lat="48.1588" lon="6.42877">
        <ele>452.92</ele>
        <time>2012-04-22T08:51:13Z</time>
      </trkpt>
      <trkpt lat="48.15883" lon="6.42873">
        <ele>452.92</ele>
        <time>2012-04-22T08:51:14Z</time>
      </trkpt>
      <trkpt lat="48.15885" lon="6.4287">
        <ele>452.92</ele>
        <time>2012-04-22T08:51:15Z</time>
      </trkpt>
      <trkpt lat="48.15926" lon="6.42826">
        <ele>452.92</ele>
        <time>2012-04-22T08:51:30Z</time>
      </trkpt>
      <trkpt lat="48.15928" lon="6.42823">
        <ele>452.92</ele>
        <time>2012-04-22T08:51:42Z</time>
      </trkpt>
      <trkpt lat="48.15936" lon="6.42816">
        <ele>456.76</ele>
        <time>2012-04-22T08:52:04Z</time>
      </trkpt>
      <trkpt lat="48.15975" lon="6.42767">
        <ele>460.61</ele>
        <time>2012-04-22T08:52:15Z</time>
      </trkpt>
      <trkpt lat="48.15979" lon="6.4276">
        <ele>460.61</ele>
        <time>2012-04-22T08:52:16Z</time>
      </trkpt>
      <trkpt lat="48.15982" lon="6.42753">
        <ele>461.09</ele>
        <time>2012-04-22T08:52:17Z</time>
      </trkpt>
      <trkpt lat="48.15984" lon="6.42744">
        <ele>461.09</ele>
        <time>2012-04-22T08:52:18Z</time>
      </trkpt>
      <trkpt lat="48.15985" lon="6.42734">
        <ele>461.09</ele>
        <time>2012-04-22T08:52:19Z</time>
      </trkpt>
      <trkpt lat="48.15984" lon="6.42723">
        <ele>461.09</ele>
        <time>2012-04-22T08:52:20Z</time>
      </trkpt>
      <trkpt lat="48.15982" lon="6.42712">
        <ele>461.09</ele>
        <time>2012-04-22T08:52:21Z</time>
      </trkpt>
      <trkpt lat="48.15981" lon="6.42702">
        <ele>460.61</ele>
        <time>2012-04-22T08:52:22Z</time>
      </trkpt>
      <trkpt lat="48.15979" lon="6.42694">
        <ele>460.61</ele>
        <time>2012-04-22T08:52:23Z</time>
      </trkpt>
      <trkpt lat="48.15976" lon="6.42686">
        <ele>460.61</ele>
        <time>2012-04-22T08:52:24Z</time>
      </trkpt>
      <trkpt lat="48.15969" lon="6.42672">
        <ele>460.13</ele>
        <time>2012-04-22T08:52:26Z</time>
      </trkpt>
      <trkpt lat="48.15966" lon="6.42667">
        <ele>460.13</ele>
        <time>2012-04-22T08:52:27Z</time>
      </trkpt>
      <trkpt lat="48.15962" lon="6.42662">
        <ele>459.65</ele>
        <time>2012-04-22T08:52:28Z</time>
      </trkpt>
      <trkpt lat="48.15959" lon="6.42658">
        <ele>459.65</ele>
        <time>2012-04-22T08:52:29Z</time>
      </trkpt>
      <trkpt lat="48.15957" lon="6.42654">
        <ele>459.17</ele>
        <time>2012-04-22T08:52:30Z</time>
      </trkpt>
      <trkpt lat="48.15951" lon="6.4264">
        <ele>460.13</ele>
        <time>2012-04-22T08:52:40Z</time>
      </trkpt>
      <trkpt lat="48.15948" lon="6.42632">
        <ele>462.53</ele>
        <time>2012-04-22T08:52:53Z</time>
      </trkpt>
      <trkpt lat="48.15944" lon="6.42628">
        <ele>462.53</ele>
        <time>2012-04-22T08:53:05Z</time>
      </trkpt>
      <trkpt lat="48.15943" lon="6.42632">
        <ele>461.09</ele>
        <time>2012-04-22T08:53:22Z</time>
      </trkpt>
      <trkpt lat="48.15948" lon="6.42634">
        <ele>460.13</ele>
        <time>2012-04-22T08:53:43Z</time>
      </trkpt>
      <trkpt lat="48.15949" lon="6.42635">
        <ele>460.13</ele>
        <time>2012-04-22T08:54:08Z</time>
      </trkpt>
      <trkpt lat="48.15951" lon="6.42637">
        <ele>459.65</ele>
        <time>2012-04-22T08:54:30Z</time>
      </trkpt>
      <trkpt lat="48.15948" lon="6.42636">
        <ele>460.61</ele>
        <time>2012-04-22T08:54:45Z</time>
      </trkpt>
      <trkpt lat="48.15947" lon="6.42637">
        <ele>461.09</ele>
        <time>2012-04-22T08:55:07Z</time>
      </trkpt>
      <trkpt lat="48.15945" lon="6.42635">
        <ele>461.57</ele>
        <time>2012-04-22T08:55:20Z</time>
      </trkpt>
      <trkpt lat="48.15944" lon="6.42637">
        <ele>462.05</ele>
        <time>2012-04-22T08:55:34Z</time>
      </trkpt>
      <trkpt lat="48.15946" lon="6.42629">
        <ele>462.05</ele>
        <time>2012-04-22T08:55:50Z</time>
      </trkpt>
      <trkpt lat="48.15947" lon="6.42628">
        <ele>461.57</ele>
        <time>2012-04-22T08:56:04Z</time>
      </trkpt>
      <trkpt lat="48.15948" lon="6.42635">
        <ele>458.69</ele>
        <time>2012-04-22T08:56:28Z</time>
      </trkpt>
      <trkpt lat="48.15947" lon="6.42634">
        <ele>458.21</ele>
        <time>2012-04-22T08:56:50Z</time>
      </trkpt>
      <trkpt lat="48.15947" lon="6.4263">
        <ele>457.24</ele>
        <time>2012-04-22T08:57:13Z</time>
      </trkpt>
      <trkpt lat="48.15947" lon="6.42629">
        <ele>457.72</ele>
        <time>2012-04-22T08:57:34Z</time>
      </trkpt>
      <trkpt lat="48.15947" lon="6.4263">
        <ele>460.13</ele>
        <time>2012-04-22T08:57:47Z</time>
      </trkpt>
      <trkpt lat="48.15948" lon="6.42628">
        <ele>462.05</ele>
        <time>2012-04-22T08:57:58Z</time>
      </trkpt>
      <trkpt lat="48.15949" lon="6.42626">
        <ele>461.09</ele>
        <time>2012-04-22T08:58:06Z</time>
      </trkpt>
      <trkpt lat="48.15948" lon="6.42624">
        <ele>461.57</ele>
        <time>2012-04-22T08:58:08Z</time>
      </trkpt>
      <trkpt lat="48.15947" lon="6.42622">
        <ele>462.05</ele>
        <time>2012-04-22T08:58:09Z</time>
      </trkpt>
      <trkpt lat="48.15945" lon="6.4262">
        <ele>462.53</ele>
        <time>2012-04-22T08:58:10Z</time>
      </trkpt>
      <trkpt lat="48.15943" lon="6.42618">
        <ele>463.49</ele>
        <time>2012-04-22T08:58:11Z</time>
      </trkpt>
      <trkpt lat="48.1594" lon="6.42615">
        <ele>463.97</ele>
        <time>2012-04-22T08:58:12Z</time>
      </trkpt>
      <trkpt lat="48.15936" lon="6.42611">
        <ele>464.93</ele>
        <time>2012-04-22T08:58:13Z</time>
      </trkpt>
      <trkpt lat="48.15892" lon="6.42558">
        <ele>465.42</ele>
        <time>2012-04-22T08:58:25Z</time>
      </trkpt>
      <trkpt lat="48.15888" lon="6.42555">
        <ele>465.42</ele>
        <time>2012-04-22T08:58:26Z</time>
      </trkpt>
      <trkpt lat="48.15885" lon="6.42553">
        <ele>465.9</ele>
        <time>2012-04-22T08:58:27Z</time>
      </trkpt>
      <trkpt lat="48.15878" lon="6.42548">
        <ele>466.38</ele>
        <time>2012-04-22T08:58:29Z</time>
      </trkpt>
      <trkpt lat="48.15874" lon="6.42545">
        <ele>466.86</ele>
        <time>2012-04-22T08:58:30Z</time>
      </trkpt>
      <trkpt lat="48.1587" lon="6.4254">
        <ele>467.34</ele>
        <time>2012-04-22T08:58:31Z</time>
      </trkpt>
      <trkpt lat="48.15867" lon="6.42535">
        <ele>467.82</ele>
        <time>2012-04-22T08:58:32Z</time>
      </trkpt>
      <trkpt lat="48.15863" lon="6.42531">
        <ele>467.82</ele>
        <time>2012-04-22T08:58:33Z</time>
      </trkpt>
      <trkpt lat="48.1586" lon="6.42527">
        <ele>468.3</ele>
        <time>2012-04-22T08:58:34Z</time>
      </trkpt>
      <trkpt lat="48.1584" lon="6.42507">
        <ele>470.22</ele>
        <time>2012-04-22T08:58:40Z</time>
      </trkpt>
      <trkpt lat="48.15839" lon="6.42504">
        <ele>470.7</ele>
        <time>2012-04-22T08:58:41Z</time>
      </trkpt>
      <trkpt lat="48.15838" lon="6.42502">
        <ele>471.18</ele>
        <time>2012-04-22T08:58:42Z</time>
      </trkpt>
      <trkpt lat="48.15836" lon="6.425">
        <ele>471.66</ele>
        <time>2012-04-22T08:58:43Z</time>
      </trkpt>
      <trkpt lat="48.15834" lon="6.42498">
        <ele>472.14</ele>
        <time>2012-04-22T08:58:44Z</time>
      </trkpt>
      <trkpt lat="48.15833" lon="6.42496">
        <ele>472.63</ele>
        <time>2012-04-22T08:58:45Z</time>
      </trkpt>
      <trkpt lat="48.1583" lon="6.42494">
        <ele>473.11</ele>
        <time>2012-04-22T08:58:46Z</time>
      </trkpt>
      <trkpt lat="48.15828" lon="6.42492">
        <ele>473.59</ele>
        <time>2012-04-22T08:58:47Z</time>
      </trkpt>
      <trkpt lat="48.15813" lon="6.42462">
        <ele>478.87</ele>
        <time>2012-04-22T08:58:58Z</time>
      </trkpt>
      <trkpt lat="48.15787" lon="6.42433">
        <ele>477.91</ele>
        <time>2012-04-22T08:59:11Z</time>
      </trkpt>
      <trkpt lat="48.15769" lon="6.424">
        <ele>479.84</ele>
        <time>2012-04-22T08:59:24Z</time>
      </trkpt>
      <trkpt lat="48.1575" lon="6.42364">
        <ele>483.2</ele>
        <time>2012-04-22T08:59:34Z</time>
      </trkpt>
      <trkpt lat="48.15733" lon="6.42321">
        <ele>487.05</ele>
        <time>2012-04-22T08:59:46Z</time>
      </trkpt>
      <trkpt lat="48.1571" lon="6.42274">
        <ele>487.53</ele>
        <time>2012-04-22T08:59:55Z</time>
      </trkpt>
      <trkpt lat="48.15679" lon="6.42221">
        <ele>488.97</ele>
        <time>2012-04-22T09:00:06Z</time>
      </trkpt>
      <trkpt lat="48.15677" lon="6.42217">
        <ele>488.97</ele>
        <time>2012-04-22T09:00:07Z</time>
      </trkpt>
      <trkpt lat="48.15673" lon="6.42213">
        <ele>488.97</ele>
        <time>2012-04-22T09:00:08Z</time>
      </trkpt>
      <trkpt lat="48.1565" lon="6.42167">
        <ele>487.05</ele>
        <time>2012-04-22T09:00:19Z</time>
      </trkpt>
      <trkpt lat="48.15633" lon="6.42123">
        <ele>488.49</ele>
        <time>2012-04-22T09:00:33Z</time>
      </trkpt>
      <trkpt lat="48.15624" lon="6.42086">
        <ele>492.33</ele>
        <time>2012-04-22T09:00:43Z</time>
      </trkpt>
      <trkpt lat="48.15607" lon="6.42056">
        <ele>489.45</ele>
        <time>2012-04-22T09:00:53Z</time>
      </trkpt>
      <trkpt lat="48.15603" lon="6.42033">
        <ele>488.01</ele>
        <time>2012-04-22T09:00:58Z</time>
      </trkpt>
      <trkpt lat="48.15599" lon="6.4197">
        <ele>483.68</ele>
        <time>2012-04-22T09:01:11Z</time>
      </trkpt>
      <trkpt lat="48.15585" lon="6.41899">
        <ele>482.72</ele>
        <time>2012-04-22T09:01:24Z</time>
      </trkpt>
      <trkpt lat="48.15555" lon="6.41844">
        <ele>482.24</ele>
        <time>2012-04-22T09:01:36Z</time>
      </trkpt>
      <trkpt lat="48.15548" lon="6.41832">
        <ele>482.24</ele>
        <time>2012-04-22T09:01:39Z</time>
      </trkpt>
      <trkpt lat="48.15516" lon="6.41766">
        <ele>481.76</ele>
        <time>2012-04-22T09:01:53Z</time>
      </trkpt>
      <trkpt lat="48.155" lon="6.41729">
        <ele>480.32</ele>
        <time>2012-04-22T09:02:00Z</time>
      </trkpt>
      <trkpt lat="48.15485" lon="6.41702">
        <ele>479.84</ele>
        <time>2012-04-22T09:02:06Z</time>
      </trkpt>
      <trkpt lat="48.15471" lon="6.41677">
        <ele>479.35</ele>
        <time>2012-04-22T09:02:12Z</time>
      </trkpt>
      <trkpt lat="48.1545" lon="6.41613">
        <ele>478.39</ele>
        <time>2012-04-22T09:02:24Z</time>
      </trkpt>
      <trkpt lat="48.15418" lon="6.41561">
        <ele>478.39</ele>
        <time>2012-04-22T09:02:36Z</time>
      </trkpt>
      <trkpt lat="48.15395" lon="6.41516">
        <ele>479.35</ele>
        <time>2012-04-22T09:02:47Z</time>
      </trkpt>
      <trkpt lat="48.15383" lon="6.41492">
        <ele>478.87</ele>
        <time>2012-04-22T09:02:55Z</time>
      </trkpt>
      <trkpt lat="48.15356" lon="6.41485">
        <ele>481.76</ele>
        <time>2012-04-22T09:03:00Z</time>
      </trkpt>
      <trkpt lat="48.15353" lon="6.41481">
        <ele>482.72</ele>
        <time>2012-04-22T09:03:01Z</time>
      </trkpt>
      <trkpt lat="48.15341" lon="6.41466">
        <ele>483.2</ele>
        <time>2012-04-22T09:03:04Z</time>
      </trkpt>
      <trkpt lat="48.15337" lon="6.4146">
        <ele>483.2</ele>
        <time>2012-04-22T09:03:05Z</time>
      </trkpt>
      <trkpt lat="48.15333" lon="6.41455">
        <ele>482.72</ele>
        <time>2012-04-22T09:03:06Z</time>
      </trkpt>
      <trkpt lat="48.15293" lon="6.41376">
        <ele>483.2</ele>
        <time>2012-04-22T09:03:19Z</time>
      </trkpt>
      <trkpt lat="48.15269" lon="6.41323">
        <ele>482.72</ele>
        <time>2012-04-22T09:03:31Z</time>
      </trkpt>
      <trkpt lat="48.15266" lon="6.4128">
        <ele>482.24</ele>
        <time>2012-04-22T09:03:42Z</time>
      </trkpt>
      <trkpt lat="48.15273" lon="6.41252">
        <ele>483.2</ele>
        <time>2012-04-22T09:03:48Z</time>
      </trkpt>
      <trkpt lat="48.15264" lon="6.41201">
        <ele>483.68</ele>
        <time>2012-04-22T09:03:59Z</time>
      </trkpt>
      <trkpt lat="48.15256" lon="6.41181">
        <ele>484.16</ele>
        <time>2012-04-22T09:04:03Z</time>
      </trkpt>
      <trkpt lat="48.15229" lon="6.41131">
        <ele>483.68</ele>
        <time>2012-04-22T09:04:11Z</time>
      </trkpt>
      <trkpt lat="48.15224" lon="6.41127">
        <ele>483.68</ele>
        <time>2012-04-22T09:04:12Z</time>
      </trkpt>
      <trkpt lat="48.15219" lon="6.41123">
        <ele>483.2</ele>
        <time>2012-04-22T09:04:13Z</time>
      </trkpt>
      <trkpt lat="48.15214" lon="6.41119">
        <ele>483.2</ele>
        <time>2012-04-22T09:04:14Z</time>
      </trkpt>
      <trkpt lat="48.15209" lon="6.41113">
        <ele>483.2</ele>
        <time>2012-04-22T09:04:15Z</time>
      </trkpt>
      <trkpt lat="48.15204" lon="6.41108">
        <ele>482.72</ele>
        <time>2012-04-22T09:04:16Z</time>
      </trkpt>
      <trkpt lat="48.15199" lon="6.41104">
        <ele>482.72</ele>
        <time>2012-04-22T09:04:17Z</time>
      </trkpt>
      <trkpt lat="48.15194" lon="6.41099">
        <ele>482.72</ele>
        <time>2012-04-22T09:04:18Z</time>
      </trkpt>
      <trkpt lat="48.1519" lon="6.41093">
        <ele>482.72</ele>
        <time>2012-04-22T09:04:19Z</time>
      </trkpt>
      <trkpt lat="48.15187" lon="6.41086">
        <ele>482.24</ele>
        <time>2012-04-22T09:04:20Z</time>
      </trkpt>
      <trkpt lat="48.15184" lon="6.41079">
        <ele>482.24</ele>
        <time>2012-04-22T09:04:21Z</time>
      </trkpt>
      <trkpt lat="48.15182" lon="6.41071">
        <ele>481.76</ele>
        <time>2012-04-22T09:04:22Z</time>
      </trkpt>
      <trkpt lat="48.15168" lon="6.41029">
        <ele>479.84</ele>
        <time>2012-04-22T09:04:28Z</time>
      </trkpt>
      <trkpt lat="48.15168" lon="6.41022">
        <ele>479.35</ele>
        <time>2012-04-22T09:04:29Z</time>
      </trkpt>
      <trkpt lat="48.15169" lon="6.41016">
        <ele>479.35</ele>
        <time>2012-04-22T09:04:30Z</time>
      </trkpt>
      <trkpt lat="48.15168" lon="6.41009">
        <ele>479.35</ele>
        <time>2012-04-22T09:04:31Z</time>
      </trkpt>
      <trkpt lat="48.15168" lon="6.41001">
        <ele>478.87</ele>
        <time>2012-04-22T09:04:32Z</time>
      </trkpt>
      <trkpt lat="48.15168" lon="6.40994">
        <ele>478.87</ele>
        <time>2012-04-22T09:04:33Z</time>
      </trkpt>
      <trkpt lat="48.15168" lon="6.40986">
        <ele>478.87</ele>
        <time>2012-04-22T09:04:34Z</time>
      </trkpt>
      <trkpt lat="48.15169" lon="6.40977">
        <ele>478.87</ele>
        <time>2012-04-22T09:04:35Z</time>
      </trkpt>
      <trkpt lat="48.15169" lon="6.40969">
        <ele>478.39</ele>
        <time>2012-04-22T09:04:36Z</time>
      </trkpt>
      <trkpt lat="48.15167" lon="6.4096">
        <ele>478.39</ele>
        <time>2012-04-22T09:04:37Z</time>
      </trkpt>
      <trkpt lat="48.15167" lon="6.40952">
        <ele>477.91</ele>
        <time>2012-04-22T09:04:38Z</time>
      </trkpt>
      <trkpt lat="48.15168" lon="6.40946">
        <ele>477.43</ele>
        <time>2012-04-22T09:04:39Z</time>
      </trkpt>
      <trkpt lat="48.15166" lon="6.4094">
        <ele>476.95</ele>
        <time>2012-04-22T09:04:40Z</time>
      </trkpt>
      <trkpt lat="48.15165" lon="6.40934">
        <ele>476.47</ele>
        <time>2012-04-22T09:04:41Z</time>
      </trkpt>
      <trkpt lat="48.15163" lon="6.40927">
        <ele>475.99</ele>
        <time>2012-04-22T09:04:42Z</time>
      </trkpt>
      <trkpt lat="48.15161" lon="6.40922">
        <ele>475.51</ele>
        <time>2012-04-22T09:04:43Z</time>
      </trkpt>
      <trkpt lat="48.15158" lon="6.40916">
        <ele>475.03</ele>
        <time>2012-04-22T09:04:44Z</time>
      </trkpt>
      <trkpt lat="48.15156" lon="6.4091">
        <ele>475.03</ele>
        <time>2012-04-22T09:04:45Z</time>
      </trkpt>
      <trkpt lat="48.15153" lon="6.40874">
        <ele>472.63</ele>
        <time>2012-04-22T09:04:51Z</time>
      </trkpt>
      <trkpt lat="48.15151" lon="6.40867">
        <ele>472.14</ele>
        <time>2012-04-22T09:04:52Z</time>
      </trkpt>
      <trkpt lat="48.15148" lon="6.40861">
        <ele>472.14</ele>
        <time>2012-04-22T09:04:53Z</time>
      </trkpt>
      <trkpt lat="48.15144" lon="6.40857">
        <ele>471.66</ele>
        <time>2012-04-22T09:04:54Z</time>
      </trkpt>
      <trkpt lat="48.1514" lon="6.40854">
        <ele>471.66</ele>
        <time>2012-04-22T09:04:55Z</time>
      </trkpt>
      <trkpt lat="48.15111" lon="6.40842">
        <ele>470.7</ele>
        <time>2012-04-22T09:05:01Z</time>
      </trkpt>
      <trkpt lat="48.15106" lon="6.40839">
        <ele>470.7</ele>
        <time>2012-04-22T09:05:02Z</time>
      </trkpt>
      <trkpt lat="48.15102" lon="6.40835">
        <ele>470.7</ele>
        <time>2012-04-22T09:05:03Z</time>
      </trkpt>
      <trkpt lat="48.15078" lon="6.40796">
        <ele>468.78</ele>
        <time>2012-04-22T09:05:12Z</time>
      </trkpt>
      <trkpt lat="48.15058" lon="6.40754">
        <ele>467.34</ele>
        <time>2012-04-22T09:05:21Z</time>
      </trkpt>
      <trkpt lat="48.15049" lon="6.40726">
        <ele>468.78</ele>
        <time>2012-04-22T09:05:29Z</time>
      </trkpt>
      <trkpt lat="48.15048" lon="6.40724">
        <ele>469.26</ele>
        <time>2012-04-22T09:05:30Z</time>
      </trkpt>
      <trkpt lat="48.15038" lon="6.40711">
        <ele>471.18</ele>
        <time>2012-04-22T09:05:35Z</time>
      </trkpt>
      <trkpt lat="48.15024" lon="6.40677">
        <ele>472.14</ele>
        <time>2012-04-22T09:05:40Z</time>
      </trkpt>
      <trkpt lat="48.15003" lon="6.40631">
        <ele>473.59</ele>
        <time>2012-04-22T09:05:46Z</time>
      </trkpt>
      <trkpt lat="48.14965" lon="6.40537">
        <ele>472.14</ele>
        <time>2012-04-22T09:05:56Z</time>
      </trkpt>
      <trkpt lat="48.14961" lon="6.40522">
        <ele>471.66</ele>
        <time>2012-04-22T09:05:58Z</time>
      </trkpt>
      <trkpt lat="48.14958" lon="6.40517">
        <ele>471.18</ele>
        <time>2012-04-22T09:05:59Z</time>
      </trkpt>
      <trkpt lat="48.14948" lon="6.40497">
        <ele>470.22</ele>
        <time>2012-04-22T09:06:04Z</time>
      </trkpt>
      <trkpt lat="48.14944" lon="6.40493">
        <ele>470.22</ele>
        <time>2012-04-22T09:06:05Z</time>
      </trkpt>
      <trkpt lat="48.1494" lon="6.40491">
        <ele>470.22</ele>
        <time>2012-04-22T09:06:06Z</time>
      </trkpt>
      <trkpt lat="48.14935" lon="6.40489">
        <ele>470.7</ele>
        <time>2012-04-22T09:06:07Z</time>
      </trkpt>
      <trkpt lat="48.1493" lon="6.40487">
        <ele>471.18</ele>
        <time>2012-04-22T09:06:08Z</time>
      </trkpt>
      <trkpt lat="48.14926" lon="6.40484">
        <ele>471.18</ele>
        <time>2012-04-22T09:06:09Z</time>
      </trkpt>
      <trkpt lat="48.14922" lon="6.40479">
        <ele>471.18</ele>
        <time>2012-04-22T09:06:10Z</time>
      </trkpt>
      <trkpt lat="48.14918" lon="6.40475">
        <ele>471.66</ele>
        <time>2012-04-22T09:06:11Z</time>
      </trkpt>
      <trkpt lat="48.14914" lon="6.4047">
        <ele>471.66</ele>
        <time>2012-04-22T09:06:12Z</time>
      </trkpt>
      <trkpt lat="48.1491" lon="6.40464">
        <ele>471.66</ele>
        <time>2012-04-22T09:06:13Z</time>
      </trkpt>
      <trkpt lat="48.14907" lon="6.40456">
        <ele>471.66</ele>
        <time>2012-04-22T09:06:14Z</time>
      </trkpt>
      <trkpt lat="48.14905" lon="6.40449">
        <ele>471.66</ele>
        <time>2012-04-22T09:06:15Z</time>
      </trkpt>
      <trkpt lat="48.14899" lon="6.40436">
        <ele>471.66</ele>
        <time>2012-04-22T09:06:17Z</time>
      </trkpt>
      <trkpt lat="48.14895" lon="6.40431">
        <ele>472.14</ele>
        <time>2012-04-22T09:06:18Z</time>
      </trkpt>
      <trkpt lat="48.14892" lon="6.40425">
        <ele>472.14</ele>
        <time>2012-04-22T09:06:19Z</time>
      </trkpt>
      <trkpt lat="48.14888" lon="6.40419">
        <ele>472.63</ele>
        <time>2012-04-22T09:06:20Z</time>
      </trkpt>
      <trkpt lat="48.14883" lon="6.40414">
        <ele>472.63</ele>
        <time>2012-04-22T09:06:21Z</time>
      </trkpt>
      <trkpt lat="48.14878" lon="6.40409">
        <ele>472.63</ele>
        <time>2012-04-22T09:06:22Z</time>
      </trkpt>
      <trkpt lat="48.14874" lon="6.40405">
        <ele>473.11</ele>
        <time>2012-04-22T09:06:23Z</time>
      </trkpt>
      <trkpt lat="48.14869" lon="6.40401">
        <ele>473.59</ele>
        <time>2012-04-22T09:06:24Z</time>
      </trkpt>
      <trkpt lat="48.14864" lon="6.40394">
        <ele>473.59</ele>
        <time>2012-04-22T09:06:25Z</time>
      </trkpt>
      <trkpt lat="48.14858" lon="6.40384">
        <ele>473.59</ele>
        <time>2012-04-22T09:06:26Z</time>
      </trkpt>
      <trkpt lat="48.14854" lon="6.40375">
        <ele>473.11</ele>
        <time>2012-04-22T09:06:27Z</time>
      </trkpt>
      <trkpt lat="48.14849" lon="6.40366">
        <ele>472.63</ele>
        <time>2012-04-22T09:06:28Z</time>
      </trkpt>
      <trkpt lat="48.14846" lon="6.4036">
        <ele>472.14</ele>
        <time>2012-04-22T09:06:29Z</time>
      </trkpt>
      <trkpt lat="48.14844" lon="6.40356">
        <ele>471.66</ele>
        <time>2012-04-22T09:06:30Z</time>
      </trkpt>
      <trkpt lat="48.14845" lon="6.40354">
        <ele>470.7</ele>
        <time>2012-04-22T09:06:31Z</time>
      </trkpt>
      <trkpt lat="48.14847" lon="6.40352">
        <ele>470.7</ele>
        <time>2012-04-22T09:06:32Z</time>
      </trkpt>
      <trkpt lat="48.1485" lon="6.40347">
        <ele>471.18</ele>
        <time>2012-04-22T09:06:33Z</time>
      </trkpt>
      <trkpt lat="48.14858" lon="6.40332">
        <ele>471.66</ele>
        <time>2012-04-22T09:06:36Z</time>
      </trkpt>
      <trkpt lat="48.14865" lon="6.40311">
        <ele>472.63</ele>
        <time>2012-04-22T09:06:39Z</time>
      </trkpt>
      <trkpt lat="48.14865" lon="6.40303">
        <ele>473.11</ele>
        <time>2012-04-22T09:06:40Z</time>
      </trkpt>
      <trkpt lat="48.14866" lon="6.40295">
        <ele>473.59</ele>
        <time>2012-04-22T09:06:41Z</time>
      </trkpt>
      <trkpt lat="48.14866" lon="6.40286">
        <ele>473.11</ele>
        <time>2012-04-22T09:06:42Z</time>
      </trkpt>
      <trkpt lat="48.14867" lon="6.40278">
        <ele>473.11</ele>
        <time>2012-04-22T09:06:43Z</time>
      </trkpt>
      <trkpt lat="48.14869" lon="6.40271">
        <ele>473.11</ele>
        <time>2012-04-22T09:06:44Z</time>
      </trkpt>
      <trkpt lat="48.14871" lon="6.40265">
        <ele>473.11</ele>
        <time>2012-04-22T09:06:45Z</time>
      </trkpt>
      <trkpt lat="48.14875" lon="6.4026">
        <ele>473.11</ele>
        <time>2012-04-22T09:06:46Z</time>
      </trkpt>
      <trkpt lat="48.14878" lon="6.40256">
        <ele>473.59</ele>
        <time>2012-04-22T09:06:47Z</time>
      </trkpt>
      <trkpt lat="48.14881" lon="6.40252">
        <ele>473.59</ele>
        <time>2012-04-22T09:06:48Z</time>
      </trkpt>
      <trkpt lat="48.14936" lon="6.40194">
        <ele>475.03</ele>
        <time>2012-04-22T09:06:57Z</time>
      </trkpt>
      <trkpt lat="48.14956" lon="6.40173">
        <ele>475.99</ele>
        <time>2012-04-22T09:07:00Z</time>
      </trkpt>
      <trkpt lat="48.1498" lon="6.40138">
        <ele>475.51</ele>
        <time>2012-04-22T09:07:04Z</time>
      </trkpt>
      <trkpt lat="48.15012" lon="6.40098">
        <ele>474.07</ele>
        <time>2012-04-22T09:07:09Z</time>
      </trkpt>
      <trkpt lat="48.15027" lon="6.4009">
        <ele>473.59</ele>
        <time>2012-04-22T09:07:11Z</time>
      </trkpt>
      <trkpt lat="48.15065" lon="6.40083">
        <ele>472.63</ele>
        <time>2012-04-22T09:07:16Z</time>
      </trkpt>
      <trkpt lat="48.15096" lon="6.40068">
        <ele>471.66</ele>
        <time>2012-04-22T09:07:21Z</time>
      </trkpt>
      <trkpt lat="48.15101" lon="6.40063">
        <ele>471.18</ele>
        <time>2012-04-22T09:07:22Z</time>
      </trkpt>
      <trkpt lat="48.15107" lon="6.40058">
        <ele>471.18</ele>
        <time>2012-04-22T09:07:23Z</time>
      </trkpt>
      <trkpt lat="48.15123" lon="6.40044">
        <ele>471.18</ele>
        <time>2012-04-22T09:07:26Z</time>
      </trkpt>
      <trkpt lat="48.15183" lon="6.40007">
        <ele>470.7</ele>
        <time>2012-04-22T09:07:35Z</time>
      </trkpt>
      <trkpt lat="48.15265" lon="6.39993">
        <ele>470.22</ele>
        <time>2012-04-22T09:07:47Z</time>
      </trkpt>
      <trkpt lat="48.15297" lon="6.39996">
        <ele>469.26</ele>
        <time>2012-04-22T09:07:51Z</time>
      </trkpt>
      <trkpt lat="48.15318" lon="6.39992">
        <ele>468.3</ele>
        <time>2012-04-22T09:07:54Z</time>
      </trkpt>
      <trkpt lat="48.15371" lon="6.39961">
        <ele>467.34</ele>
        <time>2012-04-22T09:08:03Z</time>
      </trkpt>
      <trkpt lat="48.15376" lon="6.39957">
        <ele>467.34</ele>
        <time>2012-04-22T09:08:04Z</time>
      </trkpt>
      <trkpt lat="48.15419" lon="6.39927">
        <ele>467.82</ele>
        <time>2012-04-22T09:08:15Z</time>
      </trkpt>
      <trkpt lat="48.15426" lon="6.39925">
        <ele>467.34</ele>
        <time>2012-04-22T09:08:17Z</time>
      </trkpt>
      <trkpt lat="48.15428" lon="6.39925">
        <ele>467.34</ele>
        <time>2012-04-22T09:08:18Z</time>
      </trkpt>
      <trkpt lat="48.15433" lon="6.39924">
        <ele>467.34</ele>
        <time>2012-04-22T09:08:21Z</time>
      </trkpt>
      <trkpt lat="48.15438" lon="6.39923">
        <ele>467.34</ele>
        <time>2012-04-22T09:08:23Z</time>
      </trkpt>
      <trkpt lat="48.15441" lon="6.39923">
        <ele>467.82</ele>
        <time>2012-04-22T09:08:24Z</time>
      </trkpt>
      <trkpt lat="48.15445" lon="6.39924">
        <ele>468.3</ele>
        <time>2012-04-22T09:08:25Z</time>
      </trkpt>
      <trkpt lat="48.15481" lon="6.39929">
        <ele>470.22</ele>
        <time>2012-04-22T09:08:36Z</time>
      </trkpt>
      <trkpt lat="48.15496" lon="6.39915">
        <ele>463.49</ele>
        <time>2012-04-22T09:08:49Z</time>
      </trkpt>
      <trkpt lat="48.15505" lon="6.39897">
        <ele>461.09</ele>
        <time>2012-04-22T09:09:01Z</time>
      </trkpt>
      <trkpt lat="48.15511" lon="6.39875">
        <ele>453.88</ele>
        <time>2012-04-22T09:09:14Z</time>
      </trkpt>
      <trkpt lat="48.15518" lon="6.39848">
        <ele>451.96</ele>
        <time>2012-04-22T09:09:27Z</time>
      </trkpt>
      <trkpt lat="48.15529" lon="6.39836">
        <ele>451</ele>
        <time>2012-04-22T09:09:38Z</time>
      </trkpt>
      <trkpt lat="48.1554" lon="6.39827">
        <ele>451.48</ele>
        <time>2012-04-22T09:09:50Z</time>
      </trkpt>
      <trkpt lat="48.15551" lon="6.39817">
        <ele>456.28</ele>
        <time>2012-04-22T09:10:03Z</time>
      </trkpt>
      <trkpt lat="48.15563" lon="6.39814">
        <ele>462.05</ele>
        <time>2012-04-22T09:10:19Z</time>
      </trkpt>
      <trkpt lat="48.1558" lon="6.39812">
        <ele>460.61</ele>
        <time>2012-04-22T09:10:32Z</time>
      </trkpt>
      <trkpt lat="48.15589" lon="6.39802">
        <ele>460.13</ele>
        <time>2012-04-22T09:10:45Z</time>
      </trkpt>
      <trkpt lat="48.15594" lon="6.39794">
        <ele>462.05</ele>
        <time>2012-04-22T09:10:52Z</time>
      </trkpt>
      <trkpt lat="48.15601" lon="6.39789">
        <ele>463.97</ele>
        <time>2012-04-22T09:11:03Z</time>
      </trkpt>
      <trkpt lat="48.15609" lon="6.39782">
        <ele>463.97</ele>
        <time>2012-04-22T09:11:15Z</time>
      </trkpt>
      <trkpt lat="48.15613" lon="6.39779">
        <ele>468.3</ele>
        <time>2012-04-22T09:11:31Z</time>
      </trkpt>
      <trkpt lat="48.15617" lon="6.39768">
        <ele>469.74</ele>
        <time>2012-04-22T09:11:35Z</time>
      </trkpt>
      <trkpt lat="48.15618" lon="6.39763">
        <ele>469.74</ele>
        <time>2012-04-22T09:11:36Z</time>
      </trkpt>
      <trkpt lat="48.15624" lon="6.39719">
        <ele>467.34</ele>
        <time>2012-04-22T09:11:46Z</time>
      </trkpt>
      <trkpt lat="48.15626" lon="6.39712">
        <ele>460.61</ele>
        <time>2012-04-22T09:12:00Z</time>
      </trkpt>
      <trkpt lat="48.15619" lon="6.39698">
        <ele>457.72</ele>
        <time>2012-04-22T09:12:09Z</time>
      </trkpt>
      <trkpt lat="48.15593" lon="6.39702">
        <ele>459.17</ele>
        <time>2012-04-22T09:12:23Z</time>
      </trkpt>
      <trkpt lat="48.15584" lon="6.39704">
        <ele>460.13</ele>
        <time>2012-04-22T09:12:27Z</time>
      </trkpt>
      <trkpt lat="48.15558" lon="6.397">
        <ele>459.65</ele>
        <time>2012-04-22T09:12:40Z</time>
      </trkpt>
      <trkpt lat="48.15524" lon="6.39677">
        <ele>458.69</ele>
        <time>2012-04-22T09:12:54Z</time>
      </trkpt>
      <trkpt lat="48.15503" lon="6.39662">
        <ele>459.17</ele>
        <time>2012-04-22T09:13:04Z</time>
      </trkpt>
      <trkpt lat="48.15471" lon="6.39644">
        <ele>456.76</ele>
        <time>2012-04-22T09:13:15Z</time>
      </trkpt>
      <trkpt lat="48.15448" lon="6.39616">
        <ele>455.32</ele>
        <time>2012-04-22T09:13:21Z</time>
      </trkpt>
      <trkpt lat="48.15437" lon="6.39572">
        <ele>450.03</ele>
        <time>2012-04-22T09:13:35Z</time>
      </trkpt>
      <trkpt lat="48.15431" lon="6.39528">
        <ele>448.11</ele>
        <time>2012-04-22T09:13:47Z</time>
      </trkpt>
      <trkpt lat="48.1542" lon="6.3948">
        <ele>445.23</ele>
        <time>2012-04-22T09:14:02Z</time>
      </trkpt>
      <trkpt lat="48.15388" lon="6.39447">
        <ele>446.19</ele>
        <time>2012-04-22T09:14:16Z</time>
      </trkpt>
      <trkpt lat="48.15371" lon="6.39394">
        <ele>446.67</ele>
        <time>2012-04-22T09:14:29Z</time>
      </trkpt>
      <trkpt lat="48.15342" lon="6.39337">
        <ele>448.11</ele>
        <time>2012-04-22T09:14:42Z</time>
      </trkpt>
      <trkpt lat="48.15299" lon="6.39303">
        <ele>449.55</ele>
        <time>2012-04-22T09:14:56Z</time>
      </trkpt>
      <trkpt lat="48.15282" lon="6.39273">
        <ele>449.55</ele>
        <time>2012-04-22T09:15:05Z</time>
      </trkpt>
      <trkpt lat="48.1527" lon="6.39232">
        <ele>449.07</ele>
        <time>2012-04-22T09:15:16Z</time>
      </trkpt>
      <trkpt lat="48.1526" lon="6.39222">
        <ele>450.52</ele>
        <time>2012-04-22T09:15:22Z</time>
      </trkpt>
      <trkpt lat="48.1525" lon="6.39208">
        <ele>451.96</ele>
        <time>2012-04-22T09:15:26Z</time>
      </trkpt>
      <trkpt lat="48.15243" lon="6.39201">
        <ele>452.44</ele>
        <time>2012-04-22T09:15:28Z</time>
      </trkpt>
      <trkpt lat="48.15219" lon="6.39184">
        <ele>450.52</ele>
        <time>2012-04-22T09:15:39Z</time>
      </trkpt>
      <trkpt lat="48.15217" lon="6.39178">
        <ele>452.44</ele>
        <time>2012-04-22T09:15:42Z</time>
      </trkpt>
      <trkpt lat="48.15215" lon="6.39174">
        <ele>453.4</ele>
        <time>2012-04-22T09:15:44Z</time>
      </trkpt>
      <trkpt lat="48.15195" lon="6.39163">
        <ele>458.21</ele>
        <time>2012-04-22T09:15:53Z</time>
      </trkpt>
      <trkpt lat="48.15121" lon="6.39145">
        <ele>459.17</ele>
        <time>2012-04-22T09:16:07Z</time>
      </trkpt>
      <trkpt lat="48.15115" lon="6.39145">
        <ele>459.17</ele>
        <time>2012-04-22T09:16:08Z</time>
      </trkpt>
      <trkpt lat="48.15071" lon="6.39143">
        <ele>458.69</ele>
        <time>2012-04-22T09:16:19Z</time>
      </trkpt>
      <trkpt lat="48.15" lon="6.3914">
        <ele>479.35</ele>
        <time>2012-04-22T09:16:21Z</time>
      </trkpt>
      <trkpt lat="48.14994" lon="6.39148">
        <ele>473.59</ele>
        <time>2012-04-22T09:16:22Z</time>
      </trkpt>
      <trkpt lat="48.14979" lon="6.3916">
        <ele>467.82</ele>
        <time>2012-04-22T09:16:25Z</time>
      </trkpt>
      <trkpt lat="48.14964" lon="6.39169">
        <ele>465.42</ele>
        <time>2012-04-22T09:16:28Z</time>
      </trkpt>
      <trkpt lat="48.14959" lon="6.39172">
        <ele>465.42</ele>
        <time>2012-04-22T09:16:29Z</time>
      </trkpt>
      <trkpt lat="48.14874" lon="6.39256">
        <ele>460.61</ele>
        <time>2012-04-22T09:16:46Z</time>
      </trkpt>
      <trkpt lat="48.14821" lon="6.39318">
        <ele>459.65</ele>
        <time>2012-04-22T09:16:58Z</time>
      </trkpt>
      <trkpt lat="48.14807" lon="6.39329">
        <ele>459.65</ele>
        <time>2012-04-22T09:17:01Z</time>
      </trkpt>
      <trkpt lat="48.14803" lon="6.39332">
        <ele>459.65</ele>
        <time>2012-04-22T09:17:02Z</time>
      </trkpt>
      <trkpt lat="48.14747" lon="6.3936">
        <ele>460.61</ele>
        <time>2012-04-22T09:17:13Z</time>
      </trkpt>
      <trkpt lat="48.14742" lon="6.39361">
        <ele>461.09</ele>
        <time>2012-04-22T09:17:14Z</time>
      </trkpt>
      <trkpt lat="48.14738" lon="6.39363">
        <ele>461.09</ele>
        <time>2012-04-22T09:17:15Z</time>
      </trkpt>
      <trkpt lat="48.14665" lon="6.39401">
        <ele>463.49</ele>
        <time>2012-04-22T09:17:30Z</time>
      </trkpt>
      <trkpt lat="48.14618" lon="6.39418">
        <ele>464.93</ele>
        <time>2012-04-22T09:17:40Z</time>
      </trkpt>
      <trkpt lat="48.14576" lon="6.39415">
        <ele>466.86</ele>
        <time>2012-04-22T09:17:48Z</time>
      </trkpt>
      <trkpt lat="48.14507" lon="6.39394">
        <ele>470.22</ele>
        <time>2012-04-22T09:18:00Z</time>
      </trkpt>
      <trkpt lat="48.14501" lon="6.39391">
        <ele>470.22</ele>
        <time>2012-04-22T09:18:01Z</time>
      </trkpt>
      <trkpt lat="48.14467" lon="6.39384">
        <ele>472.14</ele>
        <time>2012-04-22T09:18:07Z</time>
      </trkpt>
      <trkpt lat="48.14462" lon="6.39382">
        <ele>472.14</ele>
        <time>2012-04-22T09:18:08Z</time>
      </trkpt>
      <trkpt lat="48.14458" lon="6.39381">
        <ele>472.63</ele>
        <time>2012-04-22T09:18:09Z</time>
      </trkpt>
      <trkpt lat="48.14448" lon="6.39379">
        <ele>473.11</ele>
        <time>2012-04-22T09:18:11Z</time>
      </trkpt>
      <trkpt lat="48.14415" lon="6.39371">
        <ele>474.07</ele>
        <time>2012-04-22T09:18:17Z</time>
      </trkpt>
      <trkpt lat="48.1441" lon="6.39369">
        <ele>474.07</ele>
        <time>2012-04-22T09:18:18Z</time>
      </trkpt>
      <trkpt lat="48.14382" lon="6.3936">
        <ele>475.51</ele>
        <time>2012-04-22T09:18:24Z</time>
      </trkpt>
      <trkpt lat="48.14377" lon="6.39359">
        <ele>475.51</ele>
        <time>2012-04-22T09:18:25Z</time>
      </trkpt>
      <trkpt lat="48.14342" lon="6.39343">
        <ele>478.39</ele>
        <time>2012-04-22T09:18:34Z</time>
      </trkpt>
      <trkpt lat="48.1434" lon="6.39339">
        <ele>478.39</ele>
        <time>2012-04-22T09:18:35Z</time>
      </trkpt>
      <trkpt lat="48.14338" lon="6.39334">
        <ele>478.39</ele>
        <time>2012-04-22T09:18:36Z</time>
      </trkpt>
      <trkpt lat="48.14336" lon="6.39329">
        <ele>478.87</ele>
        <time>2012-04-22T09:18:37Z</time>
      </trkpt>
      <trkpt lat="48.14333" lon="6.39324">
        <ele>478.87</ele>
        <time>2012-04-22T09:18:38Z</time>
      </trkpt>
      <trkpt lat="48.14311" lon="6.39283">
        <ele>480.8</ele>
        <time>2012-04-22T09:18:47Z</time>
      </trkpt>
      <trkpt lat="48.14302" lon="6.39248">
        <ele>481.28</ele>
        <time>2012-04-22T09:18:53Z</time>
      </trkpt>
      <trkpt lat="48.14258" lon="6.39137">
        <ele>482.72</ele>
        <time>2012-04-22T09:19:06Z</time>
      </trkpt>
      <trkpt lat="48.14255" lon="6.39132">
        <ele>483.2</ele>
        <time>2012-04-22T09:19:07Z</time>
      </trkpt>
      <trkpt lat="48.14244" lon="6.39129">
        <ele>484.64</ele>
        <time>2012-04-22T09:19:10Z</time>
      </trkpt>
      <trkpt lat="48.14193" lon="6.39152">
        <ele>491.37</ele>
        <time>2012-04-22T09:19:25Z</time>
      </trkpt>
      <trkpt lat="48.1415" lon="6.39183">
        <ele>496.66</ele>
        <time>2012-04-22T09:19:39Z</time>
      </trkpt>
      <trkpt lat="48.14106" lon="6.39223">
        <ele>499.54</ele>
        <time>2012-04-22T09:19:52Z</time>
      </trkpt>
      <trkpt lat="48.14094" lon="6.39233">
        <ele>499.54</ele>
        <time>2012-04-22T09:19:55Z</time>
      </trkpt>
      <trkpt lat="48.1409" lon="6.39236">
        <ele>499.06</ele>
        <time>2012-04-22T09:19:56Z</time>
      </trkpt>
      <trkpt lat="48.14049" lon="6.39268">
        <ele>500.02</ele>
        <time>2012-04-22T09:20:07Z</time>
      </trkpt>
      <trkpt lat="48.14045" lon="6.3927">
        <ele>500.02</ele>
        <time>2012-04-22T09:20:08Z</time>
      </trkpt>
      <trkpt lat="48.1403" lon="6.39279">
        <ele>499.54</ele>
        <time>2012-04-22T09:20:12Z</time>
      </trkpt>
      <trkpt lat="48.14025" lon="6.39279">
        <ele>500.02</ele>
        <time>2012-04-22T09:20:13Z</time>
      </trkpt>
      <trkpt lat="48.1402" lon="6.39278">
        <ele>500.02</ele>
        <time>2012-04-22T09:20:14Z</time>
      </trkpt>
      <trkpt lat="48.14016" lon="6.39277">
        <ele>500.02</ele>
        <time>2012-04-22T09:20:15Z</time>
      </trkpt>
      <trkpt lat="48.14011" lon="6.39276">
        <ele>499.54</ele>
        <time>2012-04-22T09:20:16Z</time>
      </trkpt>
      <trkpt lat="48.14002" lon="6.39276">
        <ele>498.1</ele>
        <time>2012-04-22T09:20:18Z</time>
      </trkpt>
      <trkpt lat="48.13992" lon="6.39276">
        <ele>495.7</ele>
        <time>2012-04-22T09:20:20Z</time>
      </trkpt>
      <trkpt lat="48.13987" lon="6.39275">
        <ele>494.26</ele>
        <time>2012-04-22T09:20:21Z</time>
      </trkpt>
      <trkpt lat="48.13983" lon="6.39274">
        <ele>493.77</ele>
        <time>2012-04-22T09:20:22Z</time>
      </trkpt>
      <trkpt lat="48.13922" lon="6.39265">
        <ele>486.56</ele>
        <time>2012-04-22T09:20:37Z</time>
      </trkpt>
      <trkpt lat="48.13884" lon="6.39282">
        <ele>482.72</ele>
        <time>2012-04-22T09:20:51Z</time>
      </trkpt>
      <trkpt lat="48.13847" lon="6.393">
        <ele>480.8</ele>
        <time>2012-04-22T09:21:04Z</time>
      </trkpt>
      <trkpt lat="48.1381" lon="6.39335">
        <ele>480.32</ele>
        <time>2012-04-22T09:21:17Z</time>
      </trkpt>
      <trkpt lat="48.13767" lon="6.39381">
        <ele>476.95</ele>
        <time>2012-04-22T09:21:30Z</time>
      </trkpt>
      <trkpt lat="48.13764" lon="6.39386">
        <ele>476.47</ele>
        <time>2012-04-22T09:21:31Z</time>
      </trkpt>
      <trkpt lat="48.13761" lon="6.3939">
        <ele>476.47</ele>
        <time>2012-04-22T09:21:32Z</time>
      </trkpt>
      <trkpt lat="48.13758" lon="6.39392">
        <ele>476.47</ele>
        <time>2012-04-22T09:21:33Z</time>
      </trkpt>
      <trkpt lat="48.13755" lon="6.39393">
        <ele>475.99</ele>
        <time>2012-04-22T09:21:34Z</time>
      </trkpt>
      <trkpt lat="48.13752" lon="6.39393">
        <ele>475.51</ele>
        <time>2012-04-22T09:21:35Z</time>
      </trkpt>
      <trkpt lat="48.13749" lon="6.39392">
        <ele>474.55</ele>
        <time>2012-04-22T09:21:36Z</time>
      </trkpt>
      <trkpt lat="48.13745" lon="6.3939">
        <ele>473.59</ele>
        <time>2012-04-22T09:21:37Z</time>
      </trkpt>
      <trkpt lat="48.13742" lon="6.39388">
        <ele>472.63</ele>
        <time>2012-04-22T09:21:38Z</time>
      </trkpt>
      <trkpt lat="48.13738" lon="6.39385">
        <ele>471.66</ele>
        <time>2012-04-22T09:21:39Z</time>
      </trkpt>
      <trkpt lat="48.13734" lon="6.39383">
        <ele>471.18</ele>
        <time>2012-04-22T09:21:40Z</time>
      </trkpt>
      <trkpt lat="48.13725" lon="6.39376">
        <ele>469.74</ele>
        <time>2012-04-22T09:21:42Z</time>
      </trkpt>
      <trkpt lat="48.13683" lon="6.3935">
        <ele>466.38</ele>
        <time>2012-04-22T09:21:53Z</time>
      </trkpt>
      <trkpt lat="48.13679" lon="6.39347">
        <ele>465.9</ele>
        <time>2012-04-22T09:21:54Z</time>
      </trkpt>
      <trkpt lat="48.13634" lon="6.39331">
        <ele>463.97</ele>
        <time>2012-04-22T09:22:06Z</time>
      </trkpt>
      <trkpt lat="48.13586" lon="6.3933">
        <ele>463.01</ele>
        <time>2012-04-22T09:22:20Z</time>
      </trkpt>
      <trkpt lat="48.13525" lon="6.3934">
        <ele>463.49</ele>
        <time>2012-04-22T09:22:38Z</time>
      </trkpt>
      <trkpt lat="48.13482" lon="6.39346">
        <ele>463.97</ele>
        <time>2012-04-22T09:22:52Z</time>
      </trkpt>
      <trkpt lat="48.13448" lon="6.39341">
        <ele>465.42</ele>
        <time>2012-04-22T09:23:05Z</time>
      </trkpt>
      <trkpt lat="48.13421" lon="6.39339">
        <ele>466.86</ele>
        <time>2012-04-22T09:23:18Z</time>
      </trkpt>
      <trkpt lat="48.13388" lon="6.3935">
        <ele>468.3</ele>
        <time>2012-04-22T09:23:27Z</time>
      </trkpt>
      <trkpt lat="48.13379" lon="6.39355">
        <ele>468.78</ele>
        <time>2012-04-22T09:23:29Z</time>
      </trkpt>
      <trkpt lat="48.13374" lon="6.39357">
        <ele>469.26</ele>
        <time>2012-04-22T09:23:30Z</time>
      </trkpt>
      <trkpt lat="48.1337" lon="6.39359">
        <ele>469.26</ele>
        <time>2012-04-22T09:23:31Z</time>
      </trkpt>
      <trkpt lat="48.13366" lon="6.3936">
        <ele>469.26</ele>
        <time>2012-04-22T09:23:32Z</time>
      </trkpt>
      <trkpt lat="48.13362" lon="6.39362">
        <ele>469.26</ele>
        <time>2012-04-22T09:23:33Z</time>
      </trkpt>
      <trkpt lat="48.13314" lon="6.39373">
        <ele>471.18</ele>
        <time>2012-04-22T09:23:45Z</time>
      </trkpt>
      <trkpt lat="48.13266" lon="6.39383">
        <ele>474.07</ele>
        <time>2012-04-22T09:23:56Z</time>
      </trkpt>
      <trkpt lat="48.13231" lon="6.39415">
        <ele>475.51</ele>
        <time>2012-04-22T09:24:06Z</time>
      </trkpt>
      <trkpt lat="48.13221" lon="6.3943">
        <ele>475.51</ele>
        <time>2012-04-22T09:24:09Z</time>
      </trkpt>
      <trkpt lat="48.13205" lon="6.39461">
        <ele>476.47</ele>
        <time>2012-04-22T09:24:14Z</time>
      </trkpt>
      <trkpt lat="48.13194" lon="6.3948">
        <ele>477.91</ele>
        <time>2012-04-22T09:24:18Z</time>
      </trkpt>
      <trkpt lat="48.13191" lon="6.39486">
        <ele>478.39</ele>
        <time>2012-04-22T09:24:19Z</time>
      </trkpt>
      <trkpt lat="48.13188" lon="6.39493">
        <ele>479.35</ele>
        <time>2012-04-22T09:24:20Z</time>
      </trkpt>
      <trkpt lat="48.13176" lon="6.39522">
        <ele>484.16</ele>
        <time>2012-04-22T09:24:25Z</time>
      </trkpt>
      <trkpt lat="48.13164" lon="6.3957">
        <ele>490.89</ele>
        <time>2012-04-22T09:24:31Z</time>
      </trkpt>
      <trkpt lat="48.13161" lon="6.39578">
        <ele>492.33</ele>
        <time>2012-04-22T09:24:32Z</time>
      </trkpt>
      <trkpt lat="48.13159" lon="6.39585">
        <ele>493.29</ele>
        <time>2012-04-22T09:24:33Z</time>
      </trkpt>
      <trkpt lat="48.13152" lon="6.3963">
        <ele>500.5</ele>
        <time>2012-04-22T09:24:39Z</time>
      </trkpt>
      <trkpt lat="48.13144" lon="6.397">
        <ele>509.64</ele>
        <time>2012-04-22T09:24:47Z</time>
      </trkpt>
      <trkpt lat="48.13142" lon="6.39709">
        <ele>510.6</ele>
        <time>2012-04-22T09:24:48Z</time>
      </trkpt>
      <trkpt lat="48.13134" lon="6.39828">
        <ele>522.13</ele>
        <time>2012-04-22T09:24:58Z</time>
      </trkpt>
      <trkpt lat="48.13158" lon="6.39965">
        <ele>529.82</ele>
        <time>2012-04-22T09:25:10Z</time>
      </trkpt>
      <trkpt lat="48.1316" lon="6.39975">
        <ele>529.82</ele>
        <time>2012-04-22T09:25:11Z</time>
      </trkpt>
      <trkpt lat="48.13167" lon="6.40015">
        <ele>530.3</ele>
        <time>2012-04-22T09:25:15Z</time>
      </trkpt>
      <trkpt lat="48.13171" lon="6.40024">
        <ele>530.3</ele>
        <time>2012-04-22T09:25:16Z</time>
      </trkpt>
      <trkpt lat="48.13175" lon="6.40032">
        <ele>530.79</ele>
        <time>2012-04-22T09:25:17Z</time>
      </trkpt>
      <trkpt lat="48.13251" lon="6.40155">
        <ele>530.79</ele>
        <time>2012-04-22T09:25:31Z</time>
      </trkpt>
      <trkpt lat="48.13291" lon="6.40253">
        <ele>528.86</ele>
        <time>2012-04-22T09:25:40Z</time>
      </trkpt>
      <trkpt lat="48.13294" lon="6.40265">
        <ele>528.86</ele>
        <time>2012-04-22T09:25:41Z</time>
      </trkpt>
      <trkpt lat="48.13296" lon="6.40277">
        <ele>528.38</ele>
        <time>2012-04-22T09:25:42Z</time>
      </trkpt>
      <trkpt lat="48.13297" lon="6.4029">
        <ele>528.38</ele>
        <time>2012-04-22T09:25:43Z</time>
      </trkpt>
      <trkpt lat="48.13298" lon="6.40302">
        <ele>528.38</ele>
        <time>2012-04-22T09:25:44Z</time>
      </trkpt>
      <trkpt lat="48.13318" lon="6.40463">
        <ele>525.5</ele>
        <time>2012-04-22T09:25:56Z</time>
      </trkpt>
      <trkpt lat="48.13337" lon="6.40647">
        <ele>522.61</ele>
        <time>2012-04-22T09:26:09Z</time>
      </trkpt>
      <trkpt lat="48.13341" lon="6.4067">
        <ele>521.65</ele>
        <time>2012-04-22T09:26:11Z</time>
      </trkpt>
      <trkpt lat="48.13341" lon="6.40677">
        <ele>521.17</ele>
        <time>2012-04-22T09:26:12Z</time>
      </trkpt>
      <trkpt lat="48.13341" lon="6.40683">
        <ele>520.21</ele>
        <time>2012-04-22T09:26:13Z</time>
      </trkpt>
      <trkpt lat="48.13343" lon="6.40689">
        <ele>517.81</ele>
        <time>2012-04-22T09:26:14Z</time>
      </trkpt>
      <trkpt lat="48.13341" lon="6.40687">
        <ele>516.37</ele>
        <time>2012-04-22T09:26:15Z</time>
      </trkpt>
      <trkpt lat="48.13335" lon="6.40678">
        <ele>509.16</ele>
        <time>2012-04-22T09:26:19Z</time>
      </trkpt>
      <trkpt lat="48.13327" lon="6.40664">
        <ele>506.27</ele>
        <time>2012-04-22T09:26:22Z</time>
      </trkpt>
      <trkpt lat="48.13324" lon="6.40659">
        <ele>505.79</ele>
        <time>2012-04-22T09:26:23Z</time>
      </trkpt>
      <trkpt lat="48.13317" lon="6.40649">
        <ele>504.35</ele>
        <time>2012-04-22T09:26:25Z</time>
      </trkpt>
      <trkpt lat="48.13296" lon="6.40614">
        <ele>497.62</ele>
        <time>2012-04-22T09:26:32Z</time>
      </trkpt>
      <trkpt lat="48.1327" lon="6.40578">
        <ele>495.22</ele>
        <time>2012-04-22T09:26:39Z</time>
      </trkpt>
      <trkpt lat="48.13267" lon="6.40573">
        <ele>494.74</ele>
        <time>2012-04-22T09:26:40Z</time>
      </trkpt>
      <trkpt lat="48.13229" lon="6.40514">
        <ele>491.85</ele>
        <time>2012-04-22T09:26:52Z</time>
      </trkpt>
      <trkpt lat="48.13208" lon="6.40451">
        <ele>491.37</ele>
        <time>2012-04-22T09:27:03Z</time>
      </trkpt>
      <trkpt lat="48.13205" lon="6.40399">
        <ele>494.26</ele>
        <time>2012-04-22T09:27:14Z</time>
      </trkpt>
      <trkpt lat="48.13209" lon="6.40368">
        <ele>497.14</ele>
        <time>2012-04-22T09:27:22Z</time>
      </trkpt>
      <trkpt lat="48.13209" lon="6.40364">
        <ele>497.62</ele>
        <time>2012-04-22T09:27:23Z</time>
      </trkpt>
      <trkpt lat="48.13209" lon="6.4036">
        <ele>498.1</ele>
        <time>2012-04-22T09:27:24Z</time>
      </trkpt>
      <trkpt lat="48.13209" lon="6.40356">
        <ele>498.58</ele>
        <time>2012-04-22T09:27:25Z</time>
      </trkpt>
      <trkpt lat="48.13209" lon="6.40353">
        <ele>499.06</ele>
        <time>2012-04-22T09:27:26Z</time>
      </trkpt>
      <trkpt lat="48.13202" lon="6.40293">
        <ele>488.49</ele>
        <time>2012-04-22T09:27:36Z</time>
      </trkpt>
      <trkpt lat="48.13182" lon="6.40234">
        <ele>479.84</ele>
        <time>2012-04-22T09:27:47Z</time>
      </trkpt>
      <trkpt lat="48.1316" lon="6.40172">
        <ele>477.91</ele>
        <time>2012-04-22T09:27:58Z</time>
      </trkpt>
      <trkpt lat="48.13137" lon="6.40132">
        <ele>474.07</ele>
        <time>2012-04-22T09:28:09Z</time>
      </trkpt>
      <trkpt lat="48.13116" lon="6.4013">
        <ele>474.55</ele>
        <time>2012-04-22T09:28:20Z</time>
      </trkpt>
      <trkpt lat="48.13079" lon="6.40159">
        <ele>475.03</ele>
        <time>2012-04-22T09:28:29Z</time>
      </trkpt>
      <trkpt lat="48.13033" lon="6.4021">
        <ele>476.95</ele>
        <time>2012-04-22T09:28:42Z</time>
      </trkpt>
      <trkpt lat="48.12996" lon="6.40248">
        <ele>478.39</ele>
        <time>2012-04-22T09:28:52Z</time>
      </trkpt>
      <trkpt lat="48.12983" lon="6.40267">
        <ele>478.87</ele>
        <time>2012-04-22T09:28:56Z</time>
      </trkpt>
      <trkpt lat="48.1298" lon="6.40274">
        <ele>478.87</ele>
        <time>2012-04-22T09:28:57Z</time>
      </trkpt>
      <trkpt lat="48.12978" lon="6.40282">
        <ele>479.35</ele>
        <time>2012-04-22T09:28:58Z</time>
      </trkpt>
      <trkpt lat="48.12976" lon="6.40291">
        <ele>479.84</ele>
        <time>2012-04-22T09:28:59Z</time>
      </trkpt>
      <trkpt lat="48.12974" lon="6.40301">
        <ele>480.32</ele>
        <time>2012-04-22T09:29:00Z</time>
      </trkpt>
      <trkpt lat="48.12972" lon="6.4031">
        <ele>480.8</ele>
        <time>2012-04-22T09:29:01Z</time>
      </trkpt>
      <trkpt lat="48.12971" lon="6.40319">
        <ele>481.28</ele>
        <time>2012-04-22T09:29:02Z</time>
      </trkpt>
      <trkpt lat="48.1297" lon="6.40328">
        <ele>482.24</ele>
        <time>2012-04-22T09:29:03Z</time>
      </trkpt>
      <trkpt lat="48.12969" lon="6.40336">
        <ele>482.72</ele>
        <time>2012-04-22T09:29:04Z</time>
      </trkpt>
      <trkpt lat="48.12965" lon="6.40361">
        <ele>485.6</ele>
        <time>2012-04-22T09:29:08Z</time>
      </trkpt>
      <trkpt lat="48.12964" lon="6.40366">
        <ele>486.08</ele>
        <time>2012-04-22T09:29:09Z</time>
      </trkpt>
      <trkpt lat="48.12963" lon="6.4037">
        <ele>487.05</ele>
        <time>2012-04-22T09:29:10Z</time>
      </trkpt>
      <trkpt lat="48.12962" lon="6.40374">
        <ele>487.53</ele>
        <time>2012-04-22T09:29:11Z</time>
      </trkpt>
      <trkpt lat="48.1296" lon="6.40377">
        <ele>488.49</ele>
        <time>2012-04-22T09:29:12Z</time>
      </trkpt>
      <trkpt lat="48.12959" lon="6.4038">
        <ele>488.97</ele>
        <time>2012-04-22T09:29:13Z</time>
      </trkpt>
      <trkpt lat="48.12958" lon="6.40383">
        <ele>489.45</ele>
        <time>2012-04-22T09:29:14Z</time>
      </trkpt>
      <trkpt lat="48.12957" lon="6.40386">
        <ele>489.93</ele>
        <time>2012-04-22T09:29:15Z</time>
      </trkpt>
      <trkpt lat="48.12956" lon="6.40409">
        <ele>487.53</ele>
        <time>2012-04-22T09:29:28Z</time>
      </trkpt>
      <trkpt lat="48.12954" lon="6.40415">
        <ele>485.12</ele>
        <time>2012-04-22T09:29:44Z</time>
      </trkpt>
      <trkpt lat="48.12934" lon="6.40427">
        <ele>485.12</ele>
        <time>2012-04-22T09:30:01Z</time>
      </trkpt>
      <trkpt lat="48.12915" lon="6.40442">
        <ele>484.16</ele>
        <time>2012-04-22T09:30:16Z</time>
      </trkpt>
      <trkpt lat="48.12911" lon="6.40444">
        <ele>483.2</ele>
        <time>2012-04-22T09:30:29Z</time>
      </trkpt>
      <trkpt lat="48.12898" lon="6.40445">
        <ele>485.12</ele>
        <time>2012-04-22T09:30:35Z</time>
      </trkpt>
      <trkpt lat="48.12867" lon="6.40458">
        <ele>487.53</ele>
        <time>2012-04-22T09:30:46Z</time>
      </trkpt>
      <trkpt lat="48.12842" lon="6.40463">
        <ele>488.49</ele>
        <time>2012-04-22T09:30:55Z</time>
      </trkpt>
      <trkpt lat="48.12831" lon="6.40469">
        <ele>488.97</ele>
        <time>2012-04-22T09:30:58Z</time>
      </trkpt>
      <trkpt lat="48.12826" lon="6.4047">
        <ele>488.97</ele>
        <time>2012-04-22T09:30:59Z</time>
      </trkpt>
      <trkpt lat="48.12815" lon="6.40474">
        <ele>489.45</ele>
        <time>2012-04-22T09:31:01Z</time>
      </trkpt>
      <trkpt lat="48.1281" lon="6.40476">
        <ele>489.45</ele>
        <time>2012-04-22T09:31:02Z</time>
      </trkpt>
      <trkpt lat="48.12788" lon="6.40485">
        <ele>489.93</ele>
        <time>2012-04-22T09:31:06Z</time>
      </trkpt>
      <trkpt lat="48.12765" lon="6.40486">
        <ele>490.89</ele>
        <time>2012-04-22T09:31:11Z</time>
      </trkpt>
      <trkpt lat="48.12756" lon="6.40485">
        <ele>490.89</ele>
        <time>2012-04-22T09:31:13Z</time>
      </trkpt>
      <trkpt lat="48.12751" lon="6.40486">
        <ele>491.37</ele>
        <time>2012-04-22T09:31:14Z</time>
      </trkpt>
      <trkpt lat="48.12747" lon="6.40488">
        <ele>491.37</ele>
        <time>2012-04-22T09:31:15Z</time>
      </trkpt>
      <trkpt lat="48.12743" lon="6.40489">
        <ele>491.37</ele>
        <time>2012-04-22T09:31:16Z</time>
      </trkpt>
      <trkpt lat="48.12739" lon="6.40491">
        <ele>491.37</ele>
        <time>2012-04-22T09:31:17Z</time>
      </trkpt>
      <trkpt lat="48.12735" lon="6.40493">
        <ele>491.37</ele>
        <time>2012-04-22T09:31:18Z</time>
      </trkpt>
      <trkpt lat="48.12685" lon="6.40525">
        <ele>490.89</ele>
        <time>2012-04-22T09:31:31Z</time>
      </trkpt>
      <trkpt lat="48.12645" lon="6.40547">
        <ele>491.37</ele>
        <time>2012-04-22T09:31:44Z</time>
      </trkpt>
      <trkpt lat="48.12617" lon="6.4056">
        <ele>491.85</ele>
        <time>2012-04-22T09:31:52Z</time>
      </trkpt>
      <trkpt lat="48.12615" lon="6.40563">
        <ele>492.33</ele>
        <time>2012-04-22T09:31:53Z</time>
      </trkpt>
      <trkpt lat="48.12585" lon="6.40608">
        <ele>496.18</ele>
        <time>2012-04-22T09:32:05Z</time>
      </trkpt>
      <trkpt lat="48.12571" lon="6.40625">
        <ele>497.14</ele>
        <time>2012-04-22T09:32:09Z</time>
      </trkpt>
      <trkpt lat="48.12567" lon="6.4063">
        <ele>497.14</ele>
        <time>2012-04-22T09:32:10Z</time>
      </trkpt>
      <trkpt lat="48.12562" lon="6.40636">
        <ele>497.14</ele>
        <time>2012-04-22T09:32:11Z</time>
      </trkpt>
      <trkpt lat="48.12558" lon="6.40644">
        <ele>497.14</ele>
        <time>2012-04-22T09:32:12Z</time>
      </trkpt>
      <trkpt lat="48.12555" lon="6.40652">
        <ele>497.14</ele>
        <time>2012-04-22T09:32:13Z</time>
      </trkpt>
      <trkpt lat="48.12552" lon="6.40661">
        <ele>497.14</ele>
        <time>2012-04-22T09:32:14Z</time>
      </trkpt>
      <trkpt lat="48.12551" lon="6.4067">
        <ele>497.14</ele>
        <time>2012-04-22T09:32:15Z</time>
      </trkpt>
      <trkpt lat="48.12551" lon="6.40679">
        <ele>496.66</ele>
        <time>2012-04-22T09:32:16Z</time>
      </trkpt>
      <trkpt lat="48.1255" lon="6.40688">
        <ele>496.18</ele>
        <time>2012-04-22T09:32:17Z</time>
      </trkpt>
      <trkpt lat="48.12549" lon="6.40697">
        <ele>495.22</ele>
        <time>2012-04-22T09:32:18Z</time>
      </trkpt>
      <trkpt lat="48.12547" lon="6.40706">
        <ele>494.74</ele>
        <time>2012-04-22T09:32:19Z</time>
      </trkpt>
      <trkpt lat="48.12545" lon="6.40725">
        <ele>494.26</ele>
        <time>2012-04-22T09:32:21Z</time>
      </trkpt>
      <trkpt lat="48.12545" lon="6.40733">
        <ele>493.77</ele>
        <time>2012-04-22T09:32:22Z</time>
      </trkpt>
      <trkpt lat="48.12544" lon="6.40741">
        <ele>493.29</ele>
        <time>2012-04-22T09:32:23Z</time>
      </trkpt>
      <trkpt lat="48.12542" lon="6.40749">
        <ele>493.29</ele>
        <time>2012-04-22T09:32:24Z</time>
      </trkpt>
      <trkpt lat="48.1254" lon="6.40758">
        <ele>493.29</ele>
        <time>2012-04-22T09:32:25Z</time>
      </trkpt>
      <trkpt lat="48.12537" lon="6.40768">
        <ele>492.81</ele>
        <time>2012-04-22T09:32:26Z</time>
      </trkpt>
      <trkpt lat="48.12535" lon="6.40778">
        <ele>492.81</ele>
        <time>2012-04-22T09:32:27Z</time>
      </trkpt>
      <trkpt lat="48.12534" lon="6.40787">
        <ele>493.29</ele>
        <time>2012-04-22T09:32:28Z</time>
      </trkpt>
      <trkpt lat="48.12533" lon="6.40795">
        <ele>493.29</ele>
        <time>2012-04-22T09:32:29Z</time>
      </trkpt>
      <trkpt lat="48.12519" lon="6.4083">
        <ele>493.29</ele>
        <time>2012-04-22T09:32:36Z</time>
      </trkpt>
      <trkpt lat="48.12498" lon="6.40849">
        <ele>490.89</ele>
        <time>2012-04-22T09:32:40Z</time>
      </trkpt>
      <trkpt lat="48.12461" lon="6.40861">
        <ele>488.01</ele>
        <time>2012-04-22T09:32:47Z</time>
      </trkpt>
      <trkpt lat="48.12413" lon="6.40907">
        <ele>482.72</ele>
        <time>2012-04-22T09:32:57Z</time>
      </trkpt>
      <trkpt lat="48.12393" lon="6.40941">
        <ele>481.76</ele>
        <time>2012-04-22T09:33:02Z</time>
      </trkpt>
      <trkpt lat="48.12389" lon="6.40948">
        <ele>481.76</ele>
        <time>2012-04-22T09:33:03Z</time>
      </trkpt>
      <trkpt lat="48.12385" lon="6.40955">
        <ele>481.28</ele>
        <time>2012-04-22T09:33:04Z</time>
      </trkpt>
      <trkpt lat="48.12382" lon="6.40962">
        <ele>480.8</ele>
        <time>2012-04-22T09:33:05Z</time>
      </trkpt>
      <trkpt lat="48.12379" lon="6.40969">
        <ele>480.8</ele>
        <time>2012-04-22T09:33:06Z</time>
      </trkpt>
      <trkpt lat="48.12376" lon="6.40977">
        <ele>480.32</ele>
        <time>2012-04-22T09:33:07Z</time>
      </trkpt>
      <trkpt lat="48.12347" lon="6.41046">
        <ele>480.8</ele>
        <time>2012-04-22T09:33:17Z</time>
      </trkpt>
      <trkpt lat="48.12335" lon="6.41068">
        <ele>481.76</ele>
        <time>2012-04-22T09:33:20Z</time>
      </trkpt>
      <trkpt lat="48.12331" lon="6.41075">
        <ele>482.24</ele>
        <time>2012-04-22T09:33:21Z</time>
      </trkpt>
      <trkpt lat="48.12321" lon="6.41098">
        <ele>482.72</ele>
        <time>2012-04-22T09:33:24Z</time>
      </trkpt>
      <trkpt lat="48.12297" lon="6.41134">
        <ele>481.76</ele>
        <time>2012-04-22T09:33:30Z</time>
      </trkpt>
      <trkpt lat="48.12294" lon="6.4114">
        <ele>481.76</ele>
        <time>2012-04-22T09:33:31Z</time>
      </trkpt>
      <trkpt lat="48.12272" lon="6.41211">
        <ele>483.2</ele>
        <time>2012-04-22T09:33:42Z</time>
      </trkpt>
      <trkpt lat="48.12272" lon="6.41216">
        <ele>483.2</ele>
        <time>2012-04-22T09:33:43Z</time>
      </trkpt>
      <trkpt lat="48.12274" lon="6.4122">
        <ele>482.72</ele>
        <time>2012-04-22T09:33:44Z</time>
      </trkpt>
      <trkpt lat="48.12276" lon="6.41224">
        <ele>482.72</ele>
        <time>2012-04-22T09:33:45Z</time>
      </trkpt>
      <trkpt lat="48.12309" lon="6.4126">
        <ele>479.84</ele>
        <time>2012-04-22T09:33:56Z</time>
      </trkpt>
      <trkpt lat="48.12325" lon="6.41267">
        <ele>477.91</ele>
        <time>2012-04-22T09:34:03Z</time>
      </trkpt>
      <trkpt lat="48.1235" lon="6.41281">
        <ele>477.43</ele>
        <time>2012-04-22T09:34:14Z</time>
      </trkpt>
      <trkpt lat="48.12379" lon="6.41294">
        <ele>475.03</ele>
        <time>2012-04-22T09:34:25Z</time>
      </trkpt>
      <trkpt lat="48.12404" lon="6.41319">
        <ele>476.95</ele>
        <time>2012-04-22T09:34:36Z</time>
      </trkpt>
      <trkpt lat="48.12442" lon="6.41341">
        <ele>481.76</ele>
        <time>2012-04-22T09:34:51Z</time>
      </trkpt>
      <trkpt lat="48.12487" lon="6.41376">
        <ele>480.8</ele>
        <time>2012-04-22T09:35:05Z</time>
      </trkpt>
      <trkpt lat="48.12537" lon="6.41411">
        <ele>475.03</ele>
        <time>2012-04-22T09:35:23Z</time>
      </trkpt>
      <trkpt lat="48.1258" lon="6.41448">
        <ele>463.01</ele>
        <time>2012-04-22T09:35:40Z</time>
      </trkpt>
      <trkpt lat="48.12628" lon="6.41486">
        <ele>459.17</ele>
        <time>2012-04-22T09:35:57Z</time>
      </trkpt>
      <trkpt lat="48.12667" lon="6.41522">
        <ele>456.76</ele>
        <time>2012-04-22T09:36:09Z</time>
      </trkpt>
      <trkpt lat="48.1267" lon="6.41526">
        <ele>456.28</ele>
        <time>2012-04-22T09:36:10Z</time>
      </trkpt>
      <trkpt lat="48.12674" lon="6.4153">
        <ele>456.28</ele>
        <time>2012-04-22T09:36:11Z</time>
      </trkpt>
      <trkpt lat="48.12677" lon="6.41535">
        <ele>455.8</ele>
        <time>2012-04-22T09:36:12Z</time>
      </trkpt>
      <trkpt lat="48.12679" lon="6.4154">
        <ele>455.8</ele>
        <time>2012-04-22T09:36:13Z</time>
      </trkpt>
      <trkpt lat="48.12681" lon="6.41545">
        <ele>455.8</ele>
        <time>2012-04-22T09:36:14Z</time>
      </trkpt>
      <trkpt lat="48.12684" lon="6.4155">
        <ele>455.32</ele>
        <time>2012-04-22T09:36:15Z</time>
      </trkpt>
      <trkpt lat="48.12686" lon="6.41555">
        <ele>455.32</ele>
        <time>2012-04-22T09:36:16Z</time>
      </trkpt>
      <trkpt lat="48.12694" lon="6.41572">
        <ele>454.36</ele>
        <time>2012-04-22T09:36:19Z</time>
      </trkpt>
      <trkpt lat="48.127" lon="6.41586">
        <ele>453.88</ele>
        <time>2012-04-22T09:36:21Z</time>
      </trkpt>
      <trkpt lat="48.12705" lon="6.41593">
        <ele>453.88</ele>
        <time>2012-04-22T09:36:22Z</time>
      </trkpt>
      <trkpt lat="48.1271" lon="6.41599">
        <ele>453.4</ele>
        <time>2012-04-22T09:36:23Z</time>
      </trkpt>
      <trkpt lat="48.12717" lon="6.41604">
        <ele>452.92</ele>
        <time>2012-04-22T09:36:24Z</time>
      </trkpt>
      <trkpt lat="48.12724" lon="6.41609">
        <ele>452.44</ele>
        <time>2012-04-22T09:36:25Z</time>
      </trkpt>
      <trkpt lat="48.12731" lon="6.41612">
        <ele>451.96</ele>
        <time>2012-04-22T09:36:26Z</time>
      </trkpt>
      <trkpt lat="48.12739" lon="6.41615">
        <ele>451</ele>
        <time>2012-04-22T09:36:27Z</time>
      </trkpt>
      <trkpt lat="48.12839" lon="6.41637">
        <ele>443.31</ele>
        <time>2012-04-22T09:36:39Z</time>
      </trkpt>
      <trkpt lat="48.12847" lon="6.41639">
        <ele>442.82</ele>
        <time>2012-04-22T09:36:40Z</time>
      </trkpt>
      <trkpt lat="48.12855" lon="6.41642">
        <ele>441.86</ele>
        <time>2012-04-22T09:36:41Z</time>
      </trkpt>
      <trkpt lat="48.12924" lon="6.41668">
        <ele>438.02</ele>
        <time>2012-04-22T09:36:51Z</time>
      </trkpt>
      <trkpt lat="48.12988" lon="6.4171">
        <ele>436.58</ele>
        <time>2012-04-22T09:37:02Z</time>
      </trkpt>
      <trkpt lat="48.12999" lon="6.41716">
        <ele>436.58</ele>
        <time>2012-04-22T09:37:04Z</time>
      </trkpt>
      <trkpt lat="48.13005" lon="6.41719">
        <ele>436.58</ele>
        <time>2012-04-22T09:37:05Z</time>
      </trkpt>
      <trkpt lat="48.1302" lon="6.41728">
        <ele>437.06</ele>
        <time>2012-04-22T09:37:08Z</time>
      </trkpt>
      <trkpt lat="48.13039" lon="6.41743">
        <ele>437.54</ele>
        <time>2012-04-22T09:37:12Z</time>
      </trkpt>
      <trkpt lat="48.13042" lon="6.41748">
        <ele>437.54</ele>
        <time>2012-04-22T09:37:13Z</time>
      </trkpt>
      <trkpt lat="48.13044" lon="6.41754">
        <ele>437.54</ele>
        <time>2012-04-22T09:37:14Z</time>
      </trkpt>
      <trkpt lat="48.13044" lon="6.41759">
        <ele>438.02</ele>
        <time>2012-04-22T09:37:15Z</time>
      </trkpt>
      <trkpt lat="48.13045" lon="6.41764">
        <ele>438.02</ele>
        <time>2012-04-22T09:37:16Z</time>
      </trkpt>
      <trkpt lat="48.13047" lon="6.41768">
        <ele>438.5</ele>
        <time>2012-04-22T09:37:17Z</time>
      </trkpt>
      <trkpt lat="48.13049" lon="6.41771">
        <ele>438.98</ele>
        <time>2012-04-22T09:37:18Z</time>
      </trkpt>
      <trkpt lat="48.1305" lon="6.41774">
        <ele>439.46</ele>
        <time>2012-04-22T09:37:19Z</time>
      </trkpt>
      <trkpt lat="48.13051" lon="6.41779">
        <ele>439.94</ele>
        <time>2012-04-22T09:37:20Z</time>
      </trkpt>
      <trkpt lat="48.13052" lon="6.4185">
        <ele>444.27</ele>
        <time>2012-04-22T09:37:33Z</time>
      </trkpt>
      <trkpt lat="48.13052" lon="6.41861">
        <ele>444.75</ele>
        <time>2012-04-22T09:37:35Z</time>
      </trkpt>
      <trkpt lat="48.13051" lon="6.41864">
        <ele>445.23</ele>
        <time>2012-04-22T09:37:36Z</time>
      </trkpt>
      <trkpt lat="48.1305" lon="6.41867">
        <ele>445.23</ele>
        <time>2012-04-22T09:37:37Z</time>
      </trkpt>
      <trkpt lat="48.13049" lon="6.41892">
        <ele>449.07</ele>
        <time>2012-04-22T09:37:46Z</time>
      </trkpt>
      <trkpt lat="48.13046" lon="6.41941">
        <ele>454.36</ele>
        <time>2012-04-22T09:37:56Z</time>
      </trkpt>
      <trkpt lat="48.13049" lon="6.41999">
        <ele>462.05</ele>
        <time>2012-04-22T09:38:07Z</time>
      </trkpt>
      <trkpt lat="48.13056" lon="6.42054">
        <ele>470.22</ele>
        <time>2012-04-22T09:38:19Z</time>
      </trkpt>
      <trkpt lat="48.13058" lon="6.42095">
        <ele>473.59</ele>
        <time>2012-04-22T09:38:26Z</time>
      </trkpt>
      <trkpt lat="48.13058" lon="6.42101">
        <ele>473.59</ele>
        <time>2012-04-22T09:38:27Z</time>
      </trkpt>
      <trkpt lat="48.13057" lon="6.42106">
        <ele>474.07</ele>
        <time>2012-04-22T09:38:28Z</time>
      </trkpt>
      <trkpt lat="48.13055" lon="6.42111">
        <ele>474.07</ele>
        <time>2012-04-22T09:38:29Z</time>
      </trkpt>
      <trkpt lat="48.13053" lon="6.42116">
        <ele>474.07</ele>
        <time>2012-04-22T09:38:30Z</time>
      </trkpt>
      <trkpt lat="48.13052" lon="6.42122">
        <ele>474.55</ele>
        <time>2012-04-22T09:38:31Z</time>
      </trkpt>
      <trkpt lat="48.13051" lon="6.42128">
        <ele>474.55</ele>
        <time>2012-04-22T09:38:32Z</time>
      </trkpt>
      <trkpt lat="48.13044" lon="6.42215">
        <ele>477.43</ele>
        <time>2012-04-22T09:38:45Z</time>
      </trkpt>
      <trkpt lat="48.13043" lon="6.42226">
        <ele>477.43</ele>
        <time>2012-04-22T09:38:47Z</time>
      </trkpt>
      <trkpt lat="48.13047" lon="6.4225">
        <ele>477.43</ele>
        <time>2012-04-22T09:38:52Z</time>
      </trkpt>
      <trkpt lat="48.13049" lon="6.42253">
        <ele>477.43</ele>
        <time>2012-04-22T09:38:53Z</time>
      </trkpt>
      <trkpt lat="48.13053" lon="6.42259">
        <ele>477.43</ele>
        <time>2012-04-22T09:38:55Z</time>
      </trkpt>
      <trkpt lat="48.13061" lon="6.42264">
        <ele>476.95</ele>
        <time>2012-04-22T09:39:00Z</time>
      </trkpt>
      <trkpt lat="48.13098" lon="6.42292">
        <ele>478.39</ele>
        <time>2012-04-22T09:39:14Z</time>
      </trkpt>
      <trkpt lat="48.13137" lon="6.4232">
        <ele>467.82</ele>
        <time>2012-04-22T09:39:29Z</time>
      </trkpt>
      <trkpt lat="48.13175" lon="6.42345">
        <ele>461.09</ele>
        <time>2012-04-22T09:39:46Z</time>
      </trkpt>
      <trkpt lat="48.13214" lon="6.42369">
        <ele>459.17</ele>
        <time>2012-04-22T09:40:05Z</time>
      </trkpt>
      <trkpt lat="48.13241" lon="6.42396">
        <ele>461.09</ele>
        <time>2012-04-22T09:40:17Z</time>
      </trkpt>
      <trkpt lat="48.13266" lon="6.4241">
        <ele>463.01</ele>
        <time>2012-04-22T09:40:28Z</time>
      </trkpt>
      <trkpt lat="48.13304" lon="6.4243">
        <ele>468.3</ele>
        <time>2012-04-22T09:40:41Z</time>
      </trkpt>
      <trkpt lat="48.13322" lon="6.42443">
        <ele>473.59</ele>
        <time>2012-04-22T09:40:50Z</time>
      </trkpt>
      <trkpt lat="48.13334" lon="6.42481">
        <ele>481.28</ele>
        <time>2012-04-22T09:41:02Z</time>
      </trkpt>
      <trkpt lat="48.13336" lon="6.42526">
        <ele>489.93</ele>
        <time>2012-04-22T09:41:15Z</time>
      </trkpt>
      <trkpt lat="48.13328" lon="6.42563">
        <ele>499.54</ele>
        <time>2012-04-22T09:41:28Z</time>
      </trkpt>
      <trkpt lat="48.13325" lon="6.42573">
        <ele>501.46</ele>
        <time>2012-04-22T09:41:31Z</time>
      </trkpt>
      <trkpt lat="48.13317" lon="6.42606">
        <ele>506.27</ele>
        <time>2012-04-22T09:41:40Z</time>
      </trkpt>
      <trkpt lat="48.13307" lon="6.42632">
        <ele>507.23</ele>
        <time>2012-04-22T09:41:45Z</time>
      </trkpt>
      <trkpt lat="48.13297" lon="6.42644">
        <ele>508.19</ele>
        <time>2012-04-22T09:41:48Z</time>
      </trkpt>
      <trkpt lat="48.13265" lon="6.42672">
        <ele>513.48</ele>
        <time>2012-04-22T09:41:58Z</time>
      </trkpt>
      <trkpt lat="48.13231" lon="6.4271">
        <ele>515.4</ele>
        <time>2012-04-22T09:42:06Z</time>
      </trkpt>
      <trkpt lat="48.13221" lon="6.42725">
        <ele>515.4</ele>
        <time>2012-04-22T09:42:08Z</time>
      </trkpt>
      <trkpt lat="48.13217" lon="6.42733">
        <ele>515.4</ele>
        <time>2012-04-22T09:42:09Z</time>
      </trkpt>
      <trkpt lat="48.13206" lon="6.42761">
        <ele>514.92</ele>
        <time>2012-04-22T09:42:12Z</time>
      </trkpt>
      <trkpt lat="48.13204" lon="6.42771">
        <ele>514.92</ele>
        <time>2012-04-22T09:42:13Z</time>
      </trkpt>
      <trkpt lat="48.13203" lon="6.42781">
        <ele>514.92</ele>
        <time>2012-04-22T09:42:14Z</time>
      </trkpt>
      <trkpt lat="48.13203" lon="6.42791">
        <ele>514.92</ele>
        <time>2012-04-22T09:42:15Z</time>
      </trkpt>
      <trkpt lat="48.13203" lon="6.428">
        <ele>514.92</ele>
        <time>2012-04-22T09:42:16Z</time>
      </trkpt>
      <trkpt lat="48.13202" lon="6.4281">
        <ele>513.96</ele>
        <time>2012-04-22T09:42:17Z</time>
      </trkpt>
      <trkpt lat="48.13203" lon="6.42819">
        <ele>513.48</ele>
        <time>2012-04-22T09:42:18Z</time>
      </trkpt>
      <trkpt lat="48.13204" lon="6.42828">
        <ele>513.48</ele>
        <time>2012-04-22T09:42:19Z</time>
      </trkpt>
      <trkpt lat="48.13211" lon="6.42871">
        <ele>512.52</ele>
        <time>2012-04-22T09:42:24Z</time>
      </trkpt>
      <trkpt lat="48.13223" lon="6.42906">
        <ele>510.6</ele>
        <time>2012-04-22T09:42:28Z</time>
      </trkpt>
      <trkpt lat="48.13244" lon="6.42949">
        <ele>507.71</ele>
        <time>2012-04-22T09:42:34Z</time>
      </trkpt>
      <trkpt lat="48.13248" lon="6.42955">
        <ele>506.27</ele>
        <time>2012-04-22T09:42:35Z</time>
      </trkpt>
      <trkpt lat="48.13272" lon="6.42983">
        <ele>503.87</ele>
        <time>2012-04-22T09:42:40Z</time>
      </trkpt>
      <trkpt lat="48.1328" lon="6.42994">
        <ele>502.43</ele>
        <time>2012-04-22T09:42:42Z</time>
      </trkpt>
      <trkpt lat="48.13286" lon="6.42999">
        <ele>501.46</ele>
        <time>2012-04-22T09:42:43Z</time>
      </trkpt>
      <trkpt lat="48.13291" lon="6.43001">
        <ele>500.98</ele>
        <time>2012-04-22T09:42:44Z</time>
      </trkpt>
      <trkpt lat="48.13296" lon="6.43003">
        <ele>499.54</ele>
        <time>2012-04-22T09:42:45Z</time>
      </trkpt>
      <trkpt lat="48.13303" lon="6.43005">
        <ele>496.66</ele>
        <time>2012-04-22T09:42:46Z</time>
      </trkpt>
      <trkpt lat="48.1331" lon="6.4301">
        <ele>492.81</ele>
        <time>2012-04-22T09:42:47Z</time>
      </trkpt>
      <trkpt lat="48.13344" lon="6.4298">
        <ele>482.72</ele>
        <time>2012-04-22T09:42:57Z</time>
      </trkpt>
      <trkpt lat="48.13386" lon="6.42966">
        <ele>479.84</ele>
        <time>2012-04-22T09:43:10Z</time>
      </trkpt>
      <trkpt lat="48.13393" lon="6.42972">
        <ele>479.84</ele>
        <time>2012-04-22T09:43:12Z</time>
      </trkpt>
      <trkpt lat="48.13396" lon="6.42976">
        <ele>479.35</ele>
        <time>2012-04-22T09:43:13Z</time>
      </trkpt>
      <trkpt lat="48.13415" lon="6.4301">
        <ele>477.91</ele>
        <time>2012-04-22T09:43:18Z</time>
      </trkpt>
      <trkpt lat="48.1342" lon="6.43017">
        <ele>477.43</ele>
        <time>2012-04-22T09:43:19Z</time>
      </trkpt>
      <trkpt lat="48.13444" lon="6.43063">
        <ele>475.51</ele>
        <time>2012-04-22T09:43:26Z</time>
      </trkpt>
      <trkpt lat="48.13448" lon="6.4307">
        <ele>475.51</ele>
        <time>2012-04-22T09:43:27Z</time>
      </trkpt>
      <trkpt lat="48.13453" lon="6.43078">
        <ele>475.51</ele>
        <time>2012-04-22T09:43:28Z</time>
      </trkpt>
      <trkpt lat="48.13458" lon="6.43087">
        <ele>475.03</ele>
        <time>2012-04-22T09:43:29Z</time>
      </trkpt>
      <trkpt lat="48.13474" lon="6.43119">
        <ele>474.55</ele>
        <time>2012-04-22T09:43:32Z</time>
      </trkpt>
      <trkpt lat="48.13478" lon="6.4313">
        <ele>474.07</ele>
        <time>2012-04-22T09:43:33Z</time>
      </trkpt>
      <trkpt lat="48.1348" lon="6.43142">
        <ele>474.07</ele>
        <time>2012-04-22T09:43:34Z</time>
      </trkpt>
      <trkpt lat="48.13481" lon="6.43153">
        <ele>474.07</ele>
        <time>2012-04-22T09:43:35Z</time>
      </trkpt>
      <trkpt lat="48.13481" lon="6.43165">
        <ele>474.07</ele>
        <time>2012-04-22T09:43:36Z</time>
      </trkpt>
      <trkpt lat="48.1348" lon="6.43175">
        <ele>474.07</ele>
        <time>2012-04-22T09:43:37Z</time>
      </trkpt>
      <trkpt lat="48.1348" lon="6.43186">
        <ele>473.59</ele>
        <time>2012-04-22T09:43:38Z</time>
      </trkpt>
      <trkpt lat="48.13481" lon="6.43195">
        <ele>473.59</ele>
        <time>2012-04-22T09:43:39Z</time>
      </trkpt>
      <trkpt lat="48.13489" lon="6.43326">
        <ele>472.63</ele>
        <time>2012-04-22T09:43:52Z</time>
      </trkpt>
      <trkpt lat="48.13492" lon="6.4334">
        <ele>472.63</ele>
        <time>2012-04-22T09:43:53Z</time>
      </trkpt>
      <trkpt lat="48.13495" lon="6.43352">
        <ele>472.63</ele>
        <time>2012-04-22T09:43:54Z</time>
      </trkpt>
      <trkpt lat="48.13499" lon="6.43364">
        <ele>473.11</ele>
        <time>2012-04-22T09:43:55Z</time>
      </trkpt>
      <trkpt lat="48.13502" lon="6.43374">
        <ele>473.11</ele>
        <time>2012-04-22T09:43:56Z</time>
      </trkpt>
      <trkpt lat="48.13505" lon="6.43385">
        <ele>473.11</ele>
        <time>2012-04-22T09:43:57Z</time>
      </trkpt>
      <trkpt lat="48.13507" lon="6.43395">
        <ele>472.63</ele>
        <time>2012-04-22T09:43:58Z</time>
      </trkpt>
      <trkpt lat="48.1351" lon="6.43404">
        <ele>472.14</ele>
        <time>2012-04-22T09:43:59Z</time>
      </trkpt>
      <trkpt lat="48.13518" lon="6.43427">
        <ele>471.18</ele>
        <time>2012-04-22T09:44:02Z</time>
      </trkpt>
      <trkpt lat="48.13518" lon="6.43434">
        <ele>470.7</ele>
        <time>2012-04-22T09:44:03Z</time>
      </trkpt>
      <trkpt lat="48.13518" lon="6.43441">
        <ele>470.7</ele>
        <time>2012-04-22T09:44:04Z</time>
      </trkpt>
      <trkpt lat="48.13517" lon="6.43449">
        <ele>470.22</ele>
        <time>2012-04-22T09:44:05Z</time>
      </trkpt>
      <trkpt lat="48.13516" lon="6.43458">
        <ele>469.74</ele>
        <time>2012-04-22T09:44:06Z</time>
      </trkpt>
      <trkpt lat="48.13513" lon="6.43466">
        <ele>469.26</ele>
        <time>2012-04-22T09:44:07Z</time>
      </trkpt>
      <trkpt lat="48.13511" lon="6.43474">
        <ele>468.78</ele>
        <time>2012-04-22T09:44:08Z</time>
      </trkpt>
      <trkpt lat="48.13506" lon="6.43515">
        <ele>461.57</ele>
        <time>2012-04-22T09:44:12Z</time>
      </trkpt>
      <trkpt lat="48.13503" lon="6.43521">
        <ele>461.09</ele>
        <time>2012-04-22T09:44:13Z</time>
      </trkpt>
      <trkpt lat="48.13481" lon="6.43542">
        <ele>457.24</ele>
        <time>2012-04-22T09:44:18Z</time>
      </trkpt>
      <trkpt lat="48.13477" lon="6.43544">
        <ele>456.28</ele>
        <time>2012-04-22T09:44:19Z</time>
      </trkpt>
      <trkpt lat="48.13472" lon="6.43547">
        <ele>455.8</ele>
        <time>2012-04-22T09:44:20Z</time>
      </trkpt>
      <trkpt lat="48.13468" lon="6.4355">
        <ele>454.84</ele>
        <time>2012-04-22T09:44:21Z</time>
      </trkpt>
      <trkpt lat="48.13465" lon="6.43553">
        <ele>453.4</ele>
        <time>2012-04-22T09:44:22Z</time>
      </trkpt>
      <trkpt lat="48.13462" lon="6.43557">
        <ele>451.96</ele>
        <time>2012-04-22T09:44:23Z</time>
      </trkpt>
      <trkpt lat="48.13459" lon="6.4356">
        <ele>451</ele>
        <time>2012-04-22T09:44:24Z</time>
      </trkpt>
      <trkpt lat="48.13455" lon="6.43563">
        <ele>450.03</ele>
        <time>2012-04-22T09:44:25Z</time>
      </trkpt>
      <trkpt lat="48.13453" lon="6.43568">
        <ele>448.11</ele>
        <time>2012-04-22T09:44:26Z</time>
      </trkpt>
      <trkpt lat="48.13438" lon="6.4359">
        <ele>438.5</ele>
        <time>2012-04-22T09:44:31Z</time>
      </trkpt>
      <trkpt lat="48.13432" lon="6.43591">
        <ele>437.06</ele>
        <time>2012-04-22T09:44:32Z</time>
      </trkpt>
      <trkpt lat="48.13422" lon="6.43595">
        <ele>434.65</ele>
        <time>2012-04-22T09:44:33Z</time>
      </trkpt>
      <trkpt lat="48.13414" lon="6.436">
        <ele>432.73</ele>
        <time>2012-04-22T09:44:34Z</time>
      </trkpt>
      <trkpt lat="48.13406" lon="6.43608">
        <ele>431.77</ele>
        <time>2012-04-22T09:44:35Z</time>
      </trkpt>
      <trkpt lat="48.13398" lon="6.43617">
        <ele>429.85</ele>
        <time>2012-04-22T09:44:36Z</time>
      </trkpt>
      <trkpt lat="48.1339" lon="6.43627">
        <ele>428.4</ele>
        <time>2012-04-22T09:44:37Z</time>
      </trkpt>
      <trkpt lat="48.13382" lon="6.43635">
        <ele>426.96</ele>
        <time>2012-04-22T09:44:38Z</time>
      </trkpt>
      <trkpt lat="48.13374" lon="6.43642">
        <ele>425.52</ele>
        <time>2012-04-22T09:44:39Z</time>
      </trkpt>
      <trkpt lat="48.13367" lon="6.43647">
        <ele>422.64</ele>
        <time>2012-04-22T09:44:40Z</time>
      </trkpt>
      <trkpt lat="48.13361" lon="6.43651">
        <ele>420.23</ele>
        <time>2012-04-22T09:44:41Z</time>
      </trkpt>
      <trkpt lat="48.13355" lon="6.43655">
        <ele>417.83</ele>
        <time>2012-04-22T09:44:42Z</time>
      </trkpt>
      <trkpt lat="48.13348" lon="6.43657">
        <ele>416.39</ele>
        <time>2012-04-22T09:44:43Z</time>
      </trkpt>
      <trkpt lat="48.13343" lon="6.4366">
        <ele>415.43</ele>
        <time>2012-04-22T09:44:44Z</time>
      </trkpt>
      <trkpt lat="48.13339" lon="6.4366">
        <ele>414.47</ele>
        <time>2012-04-22T09:44:45Z</time>
      </trkpt>
      <trkpt lat="48.13335" lon="6.43658">
        <ele>413.5</ele>
        <time>2012-04-22T09:44:46Z</time>
      </trkpt>
      <trkpt lat="48.13332" lon="6.43655">
        <ele>413.5</ele>
        <time>2012-04-22T09:44:47Z</time>
      </trkpt>
      <trkpt lat="48.13329" lon="6.43651">
        <ele>413.5</ele>
        <time>2012-04-22T09:44:48Z</time>
      </trkpt>
      <trkpt lat="48.13326" lon="6.43646">
        <ele>413.5</ele>
        <time>2012-04-22T09:44:49Z</time>
      </trkpt>
      <trkpt lat="48.13317" lon="6.43637">
        <ele>413.98</ele>
        <time>2012-04-22T09:44:52Z</time>
      </trkpt>
      <trkpt lat="48.13314" lon="6.43638">
        <ele>414.47</ele>
        <time>2012-04-22T09:44:53Z</time>
      </trkpt>
      <trkpt lat="48.13311" lon="6.43642">
        <ele>414.47</ele>
        <time>2012-04-22T09:44:54Z</time>
      </trkpt>
      <trkpt lat="48.1331" lon="6.43646">
        <ele>414.47</ele>
        <time>2012-04-22T09:44:55Z</time>
      </trkpt>
      <trkpt lat="48.1331" lon="6.43649">
        <ele>414.47</ele>
        <time>2012-04-22T09:44:56Z</time>
      </trkpt>
      <trkpt lat="48.1331" lon="6.43652">
        <ele>413.98</ele>
        <time>2012-04-22T09:44:57Z</time>
      </trkpt>
      <trkpt lat="48.1331" lon="6.43656">
        <ele>413.98</ele>
        <time>2012-04-22T09:44:58Z</time>
      </trkpt>
      <trkpt lat="48.13313" lon="6.43701">
        <ele>413.98</ele>
        <time>2012-04-22T09:45:08Z</time>
      </trkpt>
      <trkpt lat="48.13298" lon="6.43761">
        <ele>417.35</ele>
        <time>2012-04-22T09:45:19Z</time>
      </trkpt>
      <trkpt lat="48.13291" lon="6.4383">
        <ele>422.16</ele>
        <time>2012-04-22T09:45:32Z</time>
      </trkpt>
      <trkpt lat="48.13283" lon="6.43913">
        <ele>425.04</ele>
        <time>2012-04-22T09:45:44Z</time>
      </trkpt>
      <trkpt lat="48.1328" lon="6.44045">
        <ele>423.12</ele>
        <time>2012-04-22T09:45:58Z</time>
      </trkpt>
      <trkpt lat="48.13278" lon="6.44077">
        <ele>421.68</ele>
        <time>2012-04-22T09:46:02Z</time>
      </trkpt>
      <trkpt lat="48.13279" lon="6.44093">
        <ele>421.19</ele>
        <time>2012-04-22T09:46:04Z</time>
      </trkpt>
      <trkpt lat="48.1328" lon="6.44101">
        <ele>421.19</ele>
        <time>2012-04-22T09:46:05Z</time>
      </trkpt>
      <trkpt lat="48.1329" lon="6.44177">
        <ele>419.27</ele>
        <time>2012-04-22T09:46:15Z</time>
      </trkpt>
      <trkpt lat="48.13291" lon="6.44184">
        <ele>419.27</ele>
        <time>2012-04-22T09:46:16Z</time>
      </trkpt>
      <trkpt lat="48.13293" lon="6.44192">
        <ele>419.27</ele>
        <time>2012-04-22T09:46:17Z</time>
      </trkpt>
      <trkpt lat="48.13296" lon="6.44198">
        <ele>418.79</ele>
        <time>2012-04-22T09:46:18Z</time>
      </trkpt>
      <trkpt lat="48.13299" lon="6.44204">
        <ele>418.31</ele>
        <time>2012-04-22T09:46:19Z</time>
      </trkpt>
      <trkpt lat="48.13301" lon="6.4421">
        <ele>417.83</ele>
        <time>2012-04-22T09:46:20Z</time>
      </trkpt>
      <trkpt lat="48.13302" lon="6.44216">
        <ele>417.35</ele>
        <time>2012-04-22T09:46:21Z</time>
      </trkpt>
      <trkpt lat="48.13301" lon="6.44221">
        <ele>416.87</ele>
        <time>2012-04-22T09:46:22Z</time>
      </trkpt>
      <trkpt lat="48.13299" lon="6.44226">
        <ele>416.39</ele>
        <time>2012-04-22T09:46:23Z</time>
      </trkpt>
      <trkpt lat="48.13295" lon="6.44229">
        <ele>416.39</ele>
        <time>2012-04-22T09:46:24Z</time>
      </trkpt>
      <trkpt lat="48.13291" lon="6.44231">
        <ele>415.91</ele>
        <time>2012-04-22T09:46:25Z</time>
      </trkpt>
      <trkpt lat="48.13286" lon="6.44233">
        <ele>415.91</ele>
        <time>2012-04-22T09:46:26Z</time>
      </trkpt>
      <trkpt lat="48.13263" lon="6.44238">
        <ele>415.43</ele>
        <time>2012-04-22T09:46:31Z</time>
      </trkpt>
      <trkpt lat="48.13201" lon="6.4423">
        <ele>417.35</ele>
        <time>2012-04-22T09:46:46Z</time>
      </trkpt>
      <trkpt lat="48.13193" lon="6.4423">
        <ele>417.83</ele>
        <time>2012-04-22T09:46:48Z</time>
      </trkpt>
      <trkpt lat="48.13168" lon="6.44239">
        <ele>418.31</ele>
        <time>2012-04-22T09:46:59Z</time>
      </trkpt>
      <trkpt lat="48.13168" lon="6.44241">
        <ele>419.27</ele>
        <time>2012-04-22T09:47:12Z</time>
      </trkpt>
      <trkpt lat="48.13168" lon="6.44241">
        <ele>419.27</ele>
        <time>2012-04-22T09:47:28Z</time>
      </trkpt>
      <trkpt lat="48.13168" lon="6.44241">
        <ele>419.27</ele>
        <time>2012-04-22T09:47:40Z</time>
      </trkpt>
      <trkpt lat="48.13168" lon="6.44241">
        <ele>419.75</ele>
        <time>2012-04-22T09:47:57Z</time>
      </trkpt>
      <trkpt lat="48.13167" lon="6.44242">
        <ele>419.75</ele>
        <time>2012-04-22T09:48:15Z</time>
      </trkpt>
      <trkpt lat="48.13167" lon="6.44244">
        <ele>419.75</ele>
        <time>2012-04-22T09:48:33Z</time>
      </trkpt>
      <trkpt lat="48.13166" lon="6.44241">
        <ele>419.27</ele>
        <time>2012-04-22T09:48:48Z</time>
      </trkpt>
      <trkpt lat="48.13165" lon="6.44241">
        <ele>419.75</ele>
        <time>2012-04-22T09:49:07Z</time>
      </trkpt>
      <trkpt lat="48.13164" lon="6.44242">
        <ele>420.23</ele>
        <time>2012-04-22T09:49:22Z</time>
      </trkpt>
      <trkpt lat="48.13163" lon="6.44243">
        <ele>420.71</ele>
        <time>2012-04-22T09:49:44Z</time>
      </trkpt>
      <trkpt lat="48.13164" lon="6.44242">
        <ele>420.71</ele>
        <time>2012-04-22T09:49:58Z</time>
      </trkpt>
      <trkpt lat="48.13165" lon="6.44241">
        <ele>419.75</ele>
        <time>2012-04-22T09:50:11Z</time>
      </trkpt>
      <trkpt lat="48.13165" lon="6.44239">
        <ele>419.75</ele>
        <time>2012-04-22T09:50:23Z</time>
      </trkpt>
      <trkpt lat="48.13165" lon="6.44238">
        <ele>419.75</ele>
        <time>2012-04-22T09:50:40Z</time>
      </trkpt>
      <trkpt lat="48.13165" lon="6.44238">
        <ele>419.75</ele>
        <time>2012-04-22T09:50:57Z</time>
      </trkpt>
      <trkpt lat="48.13166" lon="6.44239">
        <ele>420.23</ele>
        <time>2012-04-22T09:51:10Z</time>
      </trkpt>
      <trkpt lat="48.13167" lon="6.44238">
        <ele>420.71</ele>
        <time>2012-04-22T09:51:27Z</time>
      </trkpt>
      <trkpt lat="48.13167" lon="6.44237">
        <ele>420.23</ele>
        <time>2012-04-22T09:51:41Z</time>
      </trkpt>
      <trkpt lat="48.13168" lon="6.44236">
        <ele>419.75</ele>
        <time>2012-04-22T09:52:05Z</time>
      </trkpt>
      <trkpt lat="48.13167" lon="6.44235">
        <ele>420.23</ele>
        <time>2012-04-22T09:52:13Z</time>
      </trkpt>
      <trkpt lat="48.13167" lon="6.44231">
        <ele>420.71</ele>
        <time>2012-04-22T09:52:15Z</time>
      </trkpt>
      <trkpt lat="48.13165" lon="6.44221">
        <ele>421.19</ele>
        <time>2012-04-22T09:52:19Z</time>
      </trkpt>
      <trkpt lat="48.13132" lon="6.44201">
        <ele>425.52</ele>
        <time>2012-04-22T09:52:33Z</time>
      </trkpt>
      <trkpt lat="48.1309" lon="6.44168">
        <ele>430.33</ele>
        <time>2012-04-22T09:52:49Z</time>
      </trkpt>
      <trkpt lat="48.13038" lon="6.44117">
        <ele>431.29</ele>
        <time>2012-04-22T09:53:06Z</time>
      </trkpt>
      <trkpt lat="48.12983" lon="6.44052">
        <ele>432.25</ele>
        <time>2012-04-22T09:53:25Z</time>
      </trkpt>
      <trkpt lat="48.12933" lon="6.43984">
        <ele>433.21</ele>
        <time>2012-04-22T09:53:43Z</time>
      </trkpt>
      <trkpt lat="48.12888" lon="6.43922">
        <ele>433.69</ele>
        <time>2012-04-22T09:53:59Z</time>
      </trkpt>
      <trkpt lat="48.12847" lon="6.43867">
        <ele>436.1</ele>
        <time>2012-04-22T09:54:15Z</time>
      </trkpt>
      <trkpt lat="48.12815" lon="6.43822">
        <ele>439.94</ele>
        <time>2012-04-22T09:54:29Z</time>
      </trkpt>
      <trkpt lat="48.12783" lon="6.43785">
        <ele>443.31</ele>
        <time>2012-04-22T09:54:41Z</time>
      </trkpt>
      <trkpt lat="48.12745" lon="6.43773">
        <ele>445.23</ele>
        <time>2012-04-22T09:54:53Z</time>
      </trkpt>
      <trkpt lat="48.12707" lon="6.43763">
        <ele>448.59</ele>
        <time>2012-04-22T09:55:07Z</time>
      </trkpt>
      <trkpt lat="48.12673" lon="6.43751">
        <ele>452.44</ele>
        <time>2012-04-22T09:55:21Z</time>
      </trkpt>
      <trkpt lat="48.12628" lon="6.4374">
        <ele>455.32</ele>
        <time>2012-04-22T09:55:37Z</time>
      </trkpt>
      <trkpt lat="48.12597" lon="6.4373">
        <ele>456.28</ele>
        <time>2012-04-22T09:55:49Z</time>
      </trkpt>
      <trkpt lat="48.12573" lon="6.43741">
        <ele>456.76</ele>
        <time>2012-04-22T09:56:00Z</time>
      </trkpt>
      <trkpt lat="48.12561" lon="6.4381">
        <ele>460.61</ele>
        <time>2012-04-22T09:56:16Z</time>
      </trkpt>
      <trkpt lat="48.12541" lon="6.43844">
        <ele>462.53</ele>
        <time>2012-04-22T09:56:29Z</time>
      </trkpt>
      <trkpt lat="48.1253" lon="6.43861">
        <ele>464.45</ele>
        <time>2012-04-22T09:56:36Z</time>
      </trkpt>
      <trkpt lat="48.12516" lon="6.43892">
        <ele>471.18</ele>
        <time>2012-04-22T09:56:50Z</time>
      </trkpt>
      <trkpt lat="48.12501" lon="6.43956">
        <ele>481.28</ele>
        <time>2012-04-22T09:57:04Z</time>
      </trkpt>
      <trkpt lat="48.12497" lon="6.4402">
        <ele>485.12</ele>
        <time>2012-04-22T09:57:16Z</time>
      </trkpt>
      <trkpt lat="48.12476" lon="6.44093">
        <ele>484.64</ele>
        <time>2012-04-22T09:57:31Z</time>
      </trkpt>
      <trkpt lat="48.12454" lon="6.44122">
        <ele>488.97</ele>
        <time>2012-04-22T09:57:44Z</time>
      </trkpt>
      <trkpt lat="48.12448" lon="6.4414">
        <ele>490.89</ele>
        <time>2012-04-22T09:57:50Z</time>
      </trkpt>
      <trkpt lat="48.12436" lon="6.44156">
        <ele>491.37</ele>
        <time>2012-04-22T09:57:54Z</time>
      </trkpt>
      <trkpt lat="48.12399" lon="6.44197">
        <ele>491.85</ele>
        <time>2012-04-22T09:58:11Z</time>
      </trkpt>
      <trkpt lat="48.12371" lon="6.44255">
        <ele>498.58</ele>
        <time>2012-04-22T09:58:26Z</time>
      </trkpt>
      <trkpt lat="48.12361" lon="6.44338">
        <ele>502.43</ele>
        <time>2012-04-22T09:58:40Z</time>
      </trkpt>
      <trkpt lat="48.12363" lon="6.44377">
        <ele>503.87</ele>
        <time>2012-04-22T09:58:49Z</time>
      </trkpt>
      <trkpt lat="48.12362" lon="6.444">
        <ele>505.79</ele>
        <time>2012-04-22T09:59:02Z</time>
      </trkpt>
      <trkpt lat="48.12363" lon="6.44406">
        <ele>507.23</ele>
        <time>2012-04-22T09:59:08Z</time>
      </trkpt>
      <trkpt lat="48.1236" lon="6.44383">
        <ele>515.88</ele>
        <time>2012-04-22T09:59:19Z</time>
      </trkpt>
      <trkpt lat="48.12358" lon="6.4438">
        <ele>517.81</ele>
        <time>2012-04-22T09:59:21Z</time>
      </trkpt>
      <trkpt lat="48.1235" lon="6.44366">
        <ele>522.61</ele>
        <time>2012-04-22T09:59:27Z</time>
      </trkpt>
      <trkpt lat="48.12336" lon="6.44335">
        <ele>530.79</ele>
        <time>2012-04-22T09:59:35Z</time>
      </trkpt>
      <trkpt lat="48.12312" lon="6.44291">
        <ele>533.19</ele>
        <time>2012-04-22T09:59:47Z</time>
      </trkpt>
      <trkpt lat="48.12293" lon="6.44233">
        <ele>530.3</ele>
        <time>2012-04-22T09:59:56Z</time>
      </trkpt>
      <trkpt lat="48.1228" lon="6.44203">
        <ele>526.94</ele>
        <time>2012-04-22T10:00:02Z</time>
      </trkpt>
      <trkpt lat="48.12256" lon="6.44139">
        <ele>521.17</ele>
        <time>2012-04-22T10:00:12Z</time>
      </trkpt>
      <trkpt lat="48.12242" lon="6.44123">
        <ele>520.21</ele>
        <time>2012-04-22T10:00:15Z</time>
      </trkpt>
      <trkpt lat="48.12238" lon="6.44118">
        <ele>520.21</ele>
        <time>2012-04-22T10:00:16Z</time>
      </trkpt>
      <trkpt lat="48.12233" lon="6.44115">
        <ele>519.73</ele>
        <time>2012-04-22T10:00:17Z</time>
      </trkpt>
      <trkpt lat="48.12228" lon="6.44112">
        <ele>519.25</ele>
        <time>2012-04-22T10:00:18Z</time>
      </trkpt>
      <trkpt lat="48.12222" lon="6.4411">
        <ele>519.25</ele>
        <time>2012-04-22T10:00:19Z</time>
      </trkpt>
      <trkpt lat="48.12205" lon="6.44105">
        <ele>518.77</ele>
        <time>2012-04-22T10:00:21Z</time>
      </trkpt>
      <trkpt lat="48.1217" lon="6.44094">
        <ele>517.33</ele>
        <time>2012-04-22T10:00:25Z</time>
      </trkpt>
      <trkpt lat="48.12151" lon="6.44093">
        <ele>516.37</ele>
        <time>2012-04-22T10:00:27Z</time>
      </trkpt>
      <trkpt lat="48.12121" lon="6.44098">
        <ele>514.92</ele>
        <time>2012-04-22T10:00:30Z</time>
      </trkpt>
      <trkpt lat="48.12102" lon="6.44103">
        <ele>513.96</ele>
        <time>2012-04-22T10:00:32Z</time>
      </trkpt>
      <trkpt lat="48.12046" lon="6.44113">
        <ele>512.04</ele>
        <time>2012-04-22T10:00:38Z</time>
      </trkpt>
      <trkpt lat="48.12037" lon="6.44117">
        <ele>511.56</ele>
        <time>2012-04-22T10:00:39Z</time>
      </trkpt>
      <trkpt lat="48.12029" lon="6.4412">
        <ele>511.56</ele>
        <time>2012-04-22T10:00:40Z</time>
      </trkpt>
      <trkpt lat="48.11996" lon="6.44133">
        <ele>510.12</ele>
        <time>2012-04-22T10:00:44Z</time>
      </trkpt>
      <trkpt lat="48.11936" lon="6.44162">
        <ele>511.56</ele>
        <time>2012-04-22T10:00:53Z</time>
      </trkpt>
      <trkpt lat="48.11905" lon="6.44184">
        <ele>513</ele>
        <time>2012-04-22T10:00:57Z</time>
      </trkpt>
      <trkpt lat="48.11898" lon="6.44191">
        <ele>513.48</ele>
        <time>2012-04-22T10:00:58Z</time>
      </trkpt>
      <trkpt lat="48.11891" lon="6.44199">
        <ele>513.96</ele>
        <time>2012-04-22T10:00:59Z</time>
      </trkpt>
      <trkpt lat="48.11845" lon="6.44239">
        <ele>516.37</ele>
        <time>2012-04-22T10:01:05Z</time>
      </trkpt>
      <trkpt lat="48.11836" lon="6.44245">
        <ele>515.88</ele>
        <time>2012-04-22T10:01:06Z</time>
      </trkpt>
      <trkpt lat="48.11828" lon="6.44247">
        <ele>515.4</ele>
        <time>2012-04-22T10:01:07Z</time>
      </trkpt>
      <trkpt lat="48.1182" lon="6.44247">
        <ele>514.92</ele>
        <time>2012-04-22T10:01:08Z</time>
      </trkpt>
      <trkpt lat="48.11813" lon="6.44245">
        <ele>514.44</ele>
        <time>2012-04-22T10:01:09Z</time>
      </trkpt>
      <trkpt lat="48.11807" lon="6.44241">
        <ele>513.96</ele>
        <time>2012-04-22T10:01:10Z</time>
      </trkpt>
      <trkpt lat="48.11801" lon="6.44236">
        <ele>513.48</ele>
        <time>2012-04-22T10:01:11Z</time>
      </trkpt>
      <trkpt lat="48.11798" lon="6.44227">
        <ele>513</ele>
        <time>2012-04-22T10:01:12Z</time>
      </trkpt>
      <trkpt lat="48.11796" lon="6.44217">
        <ele>513</ele>
        <time>2012-04-22T10:01:13Z</time>
      </trkpt>
      <trkpt lat="48.11794" lon="6.44209">
        <ele>512.04</ele>
        <time>2012-04-22T10:01:14Z</time>
      </trkpt>
      <trkpt lat="48.11791" lon="6.4419">
        <ele>510.12</ele>
        <time>2012-04-22T10:01:16Z</time>
      </trkpt>
      <trkpt lat="48.11789" lon="6.44169">
        <ele>508.67</ele>
        <time>2012-04-22T10:01:18Z</time>
      </trkpt>
      <trkpt lat="48.11782" lon="6.4414">
        <ele>502.91</ele>
        <time>2012-04-22T10:01:21Z</time>
      </trkpt>
      <trkpt lat="48.11779" lon="6.44135">
        <ele>499.54</ele>
        <time>2012-04-22T10:01:22Z</time>
      </trkpt>
      <trkpt lat="48.11775" lon="6.44132">
        <ele>497.14</ele>
        <time>2012-04-22T10:01:23Z</time>
      </trkpt>
      <trkpt lat="48.11771" lon="6.44132">
        <ele>493.77</ele>
        <time>2012-04-22T10:01:24Z</time>
      </trkpt>
      <trkpt lat="48.11765" lon="6.44132">
        <ele>489.93</ele>
        <time>2012-04-22T10:01:25Z</time>
      </trkpt>
      <trkpt lat="48.11759" lon="6.44131">
        <ele>487.53</ele>
        <time>2012-04-22T10:01:26Z</time>
      </trkpt>
      <trkpt lat="48.11753" lon="6.44128">
        <ele>485.12</ele>
        <time>2012-04-22T10:01:27Z</time>
      </trkpt>
      <trkpt lat="48.11749" lon="6.44124">
        <ele>483.2</ele>
        <time>2012-04-22T10:01:28Z</time>
      </trkpt>
      <trkpt lat="48.11745" lon="6.44117">
        <ele>479.35</ele>
        <time>2012-04-22T10:01:30Z</time>
      </trkpt>
      <trkpt lat="48.11745" lon="6.44113">
        <ele>477.43</ele>
        <time>2012-04-22T10:01:31Z</time>
      </trkpt>
      <trkpt lat="48.11755" lon="6.44079">
        <ele>468.78</ele>
        <time>2012-04-22T10:01:37Z</time>
      </trkpt>
      <trkpt lat="48.11756" lon="6.44072">
        <ele>467.82</ele>
        <time>2012-04-22T10:01:38Z</time>
      </trkpt>
      <trkpt lat="48.11757" lon="6.44064">
        <ele>467.34</ele>
        <time>2012-04-22T10:01:39Z</time>
      </trkpt>
      <trkpt lat="48.11758" lon="6.44056">
        <ele>466.38</ele>
        <time>2012-04-22T10:01:40Z</time>
      </trkpt>
      <trkpt lat="48.11758" lon="6.44049">
        <ele>465.42</ele>
        <time>2012-04-22T10:01:41Z</time>
      </trkpt>
      <trkpt lat="48.1176" lon="6.44036">
        <ele>463.97</ele>
        <time>2012-04-22T10:01:43Z</time>
      </trkpt>
      <trkpt lat="48.11761" lon="6.4403">
        <ele>463.49</ele>
        <time>2012-04-22T10:01:44Z</time>
      </trkpt>
      <trkpt lat="48.11761" lon="6.44023">
        <ele>463.49</ele>
        <time>2012-04-22T10:01:45Z</time>
      </trkpt>
      <trkpt lat="48.11761" lon="6.44017">
        <ele>462.53</ele>
        <time>2012-04-22T10:01:46Z</time>
      </trkpt>
      <trkpt lat="48.11761" lon="6.44011">
        <ele>462.53</ele>
        <time>2012-04-22T10:01:47Z</time>
      </trkpt>
      <trkpt lat="48.1176" lon="6.44004">
        <ele>462.53</ele>
        <time>2012-04-22T10:01:48Z</time>
      </trkpt>
      <trkpt lat="48.11758" lon="6.43998">
        <ele>462.05</ele>
        <time>2012-04-22T10:01:49Z</time>
      </trkpt>
      <trkpt lat="48.11756" lon="6.43992">
        <ele>462.05</ele>
        <time>2012-04-22T10:01:50Z</time>
      </trkpt>
      <trkpt lat="48.11754" lon="6.43986">
        <ele>462.05</ele>
        <time>2012-04-22T10:01:51Z</time>
      </trkpt>
      <trkpt lat="48.11752" lon="6.43981">
        <ele>461.57</ele>
        <time>2012-04-22T10:01:52Z</time>
      </trkpt>
      <trkpt lat="48.1175" lon="6.43976">
        <ele>461.57</ele>
        <time>2012-04-22T10:01:53Z</time>
      </trkpt>
      <trkpt lat="48.11748" lon="6.43971">
        <ele>461.09</ele>
        <time>2012-04-22T10:01:54Z</time>
      </trkpt>
      <trkpt lat="48.11746" lon="6.43966">
        <ele>461.09</ele>
        <time>2012-04-22T10:01:55Z</time>
      </trkpt>
      <trkpt lat="48.11745" lon="6.43962">
        <ele>461.57</ele>
        <time>2012-04-22T10:01:56Z</time>
      </trkpt>
      <trkpt lat="48.11744" lon="6.43957">
        <ele>461.57</ele>
        <time>2012-04-22T10:01:57Z</time>
      </trkpt>
      <trkpt lat="48.11744" lon="6.43952">
        <ele>462.05</ele>
        <time>2012-04-22T10:01:58Z</time>
      </trkpt>
      <trkpt lat="48.11745" lon="6.43947">
        <ele>462.05</ele>
        <time>2012-04-22T10:01:59Z</time>
      </trkpt>
      <trkpt lat="48.11747" lon="6.43944">
        <ele>462.53</ele>
        <time>2012-04-22T10:02:00Z</time>
      </trkpt>
      <trkpt lat="48.11749" lon="6.43942">
        <ele>462.53</ele>
        <time>2012-04-22T10:02:01Z</time>
      </trkpt>
      <trkpt lat="48.11751" lon="6.4394">
        <ele>463.01</ele>
        <time>2012-04-22T10:02:02Z</time>
      </trkpt>
      <trkpt lat="48.11752" lon="6.43939">
        <ele>463.01</ele>
        <time>2012-04-22T10:02:03Z</time>
      </trkpt>
      <trkpt lat="48.11753" lon="6.43938">
        <ele>463.01</ele>
        <time>2012-04-22T10:02:04Z</time>
      </trkpt>
      <trkpt lat="48.11754" lon="6.43936">
        <ele>463.01</ele>
        <time>2012-04-22T10:02:05Z</time>
      </trkpt>
      <trkpt lat="48.11754" lon="6.43926">
        <ele>465.42</ele>
        <time>2012-04-22T10:02:11Z</time>
      </trkpt>
      <trkpt lat="48.11752" lon="6.43881">
        <ele>473.11</ele>
        <time>2012-04-22T10:02:25Z</time>
      </trkpt>
      <trkpt lat="48.11745" lon="6.43837">
        <ele>476.95</ele>
        <time>2012-04-22T10:02:34Z</time>
      </trkpt>
      <trkpt lat="48.11731" lon="6.43829">
        <ele>480.32</ele>
        <time>2012-04-22T10:02:39Z</time>
      </trkpt>
      <trkpt lat="48.11726" lon="6.4381">
        <ele>483.2</ele>
        <time>2012-04-22T10:02:43Z</time>
      </trkpt>
      <trkpt lat="48.11694" lon="6.43755">
        <ele>482.24</ele>
        <time>2012-04-22T10:02:57Z</time>
      </trkpt>
      <trkpt lat="48.11657" lon="6.43728">
        <ele>477.91</ele>
        <time>2012-04-22T10:03:11Z</time>
      </trkpt>
      <trkpt lat="48.11619" lon="6.43681">
        <ele>474.55</ele>
        <time>2012-04-22T10:03:26Z</time>
      </trkpt>
      <trkpt lat="48.11602" lon="6.43658">
        <ele>472.14</ele>
        <time>2012-04-22T10:03:34Z</time>
      </trkpt>
      <trkpt lat="48.11538" lon="6.43612">
        <ele>469.74</ele>
        <time>2012-04-22T10:03:45Z</time>
      </trkpt>
      <trkpt lat="48.11439" lon="6.43568">
        <ele>460.61</ele>
        <time>2012-04-22T10:03:58Z</time>
      </trkpt>
      <trkpt lat="48.11349" lon="6.43538">
        <ele>451.48</ele>
        <time>2012-04-22T10:04:09Z</time>
      </trkpt>
      <trkpt lat="48.11315" lon="6.43525">
        <ele>447.63</ele>
        <time>2012-04-22T10:04:13Z</time>
      </trkpt>
      <trkpt lat="48.11223" lon="6.43505">
        <ele>439.46</ele>
        <time>2012-04-22T10:04:25Z</time>
      </trkpt>
      <trkpt lat="48.11139" lon="6.43483">
        <ele>434.17</ele>
        <time>2012-04-22T10:04:38Z</time>
      </trkpt>
      <trkpt lat="48.11044" lon="6.43457">
        <ele>428.4</ele>
        <time>2012-04-22T10:04:54Z</time>
      </trkpt>
      <trkpt lat="48.10987" lon="6.43439">
        <ele>426.96</ele>
        <time>2012-04-22T10:05:06Z</time>
      </trkpt>
      <trkpt lat="48.10983" lon="6.4344">
        <ele>426.96</ele>
        <time>2012-04-22T10:05:07Z</time>
      </trkpt>
      <trkpt lat="48.10979" lon="6.43443">
        <ele>426.48</ele>
        <time>2012-04-22T10:05:08Z</time>
      </trkpt>
      <trkpt lat="48.10977" lon="6.43448">
        <ele>426.48</ele>
        <time>2012-04-22T10:05:09Z</time>
      </trkpt>
      <trkpt lat="48.10975" lon="6.43454">
        <ele>426</ele>
        <time>2012-04-22T10:05:10Z</time>
      </trkpt>
      <trkpt lat="48.10947" lon="6.43552">
        <ele>426</ele>
        <time>2012-04-22T10:05:26Z</time>
      </trkpt>
      <trkpt lat="48.1091" lon="6.43667">
        <ele>426</ele>
        <time>2012-04-22T10:05:44Z</time>
      </trkpt>
      <trkpt lat="48.10885" lon="6.43741">
        <ele>427.44</ele>
        <time>2012-04-22T10:05:57Z</time>
      </trkpt>
      <trkpt lat="48.1087" lon="6.43795">
        <ele>428.89</ele>
        <time>2012-04-22T10:06:08Z</time>
      </trkpt>
      <trkpt lat="48.10861" lon="6.43822">
        <ele>428.89</ele>
        <time>2012-04-22T10:06:13Z</time>
      </trkpt>
      <trkpt lat="48.10852" lon="6.43852">
        <ele>428.89</ele>
        <time>2012-04-22T10:06:18Z</time>
      </trkpt>
      <trkpt lat="48.10819" lon="6.43961">
        <ele>427.92</ele>
        <time>2012-04-22T10:06:34Z</time>
      </trkpt>
      <trkpt lat="48.10816" lon="6.43969">
        <ele>427.44</ele>
        <time>2012-04-22T10:06:35Z</time>
      </trkpt>
      <trkpt lat="48.10813" lon="6.43975">
        <ele>427.44</ele>
        <time>2012-04-22T10:06:36Z</time>
      </trkpt>
      <trkpt lat="48.10808" lon="6.4398">
        <ele>426.96</ele>
        <time>2012-04-22T10:06:37Z</time>
      </trkpt>
      <trkpt lat="48.10789" lon="6.43996">
        <ele>425.52</ele>
        <time>2012-04-22T10:06:41Z</time>
      </trkpt>
      <trkpt lat="48.10784" lon="6.43997">
        <ele>425.04</ele>
        <time>2012-04-22T10:06:42Z</time>
      </trkpt>
      <trkpt lat="48.10778" lon="6.43998">
        <ele>425.04</ele>
        <time>2012-04-22T10:06:43Z</time>
      </trkpt>
      <trkpt lat="48.10773" lon="6.43997">
        <ele>424.56</ele>
        <time>2012-04-22T10:06:44Z</time>
      </trkpt>
      <trkpt lat="48.10768" lon="6.43996">
        <ele>424.08</ele>
        <time>2012-04-22T10:06:45Z</time>
      </trkpt>
      <trkpt lat="48.10764" lon="6.43994">
        <ele>424.08</ele>
        <time>2012-04-22T10:06:46Z</time>
      </trkpt>
      <trkpt lat="48.10695" lon="6.43971">
        <ele>421.19</ele>
        <time>2012-04-22T10:06:59Z</time>
      </trkpt>
      <trkpt lat="48.10655" lon="6.43956">
        <ele>419.27</ele>
        <time>2012-04-22T10:07:07Z</time>
      </trkpt>
      <trkpt lat="48.1065" lon="6.43957">
        <ele>419.27</ele>
        <time>2012-04-22T10:07:08Z</time>
      </trkpt>
      <trkpt lat="48.10646" lon="6.43961">
        <ele>418.79</ele>
        <time>2012-04-22T10:07:09Z</time>
      </trkpt>
      <trkpt lat="48.10643" lon="6.43966">
        <ele>418.79</ele>
        <time>2012-04-22T10:07:10Z</time>
      </trkpt>
      <trkpt lat="48.10641" lon="6.43972">
        <ele>418.79</ele>
        <time>2012-04-22T10:07:11Z</time>
      </trkpt>
      <trkpt lat="48.10639" lon="6.43979">
        <ele>418.79</ele>
        <time>2012-04-22T10:07:12Z</time>
      </trkpt>
      <trkpt lat="48.10637" lon="6.43986">
        <ele>418.79</ele>
        <time>2012-04-22T10:07:13Z</time>
      </trkpt>
      <trkpt lat="48.10635" lon="6.43993">
        <ele>418.79</ele>
        <time>2012-04-22T10:07:14Z</time>
      </trkpt>
      <trkpt lat="48.10633" lon="6.44">
        <ele>418.79</ele>
        <time>2012-04-22T10:07:15Z</time>
      </trkpt>
      <trkpt lat="48.10609" lon="6.44121">
        <ele>419.75</ele>
        <time>2012-04-22T10:07:30Z</time>
      </trkpt>
      <trkpt lat="48.10602" lon="6.44144">
        <ele>419.75</ele>
        <time>2012-04-22T10:07:33Z</time>
      </trkpt>
      <trkpt lat="48.10602" lon="6.44152">
        <ele>420.23</ele>
        <time>2012-04-22T10:07:34Z</time>
      </trkpt>
      <trkpt lat="48.10603" lon="6.44159">
        <ele>420.23</ele>
        <time>2012-04-22T10:07:35Z</time>
      </trkpt>
      <trkpt lat="48.10605" lon="6.44166">
        <ele>420.71</ele>
        <time>2012-04-22T10:07:36Z</time>
      </trkpt>
      <trkpt lat="48.10608" lon="6.44172">
        <ele>420.71</ele>
        <time>2012-04-22T10:07:37Z</time>
      </trkpt>
      <trkpt lat="48.10612" lon="6.44177">
        <ele>421.68</ele>
        <time>2012-04-22T10:07:38Z</time>
      </trkpt>
      <trkpt lat="48.10616" lon="6.44182">
        <ele>421.68</ele>
        <time>2012-04-22T10:07:39Z</time>
      </trkpt>
      <trkpt lat="48.10669" lon="6.44244">
        <ele>426</ele>
        <time>2012-04-22T10:07:53Z</time>
      </trkpt>
      <trkpt lat="48.10702" lon="6.4426">
        <ele>428.4</ele>
        <time>2012-04-22T10:08:05Z</time>
      </trkpt>
      <trkpt lat="48.10706" lon="6.44259">
        <ele>427.92</ele>
        <time>2012-04-22T10:08:14Z</time>
      </trkpt>
      <trkpt lat="48.10707" lon="6.44258">
        <ele>427.44</ele>
        <time>2012-04-22T10:08:25Z</time>
      </trkpt>
      <trkpt lat="48.10708" lon="6.44265">
        <ele>425.52</ele>
        <time>2012-04-22T10:08:37Z</time>
      </trkpt>
      <trkpt lat="48.10708" lon="6.44266">
        <ele>425.04</ele>
        <time>2012-04-22T10:08:58Z</time>
      </trkpt>
      <trkpt lat="48.10708" lon="6.44268">
        <ele>424.56</ele>
        <time>2012-04-22T10:09:19Z</time>
      </trkpt>
      <trkpt lat="48.10708" lon="6.44267">
        <ele>425.04</ele>
        <time>2012-04-22T10:09:30Z</time>
      </trkpt>
      <trkpt lat="48.10708" lon="6.44268">
        <ele>425.52</ele>
        <time>2012-04-22T10:09:36Z</time>
      </trkpt>
    </trkseg>
  </trk>
</gpx>